[[{"header":{"parameterUnit":"m.s-1","parameterCategory":1,"la1":31.0,"la2":29.5877,"lo1":-88.7671,"lo2":-86.6584,"dy":0.0162,"dx":0.0185,"nx":115,"ny":88,"refTime":"2023-03-23T06:00:00:Z","depth":0,"parameterNumber":2,"parameterNumberName":"U-component_of_WINDS"},"data":[0.0,0.0,0.0,0.0,0.0,0.0,0.0,0.0,0.0,0.0,0.0,0.0,0.0,0.0,0.0,0.0,0.0,0.0,0.0,0.0,0.0,0.0,0.0,0.0,0.0,0.0,0.0,0.0,0.0,0.0,0.0,0.0,0.0,0.0,0.0,0.0,0.0,0.0,0.0,0.0,0.0,0.0,0.0,0.0,0.0,0.0,0.0,0.0,0.0,0.0,0.0,0.0,0.0,0.0,0.0,0.0,0.0,0.0,0.0,0.0,0.0,0.0,0.0,0.0,0.0,0.0,0.0,0.0,0.0,0.0,0.0,0.0,0.0,0.0,0.0,0.0,0.0,0.0,0.0,0.0,0.0,0.0,0.0,0.0,0.0,0.0,0.0,0.0,0.0,0.0,0.0,0.0,0.0,0.0,0.0,0.0,0.0,0.0,0.0,0.0,0.0,0.0,0.0,0.0,0.0,0.0,0.0,0.0,0.0,0.0,0.0,0.0,0.0,0.0,0.0,0.0,0.0,0.0,0.0,0.0,0.0,0.0,0.0,0.0,0.0,0.0,0.0,0.0,0.0,0.0,0.0,0.0,0.0,0.0,0.0,0.0,0.0,0.0,0.0,0.0,0.0,0.0,0.0,0.0,0.0,0.0,0.0,0.0,0.0,0.0,0.0,0.0,0.0,0.0,0.0,0.0,0.0,0.0,0.0,0.0,0.0,0.0,0.0,0.0,0.0,0.0,0.0,0.0,0.0,0.0,0.0,0.0,0.0,0.0,0.0,0.0,0.0,0.0,0.0,0.0,0.0,0.0,0.0,0.0,0.0,0.0,0.0,0.0,0.0,0.0,0.0,0.0,0.0,0.0,0.0,0.0,0.0,0.0,0.0,0.0,0.0,0.0,0.0,0.0,0.0,0.0,0.0,0.0,0.0,0.0,0.0,0.0,0.0,0.0,0.0,0.0,0.0,0.0,0.0,0.0,0.0,0.0,0.0,0.0,0.0,0.0,0.0,0.0,0.0,0.0,0.0,0.0,0.0,0.0,0.0,0.0,0.0,0.0,0.0,0.0,0.0,0.0,0.0,0.0,0.0,0.0,0.0,0.0,0.0,0.0,0.0,0.0,0.0,0.0,0.0,0.0,0.0,0.0,0.0,0.0,0.0,0.0,0.0,0.0,0.0,0.0,0.0,0.0,0.0,0.0,0.0,0.0,0.0,0.0,0.0,0.0,0.0,0.0,0.0,0.0,0.0,0.0,0.0,0.0,0.0,0.0,0.0,0.0,0.0,0.0,0.0,0.0,0.0,0.0,0.0,0.0,0.0,0.0,0.0,0.0,0.0,0.0,0.0,0.0,0.0,0.0,0.0,0.0,0.0,0.0,0.0,0.0,0.0,0.0,0.0,0.0,0.0,0.0,0.0,0.0,0.0,0.0,0.0,0.0,0.0,0.0,0.0,0.0,0.0,0.0,0.0,0.0,0.0,0.0,0.0,0.0,0.0,0.0,0.0,0.0,0.0,0.0,0.0,0.0,0.0,0.0,0.0,0.0,0.0,0.0,0.0,0.0,0.0,0.0,0.0,0.0,0.0,0.0,0.0,0.0,0.0,0.0,0.0,0.0,0.0,0.0,0.0,0.0,0.0,0.0,0.0,0.0,0.0,0.0,0.0,0.0,0.0,0.0,0.0,0.0,0.0,0.0,0.0,0.0,0.0,0.0,0.0,0.0,0.0,0.0,0.0,0.0,0.0,0.0,0.0,0.0,0.0,0.0,0.0,0.0,0.0,0.0,0.0,0.0,0.0,0.0,0.0,0.0,0.0,0.0,0.0,0.0,0.0,0.0,0.0,0.0,0.0,0.0,0.0,0.0,0.0,0.0,0.0,0.0,0.0,0.0,0.0,0.0,0.0,0.0,0.0,0.0,0.0,0.0,0.0,0.0,0.0,0.0,0.0,0.0,0.0,0.0,0.0,0.0,0.0,0.0,0.0,0.0,0.0,0.0,0.0,0.0,0.0,0.0,0.0,0.0,0.0,0.0,0.0,0.0,0.0,0.0,0.0,0.0,0.0,0.0,0.0,0.0,0.0,0.0,0.0,0.0,0.0,0.0,0.0,0.0,0.0,0.0,0.0,0.0,0.0,0.0,0.0,0.0,0.0,0.0,0.0,0.0,0.0,0.0,0.0,0.0,0.0,0.0,0.0,0.0,0.0,0.0,0.0,0.0,0.0,0.0,0.0,0.0,0.0,0.0,0.0,0.0,0.0,0.0,0.0,0.0,0.0,0.0,0.0,0.0,0.0,0.0,0.0,0.0,0.0,0.0,0.0,0.0,0.0,0.0,0.0,0.0,0.0,0.0,0.0,0.0,0.0,0.0,0.0,0.0,0.0,0.0,0.0,0.0,0.0,0.0,0.0,0.0,0.0,0.0,0.0,0.0,0.0,0.0,0.0,0.0,0.0,0.0,0.0,0.0,0.0,0.0,0.0,0.0,0.0,0.0,0.0,0.0,0.0,0.0,0.0,0.0,0.0,0.0,0.0,0.0,0.0,0.0,0.0,0.0,0.0,0.0,0.0,0.0,0.0,0.0,0.0,0.0,0.0,0.0,0.0,0.0,0.0,0.0,0.0,0.0,0.0,0.0,0.0,0.0,0.0,0.0,0.0,0.0,0.0,0.0,0.0,0.0,0.0,0.0,0.0,0.0,0.0,0.0,0.0,0.0,0.0,0.0,0.0,0.0,0.0,0.0,0.0,0.0,0.0,0.0,0.0,0.0,0.0,0.0,0.0,0.0,0.0,0.0,0.0,0.0,0.0,0.0,0.0,0.0,0.0,0.0,0.0,0.0,0.0,0.0,0.0,0.0,0.0,0.0,0.0,0.0,0.0,0.0,0.0,0.0,0.0,0.0,0.0,0.0,0.0,0.0,0.0,0.0,0.0,0.0,0.0,0.0,0.0,0.0,0.0,0.0,0.0,0.0,0.0,0.0,0.0,0.0,0.0,0.0,0.0,0.0,0.0,0.0,0.0,0.0,0.0,0.0,0.0,0.0,0.0,0.0,0.0,0.0,0.0,0.0,0.0,0.0,0.0,0.0,0.0,0.0,0.0,0.0,0.0,0.0,0.0,0.0,0.0,0.0,0.0,0.0,0.0,0.0,0.0,0.0,0.0,0.0,0.0,0.0,0.0,0.0,0.0,0.0,0.0,0.0,0.0,0.0,0.0,0.0,0.0,0.0,0.0,0.0,0.0,0.0,0.0,0.0,0.0,0.0,0.0,0.0,0.0,0.0,0.0,0.0,0.0,0.0,0.0,0.0,0.0,0.0,0.0,0.0,0.0,0.0,0.0,0.0,0.0,0.0,0.0,0.0,0.0,0.0,0.0,0.0,0.0,0.0,0.0,0.0,0.0,0.0,0.0,0.0,0.0,0.0,0.0,0.0,0.0,0.0,0.0,0.0,0.0,0.0,0.0,0.0,0.0,0.0,0.0,0.0,0.0,0.0,0.0,0.0,0.0,0.0,0.0,0.0,0.0,0.0,0.0,0.0,0.0,0.0,0.0,0.0,0.0,0.0,0.0,0.0,0.0,0.0,0.0,0.0,0.0,0.0,0.0,0.0,0.0,0.0,0.0,0.0,0.0,0.0,0.0,0.0,0.0,0.0,0.0,0.0,0.0,0.0,0.0,0.0,0.0,0.0,0.0,0.0,0.0,0.0,0.0,0.0,0.0,0.0,0.0,0.0,0.0,0.0,0.0,0.0,0.0,0.0,0.0,0.0,0.0,0.0,0.0,0.0,0.0,0.0,0.0,0.0,0.0,0.0,0.0,0.0,0.0,0.0,0.0,0.0,0.0,0.0,0.0,0.0,0.0,0.0,0.0,0.0,0.0,0.0,0.0,0.0,0.0,0.0,0.0,0.0,0.0,0.0,0.0,0.0,0.0,0.0,0.0,0.0,0.0,0.0,0.0,0.0,0.0,0.0,0.0,0.0,0.0,0.0,0.0,0.0,0.0,0.0,0.0,0.0,0.0,0.0,0.0,0.0,0.0,0.0,0.0,0.0,0.0,0.0,0.0,0.0,0.0,0.0,0.0,0.0,0.0,0.0,0.0,0.0,0.0,0.0,0.0,0.0,0.0,0.0,0.0,0.0,0.0,0.0,0.0,0.0,0.0,0.0,0.0,0.0,0.0,0.0,0.0,0.0,0.0,0.0,0.0,0.0,0.0,0.0,0.0,0.0,0.0,0.0,0.0,0.0,0.0,0.0,0.0,0.0,0.0,0.0,0.0,0.0,5.2913,0.0,0.0,0.0,0.0,0.0,0.0,0.0,0.0,0.0,0.0,0.0,0.0,0.0,0.0,0.0,0.0,0.0,0.0,0.0,0.0,0.0,0.0,0.0,0.0,0.0,0.0,0.0,0.0,0.0,0.0,0.0,0.0,0.0,0.0,0.0,0.0,0.0,0.0,0.0,0.0,0.0,0.0,0.0,0.0,0.0,0.0,0.0,0.0,0.0,0.0,0.0,0.0,0.0,0.0,0.0,0.0,0.0,0.0,0.0,0.0,0.0,0.0,0.0,0.0,0.0,0.0,0.0,0.0,0.0,0.0,0.0,0.0,0.0,0.0,0.0,0.0,0.0,0.0,0.0,0.0,0.0,0.0,0.0,0.0,0.0,0.0,0.0,0.0,0.0,0.0,0.0,0.0,0.0,0.0,0.0,0.0,0.0,0.0,0.0,0.0,0.0,0.0,0.0,0.0,0.0,0.0,0.0,0.0,0.0,0.0,5.2605,5.3386,5.2773,5.272,5.333,0.0,0.0,0.0,0.0,0.0,0.0,0.0,0.0,0.0,0.0,0.0,0.0,0.0,0.0,0.0,0.0,0.0,0.0,0.0,0.0,0.0,0.0,0.0,0.0,0.0,0.0,0.0,0.0,0.0,0.0,0.0,0.0,0.0,0.0,0.0,0.0,0.0,0.0,0.0,0.0,0.0,0.0,0.0,0.0,0.0,0.0,0.0,0.0,0.0,0.0,0.0,0.0,0.0,0.0,0.0,0.0,0.0,0.0,0.0,0.0,0.0,0.0,0.0,0.0,0.0,0.0,0.0,0.0,0.0,0.0,0.0,0.0,0.0,0.0,0.0,0.0,0.0,0.0,0.0,0.0,0.0,0.0,0.0,0.0,0.0,0.0,0.0,0.0,0.0,0.0,0.0,0.0,0.0,0.0,0.0,0.0,0.0,0.0,0.0,0.0,0.0,0.0,0.0,0.0,0.0,0.0,0.0,0.0,0.0,0.0,0.0,0.0,5.2602,5.2525,5.3034,0.0,0.0,0.0,0.0,0.0,0.0,0.0,0.0,0.0,0.0,0.0,0.0,0.0,0.0,0.0,0.0,0.0,0.0,0.0,0.0,0.0,0.0,0.0,0.0,0.0,0.0,0.0,0.0,0.0,0.0,0.0,0.0,0.0,0.0,0.0,0.0,0.0,0.0,0.0,0.0,0.0,0.0,0.0,0.0,0.0,0.0,0.0,0.0,0.0,0.0,0.0,0.0,0.0,0.0,0.0,0.0,0.0,0.0,0.0,0.0,0.0,0.0,0.0,0.0,0.0,0.0,0.0,0.0,0.0,0.0,0.0,0.0,0.0,0.0,0.0,0.0,0.0,0.0,0.0,0.0,0.0,0.0,0.0,0.0,0.0,0.0,0.0,0.0,0.0,0.0,0.0,0.0,0.0,0.0,0.0,0.0,0.0,0.0,0.0,0.0,0.0,0.0,0.0,0.0,0.0,0.0,0.0,0.0,0.0,0.0,5.2872,5.3333,5.2934,0.0,5.218,0.0,0.0,0.0,0.0,0.0,0.0,0.0,0.0,0.0,0.0,0.0,0.0,0.0,0.0,0.0,0.0,0.0,0.0,0.0,0.0,0.0,0.0,0.0,0.0,0.0,0.0,0.0,0.0,0.0,0.0,0.0,0.0,0.0,0.0,0.0,0.0,0.0,0.0,0.0,0.0,0.0,0.0,0.0,0.0,0.0,0.0,0.0,0.0,0.0,0.0,0.0,0.0,0.0,0.0,0.0,0.0,0.0,0.0,0.0,0.0,0.0,0.0,0.0,0.0,0.0,0.0,0.0,0.0,0.0,0.0,0.0,0.0,0.0,0.0,0.0,0.0,0.0,0.0,0.0,0.0,0.0,0.0,0.0,0.0,0.0,0.0,0.0,0.0,0.0,0.0,0.0,0.0,0.0,0.0,0.0,0.0,0.0,0.0,0.0,0.0,0.0,0.0,0.0,0.0,0.0,0.0,0.0,0.0,0.0,0.0,5.35,5.3629,5.3237,5.279,0.0,0.0,0.0,0.0,0.0,0.0,0.0,0.0,0.0,0.0,0.0,0.0,0.0,0.0,0.0,0.0,0.0,0.0,0.0,0.0,0.0,0.0,0.0,0.0,0.0,0.0,0.0,0.0,0.0,0.0,0.0,0.0,0.0,0.0,0.0,0.0,0.0,0.0,0.0,0.0,0.0,0.0,0.0,0.0,0.0,0.0,0.0,0.0,0.0,0.0,0.0,0.0,0.0,0.0,0.0,0.0,0.0,0.0,0.0,0.0,0.0,0.0,0.0,0.0,0.0,0.0,0.0,0.0,0.0,0.0,0.0,0.0,0.0,0.0,0.0,0.0,0.0,0.0,0.0,0.0,0.0,0.0,0.0,0.0,0.0,0.0,0.0,0.0,0.0,0.0,0.0,0.0,0.0,0.0,0.0,0.0,0.0,0.0,0.0,0.0,0.0,0.0,0.0,0.0,0.0,0.0,0.0,0.0,0.0,0.0,5.3235,5.3696,5.3459,5.3157,5.2675,5.2007,0.0,0.0,0.0,0.0,0.0,0.0,0.0,0.0,0.0,0.0,0.0,0.0,0.0,0.0,0.0,0.0,0.0,0.0,0.0,0.0,0.0,0.0,0.0,0.0,0.0,0.0,0.0,0.0,0.0,0.0,0.0,0.0,0.0,0.0,0.0,0.0,0.0,0.0,0.0,0.0,0.0,0.0,0.0,0.0,0.0,0.0,0.0,0.0,0.0,0.0,0.0,0.0,0.0,0.0,0.0,0.0,0.0,0.0,0.0,0.0,0.0,0.0,0.0,0.0,0.0,0.0,0.0,0.0,0.0,0.0,0.0,0.0,0.0,0.0,0.0,0.0,0.0,0.0,0.0,0.0,0.0,0.0,0.0,0.0,0.0,0.0,0.0,0.0,0.0,0.0,0.0,0.0,0.0,0.0,0.0,0.0,0.0,0.0,0.0,0.0,0.0,0.0,0.0,0.0,0.0,0.0,0.0,0.0,5.3289,5.3534,5.3265,5.2611,5.2526,5.2159,0.0,0.0,0.0,0.0,0.0,0.0,0.0,0.0,0.0,0.0,0.0,0.0,0.0,0.0,0.0,0.0,0.0,0.0,0.0,0.0,0.0,0.0,0.0,0.0,0.0,0.0,0.0,0.0,0.0,0.0,0.0,0.0,0.0,0.0,0.0,0.0,0.0,0.0,0.0,0.0,0.0,0.0,0.0,0.0,0.0,0.0,0.0,0.0,0.0,0.0,0.0,0.0,0.0,0.0,0.0,0.0,0.0,0.0,0.0,0.0,0.0,0.0,0.0,0.0,0.0,0.0,0.0,0.0,0.0,0.0,0.0,0.0,0.0,0.0,0.0,0.0,0.0,0.0,0.0,0.0,0.0,0.0,0.0,0.0,0.0,0.0,0.0,0.0,0.0,0.0,0.0,0.0,0.0,0.0,0.0,0.0,0.0,0.0,0.0,0.0,0.0,0.0,0.0,0.0,0.0,0.0,0.0,0.0,0.0,5.3595,5.3905,5.3574,5.2621,5.2371,5.1663,0.0,0.0,0.0,0.0,0.0,0.0,0.0,0.0,0.0,0.0,0.0,0.0,0.0,0.0,0.0,0.0,0.0,0.0,0.0,0.0,0.0,0.0,0.0,0.0,0.0,0.0,0.0,0.0,0.0,0.0,0.0,0.0,0.0,0.0,0.0,0.0,0.0,0.0,0.0,0.0,0.0,0.0,0.0,0.0,0.0,0.0,0.0,0.0,0.0,0.0,0.0,0.0,0.0,0.0,0.0,0.0,0.0,0.0,0.0,0.0,0.0,0.0,0.0,0.0,0.0,0.0,0.0,0.0,0.0,0.0,0.0,0.0,0.0,0.0,0.0,0.0,0.0,0.0,0.0,0.0,0.0,0.0,0.0,0.0,0.0,0.0,0.0,0.0,0.0,0.0,0.0,0.0,0.0,0.0,0.0,0.0,0.0,0.0,0.0,0.0,0.0,0.0,0.0,0.0,0.0,0.0,0.0,0.0,0.0,5.4055,0.0,5.3808,5.292,5.293,5.2376,0.0,0.0,0.0,0.0,0.0,0.0,0.0,0.0,0.0,0.0,0.0,0.0,0.0,0.0,0.0,0.0,0.0,0.0,0.0,0.0,0.0,0.0,0.0,0.0,0.0,0.0,0.0,0.0,0.0,0.0,0.0,0.0,0.0,0.0,0.0,0.0,0.0,0.0,0.0,0.0,0.0,0.0,0.0,0.0,0.0,0.0,0.0,0.0,0.0,0.0,0.0,0.0,0.0,0.0,0.0,0.0,0.0,0.0,0.0,0.0,0.0,0.0,0.0,0.0,0.0,0.0,0.0,0.0,0.0,0.0,0.0,0.0,0.0,0.0,0.0,0.0,0.0,0.0,0.0,0.0,0.0,0.0,0.0,0.0,0.0,0.0,0.0,0.0,0.0,0.0,0.0,0.0,0.0,0.0,0.0,0.0,0.0,0.0,0.0,0.0,0.0,0.0,0.0,0.0,0.0,0.0,0.0,0.0,5.4774,5.4708,5.4358,5.395,5.3429,5.417,5.4182,0.0,0.0,0.0,0.0,0.0,0.0,0.0,0.0,0.0,0.0,0.0,0.0,0.0,0.0,0.0,0.0,0.0,0.0,0.0,0.0,0.0,0.0,0.0,0.0,0.0,0.0,0.0,0.0,0.0,0.0,0.0,0.0,0.0,0.0,0.0,0.0,0.0,0.0,0.0,0.0,0.0,0.0,0.0,0.0,0.0,0.0,0.0,0.0,0.0,0.0,0.0,0.0,0.0,0.0,0.0,0.0,0.0,0.0,0.0,0.0,0.0,0.0,0.0,0.0,0.0,0.0,0.0,0.0,0.0,0.0,0.0,0.0,0.0,0.0,0.0,0.0,0.0,0.0,0.0,0.0,0.0,0.0,0.0,0.0,0.0,0.0,0.0,0.0,0.0,0.0,0.0,0.0,0.0,0.0,0.0,0.0,0.0,0.0,0.0,0.0,0.0,0.0,0.0,0.0,0.0,0.0,0.0,0.0,0.0,5.4577,5.4446,5.4107,5.3428,5.3777,5.352,0.0,0.0,0.0,0.0,0.0,0.0,0.0,0.0,0.0,0.0,0.0,0.0,0.0,0.0,0.0,0.0,0.0,0.0,0.0,0.0,0.0,0.0,0.0,0.0,0.0,0.0,0.0,0.0,0.0,0.0,0.0,0.0,0.0,0.0,0.0,0.0,0.0,0.0,0.0,0.0,0.0,0.0,0.0,0.0,0.0,0.0,0.0,0.0,0.0,0.0,0.0,0.0,0.0,0.0,0.0,0.0,0.0,0.0,0.0,0.0,0.0,0.0,0.0,0.0,0.0,0.0,0.0,0.0,0.0,0.0,0.0,0.0,0.0,0.0,0.0,0.0,0.0,0.0,0.0,0.0,0.0,0.0,0.0,0.0,0.0,0.0,0.0,0.0,0.0,0.0,0.0,0.0,0.0,0.0,0.0,0.0,0.0,0.0,0.0,0.0,0.0,0.0,0.0,0.0,0.0,0.0,0.0,0.0,0.0,5.5548,5.5495,5.5211,5.4773,5.495,5.4262,5.251,0.0,0.0,0.0,0.0,0.0,0.0,0.0,0.0,0.0,0.0,0.0,0.0,0.0,0.0,0.0,0.0,0.0,0.0,0.0,0.0,0.0,0.0,0.0,0.0,0.0,0.0,0.0,0.0,0.0,0.0,0.0,0.0,0.0,0.0,0.0,0.0,0.0,0.0,0.0,0.0,0.0,0.0,0.0,0.0,0.0,0.0,0.0,0.0,0.0,0.0,0.0,0.0,0.0,0.0,0.0,0.0,0.0,0.0,0.0,0.0,0.0,0.0,0.0,0.0,0.0,0.0,0.0,0.0,0.0,0.0,0.0,0.0,0.0,0.0,0.0,0.0,0.0,0.0,0.0,0.0,0.0,0.0,0.0,0.0,0.0,0.0,0.0,0.0,0.0,0.0,0.0,0.0,0.0,0.0,0.0,0.0,0.0,0.0,0.0,0.0,0.0,0.0,0.0,0.0,0.0,0.0,0.0,0.0,5.749,5.7408,5.7288,5.7261,5.7332,5.6147,0.0,0.0,0.0,0.0,0.0,0.0,0.0,0.0,0.0,0.0,0.0,0.0,0.0,0.0,0.0,0.0,0.0,0.0,0.0,0.0,0.0,0.0,0.0,0.0,0.0,0.0,0.0,0.0,0.0,0.0,0.0,0.0,0.0,0.0,0.0,0.0,0.0,0.0,0.0,0.0,0.0,0.0,0.0,0.0,0.0,0.0,0.0,0.0,0.0,0.0,0.0,0.0,0.0,0.0,0.0,0.0,0.0,0.0,0.0,0.0,0.0,0.0,0.0,0.0,0.0,0.0,0.0,0.0,0.0,0.0,0.0,0.0,0.0,0.0,0.0,0.0,0.0,0.0,0.0,0.0,0.0,0.0,0.0,0.0,0.0,0.0,0.0,0.0,0.0,0.0,0.0,0.0,0.0,0.0,0.0,0.0,0.0,0.0,0.0,0.0,0.0,0.0,0.0,0.0,0.0,0.0,0.0,0.0,0.0,5.8666,6.0491,6.0704,5.9267,5.8242,5.7025,0.0,0.0,0.0,0.0,0.0,0.0,0.0,0.0,0.0,0.0,0.0,0.0,0.0,0.0,0.0,0.0,0.0,0.0,0.0,0.0,0.0,0.0,0.0,0.0,0.0,0.0,0.0,0.0,0.0,0.0,0.0,0.0,0.0,0.0,0.0,0.0,0.0,0.0,0.0,0.0,0.0,0.0,0.0,0.0,0.0,0.0,0.0,0.0,0.0,0.0,0.0,0.0,0.0,0.0,0.0,0.0,0.0,0.0,0.0,0.0,0.0,0.0,0.0,0.0,0.0,0.0,0.0,0.0,0.0,0.0,0.0,0.0,0.0,0.0,0.0,0.0,0.0,0.0,0.0,0.0,0.0,0.0,0.0,0.0,0.0,0.0,0.0,0.0,0.0,0.0,0.0,0.0,0.0,0.0,0.0,0.0,0.0,0.0,0.0,0.0,0.0,0.0,0.0,0.0,0.0,0.0,0.0,0.0,5.9054,5.9664,6.2644,6.3629,6.248,5.9731,5.7644,0.0,0.0,0.0,0.0,0.0,0.0,0.0,0.0,0.0,0.0,0.0,0.0,0.0,0.0,0.0,0.0,0.0,0.0,0.0,0.0,0.0,0.0,0.0,0.0,0.0,0.0,0.0,0.0,0.0,0.0,0.0,0.0,0.0,0.0,0.0,0.0,0.0,0.0,0.0,0.0,0.0,0.0,0.0,0.0,0.0,0.0,0.0,0.0,0.0,0.0,0.0,0.0,0.0,0.0,0.0,0.0,0.0,0.0,0.0,0.0,0.0,0.0,0.0,0.0,0.0,0.0,0.0,0.0,0.0,0.0,0.0,0.0,0.0,0.0,0.0,0.0,0.0,0.0,0.0,0.0,0.0,0.0,0.0,0.0,0.0,0.0,0.0,0.0,0.0,0.0,0.0,0.0,0.0,0.0,0.0,0.0,0.0,0.0,0.0,0.0,0.0,0.0,0.0,0.0,0.0,0.0,0.0,0.0,6.036,6.0572,6.4078,6.5859,6.5667,6.1502,5.8263,0.0,0.0,0.0,0.0,0.0,0.0,0.0,0.0,0.0,0.0,0.0,0.0,0.0,0.0,0.0,0.0,0.0,0.0,0.0,0.0,0.0,0.0,0.0,0.0,0.0,0.0,0.0,0.0,0.0,0.0,0.0,0.0,0.0,0.0,0.0,0.0,0.0,0.0,0.0,0.0,0.0,0.0,0.0,0.0,0.0,0.0,0.0,0.0,0.0,0.0,0.0,0.0,0.0,0.0,0.0,0.0,0.0,0.0,0.0,0.0,0.0,0.0,0.0,0.0,0.0,0.0,0.0,0.0,0.0,0.0,0.0,0.0,0.0,0.0,0.0,0.0,0.0,0.0,0.0,0.0,0.0,0.0,0.0,0.0,0.0,0.0,0.0,0.0,0.0,0.0,0.0,0.0,0.0,0.0,0.0,0.0,0.0,0.0,0.0,0.0,0.0,0.0,0.0,0.0,0.0,0.0,0.0,0.0,6.0113,6.1595,6.4385,6.5897,6.5859,6.2103,5.955,0.0,0.0,0.0,0.0,0.0,0.0,0.0,0.0,0.0,0.0,0.0,0.0,0.0,0.0,0.0,0.0,0.0,0.0,0.0,0.0,0.0,0.0,0.0,0.0,0.0,0.0,0.0,0.0,0.0,0.0,0.0,0.0,0.0,0.0,0.0,0.0,0.0,0.0,0.0,0.0,0.0,0.0,0.0,0.0,0.0,0.0,0.0,0.0,5.5184,0.0,0.0,0.0,0.0,0.0,0.0,0.0,0.0,0.0,0.0,0.0,0.0,0.0,0.0,0.0,0.0,0.0,0.0,0.0,0.0,0.0,0.0,0.0,0.0,0.0,0.0,0.0,0.0,0.0,0.0,0.0,0.0,0.0,0.0,0.0,0.0,0.0,0.0,0.0,0.0,0.0,0.0,0.0,0.0,0.0,0.0,0.0,0.0,0.0,0.0,0.0,0.0,0.0,0.0,0.0,0.0,0.0,0.0,0.0,6.0207,6.2427,6.4718,6.5897,6.582,6.3142,6.1027,0.0,0.0,0.0,0.0,0.0,0.0,0.0,0.0,0.0,0.0,0.0,0.0,0.0,0.0,0.0,0.0,0.0,0.0,0.0,0.0,0.0,0.0,0.0,0.0,0.0,0.0,0.0,0.0,0.0,0.0,0.0,0.0,0.0,0.0,0.0,0.0,0.0,0.0,0.0,0.0,0.0,0.0,0.0,0.0,0.0,0.0,0.0,0.0,0.0,0.0,0.0,0.0,0.0,0.0,0.0,0.0,0.0,0.0,0.0,0.0,0.0,0.0,0.0,0.0,0.0,0.0,0.0,0.0,0.0,0.0,0.0,0.0,0.0,0.0,0.0,0.0,0.0,0.0,0.0,0.0,0.0,0.0,0.0,0.0,0.0,0.0,0.0,0.0,0.0,0.0,0.0,0.0,0.0,0.0,0.0,0.0,0.0,0.0,0.0,0.0,0.0,0.0,0.0,0.0,0.0,0.0,0.0,5.8672,6.0556,6.3438,6.5064,6.5897,6.5859,6.4077,6.2218,6.0436,0.0,0.0,0.0,0.0,0.0,0.0,0.0,0.0,0.0,0.0,0.0,0.0,0.0,0.0,0.0,0.0,0.0,0.0,0.0,0.0,0.0,0.0,0.0,0.0,0.0,0.0,0.0,0.0,0.0,0.0,0.0,0.0,0.0,0.0,0.0,0.0,0.0,0.0,5.4098,5.5136,0.0,0.0,0.0,0.0,0.0,0.0,0.0,0.0,5.4965,0.0,0.0,0.0,0.0,0.0,0.0,0.0,0.0,0.0,0.0,0.0,0.0,0.0,0.0,0.0,0.0,0.0,0.0,0.0,0.0,0.0,0.0,0.0,0.0,0.0,0.0,0.0,0.0,0.0,0.0,0.0,0.0,0.0,0.0,0.0,0.0,0.0,0.0,0.0,0.0,0.0,0.0,0.0,0.0,0.0,0.0,0.0,0.0,0.0,0.0,0.0,0.0,0.0,0.0,0.0,0.0,5.888,5.9087,6.1237,6.5295,6.5743,6.5897,6.5859,6.3959,6.2108,6.0398,0.0,0.0,0.0,0.0,0.0,0.0,0.0,0.0,0.0,0.0,0.0,0.0,0.0,0.0,0.0,0.0,0.0,0.0,0.0,0.0,0.0,0.0,0.0,0.0,0.0,0.0,0.0,0.0,0.0,0.0,0.0,0.0,0.0,0.0,0.0,0.0,0.0,0.0,0.0,5.641,5.6127,0.0,0.0,0.0,0.0,0.0,0.0,0.0,0.0,5.6164,0.0,0.0,0.0,0.0,0.0,0.0,0.0,0.0,0.0,0.0,0.0,0.0,0.0,0.0,0.0,0.0,0.0,0.0,0.0,0.0,0.0,0.0,0.0,0.0,0.0,0.0,0.0,0.0,0.0,0.0,0.0,0.0,0.0,0.0,0.0,0.0,0.0,0.0,0.0,0.0,0.0,0.0,0.0,0.0,0.0,0.0,0.0,0.0,0.0,0.0,0.0,0.0,0.0,0.0,0.0,5.971,6.0353,6.2324,6.5743,6.5897,6.5897,6.5859,6.351,6.1677,0.0,0.0,0.0,0.0,0.0,0.0,0.0,0.0,0.0,0.0,0.0,0.0,0.0,0.0,0.0,0.0,0.0,0.0,0.0,0.0,0.0,0.0,0.0,0.0,0.0,0.0,0.0,0.0,0.0,0.0,0.0,0.0,0.0,0.0,0.0,0.0,0.0,0.0,0.0,0.0,5.7064,5.7239,5.8121,0.0,0.0,0.0,0.0,0.0,0.0,5.6564,5.5859,0.0,0.0,0.0,0.0,0.0,0.0,0.0,0.0,0.0,0.0,0.0,0.0,0.0,0.0,0.0,0.0,0.0,0.0,0.0,0.0,0.0,0.0,0.0,0.0,0.0,0.0,0.0,0.0,0.0,0.0,0.0,0.0,0.0,0.0,0.0,0.0,0.0,0.0,0.0,0.0,0.0,0.0,0.0,0.0,0.0,0.0,0.0,0.0,0.0,0.0,0.0,0.0,0.0,0.0,0.0,6.0158,6.1517,6.3348,6.5782,6.5897,6.5897,6.582,6.2782,6.0862,0.0,0.0,0.0,0.0,0.0,0.0,0.0,0.0,0.0,0.0,0.0,0.0,0.0,0.0,0.0,0.0,0.0,0.0,0.0,0.0,0.0,0.0,0.0,0.0,0.0,0.0,0.0,0.0,0.0,0.0,0.0,0.0,0.0,0.0,0.0,0.0,0.0,0.0,0.0,0.0,0.0,5.8071,5.9381,5.7917,0.0,0.0,0.0,0.0,5.694,5.6541,0.0,0.0,0.0,0.0,0.0,0.0,0.0,0.0,0.0,0.0,0.0,0.0,0.0,0.0,0.0,0.0,0.0,0.0,0.0,0.0,0.0,0.0,0.0,0.0,0.0,0.0,0.0,0.0,0.0,0.0,0.0,0.0,0.0,0.0,0.0,0.0,0.0,0.0,0.0,0.0,0.0,0.0,0.0,0.0,0.0,0.0,0.0,0.0,0.0,0.0,0.0,0.0,0.0,0.0,0.0,0.0,5.946,6.1825,6.3976,6.5782,6.5897,6.5897,6.582,6.1617,5.93,0.0,0.0,0.0,0.0,0.0,0.0,0.0,0.0,0.0,0.0,0.0,0.0,0.0,0.0,0.0,0.0,0.0,0.0,0.0,0.0,0.0,0.0,0.0,0.0,0.0,0.0,0.0,0.0,0.0,0.0,0.0,0.0,0.0,0.0,0.0,0.0,0.0,0.0,0.0,0.0,0.0,5.7513,5.9203,5.8156,5.6865,0.0,0.0,5.8315,5.756,5.8769,0.0,0.0,0.0,0.0,0.0,0.0,0.0,0.0,0.0,0.0,0.0,0.0,0.0,0.0,0.0,0.0,0.0,0.0,0.0,0.0,0.0,0.0,0.0,0.0,0.0,0.0,0.0,0.0,0.0,0.0,0.0,0.0,0.0,0.0,0.0,0.0,0.0,0.0,0.0,0.0,0.0,0.0,0.0,0.0,0.0,0.0,0.0,0.0,0.0,0.0,0.0,0.0,0.0,0.0,0.0,5.8911,5.9409,6.2913,6.5103,6.5859,6.5897,6.5897,6.5859,6.0966,5.8563,0.0,0.0,0.0,0.0,0.0,0.0,0.0,0.0,0.0,0.0,0.0,0.0,0.0,0.0,0.0,0.0,0.0,0.0,0.0,0.0,0.0,0.0,0.0,0.0,0.0,0.0,0.0,0.0,0.0,0.0,0.0,0.0,0.0,0.0,0.0,0.0,0.0,0.0,0.0,0.0,0.0,0.0,5.9345,5.8735,0.0,0.0,0.0,5.8427,5.71,0.0,0.0,0.0,0.0,0.0,0.0,0.0,0.0,0.0,0.0,0.0,0.0,0.0,0.0,0.0,0.0,0.0,0.0,0.0,0.0,0.0,0.0,0.0,0.0,0.0,0.0,0.0,0.0,0.0,0.0,0.0,0.0,0.0,0.0,0.0,0.0,0.0,0.0,0.0,0.0,0.0,0.0,0.0,0.0,0.0,0.0,0.0,0.0,0.0,0.0,0.0,0.0,0.0,0.0,0.0,0.0,0.0,5.9358,6.363,6.5897,6.5897,6.5897,6.5897,6.582,6.1287,0.0,0.0,0.0,0.0,0.0,0.0,0.0,0.0,0.0,0.0,0.0,0.0,0.0,0.0,0.0,0.0,0.0,0.0,0.0,0.0,0.0,0.0,0.0,0.0,0.0,0.0,0.0,5.1104,0.0,0.0,0.0,0.0,0.0,0.0,0.0,0.0,0.0,0.0,0.0,0.0,0.0,0.0,5.8652,5.9232,5.9005,5.8754,0.0,0.0,5.843,5.7388,5.942,5.9926,0.0,0.0,0.0,0.0,0.0,0.0,0.0,0.0,0.0,0.0,0.0,0.0,0.0,0.0,0.0,0.0,0.0,0.0,0.0,0.0,0.0,0.0,0.0,0.0,0.0,0.0,0.0,0.0,0.0,0.0,0.0,0.0,0.0,0.0,0.0,0.0,0.0,0.0,0.0,0.0,0.0,0.0,0.0,0.0,0.0,0.0,0.0,0.0,0.0,0.0,0.0,0.0,0.0,0.0,5.9996,5.9383,6.3617,6.5897,6.5897,6.5897,6.5897,6.5859,6.3169,6.0559,0.0,0.0,0.0,0.0,0.0,0.0,0.0,0.0,0.0,0.0,0.0,0.0,0.0,0.0,0.0,0.0,0.0,0.0,0.0,0.0,0.0,0.0,0.0,0.0,0.0,0.0,0.0,0.0,0.0,0.0,0.0,0.0,0.0,0.0,0.0,0.0,0.0,0.0,0.0,0.0,0.0,5.8435,5.8507,5.8456,5.8725,0.0,5.8994,5.8689,5.9444,6.1295,6.1105,5.6613,0.0,0.0,0.0,0.0,0.0,0.0,0.0,0.0,0.0,0.0,0.0,0.0,0.0,0.0,0.0,0.0,0.0,0.0,0.0,0.0,0.0,0.0,0.0,0.0,0.0,0.0,0.0,0.0,0.0,0.0,0.0,0.0,0.0,0.0,0.0,0.0,0.0,0.0,0.0,0.0,0.0,0.0,0.0,0.0,0.0,0.0,0.0,0.0,0.0,0.0,0.0,0.0,0.0,5.9537,5.9256,6.3591,6.5897,6.5897,6.5897,6.5897,6.5897,6.3361,6.093,0.0,0.0,0.0,0.0,0.0,0.0,0.0,0.0,0.0,0.0,0.0,0.0,0.0,0.0,0.0,0.0,0.0,0.0,0.0,0.0,0.0,0.0,0.0,0.0,0.0,0.0,0.0,0.0,5.6066,5.6116,5.493,0.0,0.0,0.0,0.0,0.0,0.0,0.0,0.0,0.0,0.0,5.8268,5.991,6.0143,0.0,0.0,6.0071,5.9838,5.9081,6.0522,6.0492,5.6668,5.6019,0.0,0.0,0.0,0.0,0.0,0.0,0.0,0.0,0.0,0.0,0.0,0.0,0.0,0.0,0.0,0.0,0.0,0.0,0.0,0.0,0.0,0.0,0.0,0.0,0.0,0.0,0.0,0.0,0.0,0.0,0.0,0.0,0.0,0.0,0.0,0.0,0.0,0.0,0.0,0.0,0.0,0.0,0.0,0.0,0.0,0.0,0.0,0.0,0.0,0.0,0.0,0.0,5.9561,5.9599,6.3758,6.5897,6.5897,6.5897,6.5897,6.582,6.4116,6.2106,0.0,0.0,0.0,0.0,0.0,0.0,0.0,0.0,0.0,0.0,0.0,0.0,0.0,0.0,0.0,0.0,0.0,0.0,0.0,0.0,0.0,0.0,0.0,0.0,0.0,0.0,0.0,0.0,5.6587,5.6237,5.4605,0.0,0.0,0.0,0.0,0.0,0.0,0.0,0.0,0.0,0.0,5.8856,5.9889,6.0049,5.9866,5.932,5.9401,5.9263,5.8456,5.9393,5.9239,5.6659,0.0,0.0,0.0,0.0,0.0,0.0,0.0,0.0,0.0,0.0,0.0,0.0,0.0,0.0,0.0,0.0,0.0,0.0,0.0,0.0,0.0,0.0,0.0,0.0,0.0,0.0,0.0,5.269,0.0,0.0,5.2652,0.0,0.0,0.0,0.0,0.0,0.0,0.0,0.0,0.0,0.0,0.0,0.0,0.0,0.0,0.0,0.0,0.0,0.0,0.0,0.0,0.0,0.0,6.0387,6.0491,6.4065,6.5897,6.5897,6.5897,6.5897,6.5897,6.582,6.4539,6.1876,0.0,0.0,0.0,0.0,0.0,0.0,0.0,0.0,0.0,0.0,0.0,0.0,0.0,0.0,0.0,0.0,0.0,0.0,0.0,0.0,0.0,0.0,0.0,0.0,0.0,0.0,5.2961,5.4143,5.4807,0.0,0.0,0.0,0.0,0.0,0.0,0.0,0.0,0.0,5.4669,5.8341,6.0158,5.7774,5.7397,5.747,5.747,5.6566,5.6377,5.8011,5.8016,5.76,0.0,0.0,0.0,0.0,0.0,0.0,0.0,0.0,0.0,0.0,0.0,0.0,0.0,0.0,0.0,0.0,0.0,0.0,0.0,0.0,0.0,0.0,0.0,0.0,0.0,0.0,0.0,5.3253,5.2839,0.0,0.0,0.0,0.0,0.0,0.0,0.0,0.0,0.0,0.0,0.0,5.7224,5.7468,0.0,0.0,0.0,0.0,0.0,0.0,0.0,0.0,0.0,0.0,0.0,0.0,6.0491,6.0671,6.4065,6.5897,6.5897,6.5897,6.5897,6.5897,6.5897,6.4885,6.2758,0.0,0.0,0.0,0.0,0.0,0.0,0.0,0.0,0.0,0.0,0.0,0.0,0.0,0.0,0.0,0.0,0.0,0.0,0.0,0.0,0.0,0.0,0.0,0.0,0.0,5.4796,0.0,0.0,0.0,0.0,0.0,0.0,0.0,0.0,0.0,0.0,0.0,5.4467,5.546,5.6269,5.6848,5.7202,5.7325,5.7738,0.0,0.0,0.0,0.0,0.0,0.0,0.0,0.0,0.0,0.0,0.0,0.0,0.0,0.0,5.2861,5.3241,5.4292,5.5143,5.5382,0.0,0.0,0.0,0.0,0.0,0.0,0.0,0.0,0.0,0.0,0.0,0.0,0.0,0.0,5.4219,0.0,5.4043,0.0,0.0,0.0,0.0,0.0,0.0,0.0,0.0,5.6904,5.7618,5.8141,5.841,5.8563,0.0,5.7901,5.6715,0.0,0.0,0.0,0.0,0.0,0.0,0.0,0.0,6.0391,6.0277,6.3911,6.5897,6.5897,6.5897,6.5897,6.5897,6.5897,6.5333,6.4103,6.1309,5.9159,0.0,0.0,0.0,0.0,0.0,0.0,0.0,0.0,0.0,0.0,0.0,0.0,0.0,0.0,0.0,0.0,0.0,0.0,0.0,0.0,0.0,0.0,0.0,5.4818,0.0,0.0,0.0,0.0,0.0,0.0,0.0,0.0,0.0,5.3698,5.4048,5.4796,5.6332,5.65,5.645,5.6342,0.0,0.0,0.0,0.0,0.0,0.0,0.0,5.5612,5.4361,5.4625,5.4869,5.4683,5.4303,5.4076,5.4205,0.0,0.0,5.4292,5.5075,5.5995,5.6269,5.5893,5.5754,5.6335,5.6127,5.5988,0.0,0.0,0.0,0.0,0.0,0.0,0.0,0.0,5.5746,5.524,0.0,5.6145,0.0,0.0,0.0,0.0,5.5566,5.6304,0.0,0.0,5.9427,5.9873,5.8443,5.9072,5.9456,5.9341,5.7747,5.697,5.7071,5.854,0.0,0.0,0.0,0.0,0.0,0.0,6.0123,5.9639,6.3745,6.5897,6.5897,6.5897,6.5897,6.5897,6.5897,6.5897,6.5795,6.377,6.2611,6.2459,5.9079,0.0,0.0,0.0,0.0,0.0,0.0,0.0,0.0,0.0,0.0,0.0,0.0,0.0,0.0,0.0,0.0,0.0,0.0,0.0,0.0,5.3935,0.0,0.0,0.0,0.0,0.0,0.0,0.0,0.0,0.0,5.3845,5.4575,5.5388,5.6296,5.7057,0.0,0.0,0.0,0.0,5.5966,5.2573,5.258,5.3012,5.2821,5.41,5.5411,5.5977,0.0,0.0,5.7219,5.5529,5.4445,5.4758,5.5809,5.6299,5.5414,5.5379,5.5619,5.6303,5.6609,5.6541,5.6473,5.6644,5.6642,5.8085,0.0,0.0,0.0,0.0,5.7159,5.762,5.8389,5.8412,5.7866,5.7066,5.7612,0.0,0.0,0.0,0.0,0.0,0.0,5.6606,5.7805,5.8596,5.935,6.0065,6.0296,6.0411,6.0373,5.985,5.9965,6.0604,6.1632,5.992,5.5684,0.0,0.0,0.0,0.0,6.1019,6.2158,6.4578,6.5897,6.5897,6.5897,6.5897,6.5897,6.5897,6.5781,6.5485,6.4584,6.3217,6.1338,6.004,0.0,0.0,0.0,0.0,0.0,0.0,0.0,0.0,0.0,0.0,0.0,0.0,0.0,0.0,0.0,0.0,0.0,0.0,0.0,5.4771,5.5395,5.5139,0.0,0.0,0.0,0.0,0.0,0.0,0.0,0.0,0.0,5.6269,5.5171,5.4471,0.0,0.0,5.3957,5.3396,5.4475,5.5397,5.5663,5.588,0.0,5.7505,5.7474,5.7155,5.6868,5.785,5.8365,5.7561,5.7869,5.8194,5.7801,5.8047,5.8186,5.798,5.7912,5.7946,5.8187,5.8256,5.8324,5.8221,5.8221,5.8289,5.9847,5.8847,5.849,5.8473,5.8765,5.8781,5.9242,6.0012,6.0012,5.9335,5.825,5.8965,5.815,5.6314,5.5815,0.0,0.0,0.0,5.7574,5.9235,5.9235,5.9796,6.0742,6.0781,6.0781,6.0819,6.1166,6.1574,6.2098,6.2565,6.1147,5.8028,0.0,0.0,5.8463,6.0494,6.1914,6.2759,6.4834,6.5897,6.5897,6.5897,6.5897,6.5897,6.5897,6.5728,6.5299,6.4904,6.3911,6.2184,6.1167,5.9319,0.0,0.0,0.0,0.0,0.0,0.0,0.0,0.0,0.0,0.0,0.0,5.5883,5.4503,0.0,0.0,0.0,5.503,5.5291,5.5593,5.5447,0.0,0.0,0.0,0.0,0.0,0.0,0.0,5.3086,5.446,5.5825,5.6721,5.5825,5.5486,5.6486,5.5735,5.4936,5.4691,0.0,5.6862,5.7289,5.7325,5.7651,5.8558,5.8849,5.8942,5.9019,5.9163,5.923,5.8694,5.9184,5.9415,5.9149,5.9012,5.9012,5.9012,5.9012,5.9012,5.9012,5.9012,5.9012,5.9012,5.9012,5.9012,6.1479,6.1317,5.936,5.8957,5.9611,5.9627,6.005,6.0781,6.0804,5.9896,5.8558,6.0111,5.905,5.6076,5.6015,0.0,5.8427,5.8404,5.9273,6.0781,6.0781,6.0781,6.0781,6.0781,6.0781,6.0819,6.1666,6.2113,6.219,6.2145,6.2055,6.2004,6.2798,6.1902,5.9549,6.1723,6.2682,6.2106,6.4487,6.5705,6.5782,6.5743,6.5705,6.5705,6.5705,6.5536,6.5184,6.4828,6.4481,6.4134,6.2544,6.1485,6.1152,0.0,0.0,0.0,0.0,0.0,0.0,0.0,0.0,0.0,0.0,0.0,0.0,0.0,0.0,5.5858,5.55,0.0,5.6463,5.4821,0.0,0.0,0.0,5.399,5.4846,5.5062,5.5073,5.5036,0.0,0.0,5.643,5.7195,5.8373,6.0126,6.0076,5.9283,5.7629,5.8833,5.9516,5.7847,5.7701,5.7724,5.8196,5.9343,6.0683,6.1497,6.095,6.0211,5.996,5.9513,5.9114,5.9012,5.9012,5.9012,5.9012,5.9012,5.9012,5.9012,5.9012,5.9012,5.9012,5.9012,5.9012,6.1478,6.1417,6.0677,6.0496,6.0627,6.055,6.0627,6.0804,6.0941,6.0629,6.0204,6.0827,6.0638,5.9847,5.9766,5.9939,6.0325,6.0234,6.0435,6.0781,6.0781,6.0781,6.0781,6.0781,6.0781,6.0858,6.1666,6.2397,6.3012,6.3641,6.3591,6.2913,6.3105,6.2183,6.0196,6.0813,6.1735,6.2823,6.3489,6.4193,6.4872,6.4282,6.3897,6.3935,6.3935,6.4077,6.4305,6.3959,6.3914,6.4134,6.3488,6.2213,6.0233,5.8016,0.0,0.0,0.0,0.0,0.0,0.0,0.0,0.0,0.0,5.4489,5.3085,0.0,5.5163,0.0,5.5302,5.6731,5.7397,5.6603,0.0,0.0,5.4984,5.4911,5.5268,5.5907,5.6054,5.5259,5.6566,5.7794,5.8275,5.9139,6.0334,6.1973,5.9797,5.8042,5.8224,5.9283,5.9967,5.9661,6.0528,6.1432,6.1396,6.1812,6.2215,6.253,6.1987,6.13,6.0736,6.0156,5.9547,5.9149,5.9012,5.9012,5.9012,5.9012,5.9012,5.9012,5.9012,5.9012,5.9012,5.9012,5.9012,6.1569,6.1554,6.1334,6.1205,6.1196,6.098,6.0923,6.0983,6.1053,6.1074,6.0983,6.1112,6.1186,6.1172,6.107,6.102,6.0983,6.0856,6.0781,6.0781,6.0781,6.0781,6.0781,6.0781,6.1012,6.142,6.2243,6.3075,6.3907,6.4768,6.491,6.4385,6.4385,6.3271,6.1119,6.0341,6.0444,6.1325,6.1825,6.2708,6.396,6.3537,6.2935,6.2131,6.2093,6.1747,6.1043,6.0817,6.0969,6.1393,6.1124,6.0441,5.9412,5.7248,5.576,0.0,0.0,0.0,0.0,0.0,0.0,0.0,0.0,0.0,0.0,0.0,5.5655,5.4269,5.5794,5.6867,5.6804,5.6401,5.6071,5.5998,5.5953,5.6145,5.6691,5.7221,5.7339,5.6728,5.8215,5.9476,5.9872,6.0903,6.2019,6.3036,6.1312,6.0079,6.0481,6.0993,6.1286,6.1323,6.2155,6.2952,6.3319,6.3392,6.3401,6.3361,6.2657,6.1781,6.1087,6.0177,5.945,5.9081,5.9012,5.9012,5.9012,5.9012,5.9012,5.9012,5.9012,5.9012,5.9012,5.9012,5.9012,6.172,6.1681,6.1564,6.1534,6.1512,6.1181,6.1103,6.1186,6.1214,6.1266,6.1279,6.1227,6.1227,6.1279,6.1128,6.1031,6.102,6.0877,6.0819,6.0781,6.0781,6.0781,6.0781,6.0896,6.1381,6.2136,6.3012,6.3844,6.4633,6.5485,6.5743,6.5436,6.5397,6.4052,6.1454,5.9805,5.9013,5.9077,6.0009,6.1247,6.2752,6.2483,6.1579,6.0163,6.0086,5.9278,5.7476,5.7308,5.7494,5.8014,5.7612,5.7862,5.8806,5.6294,5.5184,0.0,5.4078,0.0,0.0,0.0,0.0,0.0,0.0,0.0,0.0,5.6051,5.6515,5.5999,5.6595,5.6706,5.6029,5.5742,5.599,5.6867,5.7022,5.7405,5.8326,5.8486,5.8566,5.864,6.0011,6.1056,6.1196,6.2364,6.3289,6.3336,6.3131,6.2852,6.2977,6.2794,6.2695,6.2805,6.2805,6.3075,6.3613,6.3782,6.3722,6.3747,6.2839,6.1803,6.1136,6.0032,5.9149,5.9012,5.9012,5.9012,5.9012,5.9012,5.9012,5.9012,5.9012,5.9012,5.9012,5.9012,5.9012,6.1697,6.1681,6.1564,6.1549,6.1641,6.1479,6.1318,6.12,6.1379,6.1509,6.1602,6.15,6.1509,6.1595,6.145,6.1305,6.1167,6.1018,6.0896,6.0781,6.0781,6.0781,6.0858,6.1512,6.1959,6.2175,6.3652,6.4446,6.4633,6.5485,6.482,6.2796,6.2732,6.1428,5.8847,0.0,0.0,0.0,5.9139,5.9725,5.9988,5.8002,5.7073,5.734,5.7366,0.0,5.7756,5.7339,5.7498,5.8151,5.7043,0.0,0.0,0.0,0.0,0.0,0.0,0.0,0.0,0.0,0.0,0.0,5.5512,5.5549,5.4855,5.4958,5.5544,5.6816,5.6983,5.7228,5.7832,5.7825,5.7906,5.8141,5.8184,5.8301,5.8614,5.8656,5.8879,5.9584,6.0549,6.1359,6.1945,6.2872,6.3511,6.3419,6.3382,6.3336,6.3289,6.3099,6.2953,6.2953,6.2953,6.299,6.3174,6.2808,6.2745,6.2761,6.1965,6.12,6.096,6.0333,5.9582,5.9149,5.9012,5.9012,5.9012,5.9012,5.9012,5.9012,5.9012,5.9012,5.9012,5.9012,5.9012,6.3002,6.2959,6.292,6.2911,0.0,6.2928,6.2851,6.2708,6.1931,6.1654,6.1715,6.1648,6.1654,6.1676,6.1556,6.1451,6.1355,6.1164,6.1022,6.092,6.1345,6.1511,6.1473,6.2281,6.2959,6.3368,6.4166,6.4589,6.4638,6.5076,6.4359,6.2642,6.2617,6.1747,6.0046,5.9187,5.8573,5.8165,5.8549,5.9163,5.992,5.8757,5.7864,5.7366,5.7341,0.0,0.0,0.0,0.0,0.0,0.0,0.0,0.0,5.6742,0.0,5.7186,5.6441,5.6145,5.652,5.6557,5.6598,5.6677,5.7047,5.6936,5.6039,5.6372,5.701,5.7835,5.7899,5.8042,5.8492,5.8566,5.8529,5.8614,5.8614,5.8614,5.8735,5.9069,5.9441,5.9924,6.1001,6.1923,6.225,6.3074,6.3519,6.3511,6.3511,6.3465,6.3382,6.3242,6.3099,6.3099,6.3051,6.3149,6.3468,6.3291,6.3073,6.3274,6.2413,6.1497,6.1096,6.0183,5.9383,5.9081,5.9012,5.9012,5.9012,5.9012,5.9012,5.9012,5.9012,5.9012,5.9012,5.9012,5.9012,6.4297,6.4297,6.4297,6.4291,6.4297,6.4301,6.4301,6.4179,6.2774,0.0,0.0,6.1993,6.1915,6.1915,6.1642,6.1609,6.1724,6.1573,6.1468,6.1505,6.2201,6.2429,6.2358,6.2974,6.3666,6.4345,6.4359,6.4334,6.4385,6.4372,6.3935,6.3166,6.3089,6.2704,6.1858,6.1166,6.0104,5.8711,5.8366,5.887,6.0265,6.0009,5.9204,5.7876,5.7838,5.7136,5.5658,5.5275,5.5405,5.5996,5.5344,5.5473,5.6476,5.6307,5.6219,5.6409,5.6557,5.6895,5.7497,5.7534,5.7872,5.8661,5.8698,5.8359,5.7608,5.8285,5.8698,5.8698,5.8698,5.8698,5.8698,5.8698,5.8698,5.8698,5.8698,5.8698,5.8735,5.9404,5.9924,6.0258,6.1447,6.2487,6.2673,6.323,6.3602,6.3602,6.3602,6.3557,6.3465,6.3326,6.3231,6.3194,6.3099,6.3272,6.3726,6.3672,6.3795,6.373,6.2731,6.1768,6.1065,6.0032,5.9251,5.9012,5.9012,5.9012,5.9012,5.9012,5.9012,5.9012,5.9012,5.9012,5.9012,5.9012,5.9012,6.4297,6.4297,6.4297,6.4291,6.4301,6.4317,6.4314,6.4258,6.4023,6.3906,6.3867,6.3125,6.2813,6.2774,6.2032,6.1999,6.2591,6.2609,6.2813,6.3226,6.3342,6.3338,6.3128,6.3243,6.3358,6.3498,6.3474,6.3488,6.3501,6.3488,6.3051,6.2344,6.2267,6.182,6.105,6.0858,6.0704,6.0396,5.8889,5.8227,5.8434,5.6951,5.6391,5.6774,5.6868,5.6716,5.646,5.6289,5.6063,5.5832,5.4874,5.5243,5.7175,5.7196,5.7487,5.8243,5.8953,5.9102,5.8508,5.8471,5.8545,5.8698,5.8698,5.8661,5.8508,5.8624,5.8698,5.8698,5.8698,5.8698,5.8698,5.8698,5.8698,5.8698,5.8698,5.8698,5.8772,5.9478,6.0258,6.0964,6.1819,6.271,6.3267,6.3527,6.3602,6.3602,6.3602,6.3602,6.3557,6.3465,6.3336,6.3194,6.3184,6.3173,6.3223,6.2647,6.2636,6.2947,6.1965,6.1105,6.0925,6.0234,5.9582,5.9081,5.9012,5.9012,5.9047,5.9012,5.9116,5.915,5.9219,5.915,5.9185,5.9185,5.9081,6.5703,6.5664,6.5195,6.4998,6.4953,6.4482,6.4317,6.4301,6.431,6.431,6.4258,6.3867,6.3711,6.3672,6.3282,6.3305,6.3592,6.3623,6.3379,6.3036,6.3485,6.3323,6.2728,6.3089,6.3281,6.3306,6.3281,6.3089,6.2704,6.2666,6.2204,6.1458,6.1396,6.1204,6.0819,6.0781,6.0781,6.0781,5.9988,5.9542,5.9542,5.875,5.8519,5.8865,5.8894,5.8909,5.8884,5.8666,5.8435,5.8251,5.7406,5.7378,5.8312,5.8182,5.828,5.8698,5.9032,5.9107,5.8735,5.8698,5.8698,5.8698,5.8698,5.8698,5.8698,5.8698,5.8698,5.8698,5.8698,5.8698,5.8698,5.8698,5.8698,5.8698,5.8698,5.8884,5.9367,6.011,6.0927,6.1781,6.2562,6.3193,6.3565,6.3602,6.3602,6.3602,6.3602,6.3602,6.3602,6.3557,6.3465,6.3373,6.3279,6.3184,6.3002,6.2668,6.2412,6.236,6.1548,6.0855,6.0529,5.9873,5.9383,5.9081,5.9012,5.9185,5.953,5.9633,5.9806,6.022,6.0254,6.0254,6.0254,6.0254,5.9978,6.6328,6.625,6.5586,6.5312,6.5234,6.4607,6.4287,6.4314,6.432,6.4317,6.4262,6.4101,6.3984,6.3984,6.3789,6.3828,6.3984,6.4023,6.3553,6.2924,6.3478,6.33,6.2483,6.2858,6.3012,6.2998,6.282,6.2397,6.1843,6.1805,6.1473,6.0858,6.0781,6.0781,6.0781,6.0781,6.0781,6.0781,6.0781,6.0781,6.0781,6.0781,6.0781,6.0781,6.0781,6.0781,6.0781,6.0546,6.0414,6.0265,5.9706,5.9287,5.9214,5.8905,5.8698,5.8698,5.8698,5.8698,5.8698,5.8698,5.8698,5.8698,5.8698,5.8698,5.8698,5.8698,5.8698,5.8698,5.8698,5.8698,5.8698,5.8698,5.8698,5.8698,5.8884,5.9255,5.9887,6.0853,6.1707,6.2376,6.3119,6.3602,6.3602,6.3602,6.3602,6.3602,6.3602,6.3602,6.3602,6.3602,6.3557,6.3419,6.3242,6.3147,6.3002,6.2855,6.2552,6.2005,6.1358,6.0843,6.0304,5.9728,5.9495,5.9564,5.9599,5.984,6.0323,6.0427,6.0634,6.1047,6.1116,6.122,6.1151,6.1185,6.0944,6.457,6.4531,6.4453,6.4414,6.4375,6.4297,6.4219,6.4257,6.4291,6.4284,6.4125,6.3447,6.3125,6.3003,6.2384,6.2501,6.316,6.3125,6.3319,6.3609,6.375,6.3571,6.3036,6.2512,6.2204,6.2127,6.1473,6.1127,6.1012,6.0973,6.0858,6.0781,6.0781,6.0781,6.0781,6.0781,6.0781,6.0781,6.0781,6.0781,6.0781,6.0781,6.0781,6.0781,6.0781,6.0781,6.0781,6.0757,6.0597,6.0293,5.9931,5.9568,5.921,5.887,5.8698,5.8698,5.8698,5.8698,5.8698,5.8698,5.8698,5.8698,5.8698,5.8698,5.8698,5.8698,5.8698,5.8698,5.8698,5.8698,5.8698,5.8698,5.8735,5.8846,5.9367,5.985,6.0147,6.1336,6.2301,6.2376,6.3156,6.3602,6.3602,6.3602,6.3602,6.3602,6.3602,6.3602,6.3602,6.3602,6.3511,6.3326,6.3194,6.3184,6.3002,6.2904,6.2589,6.2041,6.1358,6.1031,6.0838,6.0528,6.0254,6.0565,6.0909,6.0944,6.1116,6.122,6.1254,6.153,6.1565,6.1392,6.1323,6.1461,6.1323,6.4297,6.4258,6.375,6.3203,6.2812,6.2773,6.2773,6.2773,6.2773,6.2771,6.2732,6.2377,6.2797,6.3711,6.3399,6.341,6.3631,6.3595,6.3327,6.2965,6.2909,6.253,6.1805,6.1512,6.132,6.132,6.0973,6.0781,6.0781,6.0781,6.0781,6.0781,6.0781,6.0781,6.0781,6.0781,6.0781,6.0781,6.0781,6.0781,6.0781,6.0781,6.0781,6.0781,6.0781,6.0781,6.0781,6.0781,6.066,6.0321,6.0,5.9635,5.9208,5.887,5.8698,5.8698,5.8698,5.8698,5.8698,5.8698,5.8698,5.8698,5.8698,5.8698,5.8698,5.8698,5.8698,5.8698,5.8698,5.8698,5.8698,5.8698,5.8884,5.9329,5.9738,6.0295,6.1298,6.1967,6.2562,6.3044,6.3416,6.3602,6.3602,6.3602,6.3602,6.3602,6.3602,6.3602,6.3602,6.3602,6.3511,6.3373,6.3242,6.3099,6.2953,6.2855,6.2735,6.2549,6.204,6.1671,6.1647,6.1258,6.0978,6.1323,6.1392,6.1634,6.1944,6.2013,6.2082,6.2324,6.2634,6.2668,6.2668,6.2668,6.2668,6.3594,6.3476,6.289,6.2265,6.1719,6.1719,6.1719,6.1719,6.1719,6.1719,6.1719,6.1719,6.238,6.3458,6.3599,6.3506,6.3387,6.3308,6.2814,6.1988,6.1949,6.1561,6.0843,6.0781,6.0781,6.0781,6.0781,6.0781,6.0781,6.0781,6.0781,6.0781,6.0781,6.0781,6.0781,6.0781,6.0781,6.0781,6.0781,6.0781,6.0781,6.0781,6.0781,6.0781,6.0781,6.0781,6.0781,6.0781,6.0622,6.0293,6.0,5.963,5.9238,5.8872,5.8698,5.8698,5.8698,5.8698,5.8698,5.8698,5.8698,5.8698,5.8698,5.8698,5.8698,5.8698,5.8698,5.8698,5.8921,5.9032,5.8735,5.8921,5.9292,5.985,6.0221,6.115,6.219,6.2562,6.297,6.349,6.3565,6.3602,6.3602,6.3602,6.3602,6.3602,6.3602,6.3602,6.3602,6.3602,6.3631,6.3632,6.3611,6.3468,6.3235,6.3209,6.321,6.3036,6.269,6.2391,6.2424,6.1848,6.1841,6.222,6.1979,6.2048,6.2599,6.2841,6.2841,6.3358,6.3565,6.3496,6.3393,6.3565,6.3565,6.1797,6.1875,6.1797,6.1797,6.1719,6.1719,6.1719,6.1719,6.1719,6.1719,6.1719,6.1719,6.1758,6.1913,6.2013,6.179,6.1651,6.1698,6.1559,6.1176,6.1099,6.0962,6.0781,6.0781,6.0781,6.0781,6.0781,6.0781,6.0781,6.0781,6.0781,6.0781,6.0781,6.0781,6.0781,6.0781,6.0781,6.0781,6.0781,6.0781,6.0781,6.0781,6.0781,6.0781,6.0781,6.0781,6.0781,6.0781,6.0622,6.0321,6.0,5.9625,5.9223,5.8876,5.8772,5.8809,5.8772,5.8772,5.8772,5.8772,5.8735,5.8698,5.8772,5.8735,5.8809,5.8921,5.8958,5.8772,5.9515,5.9589,5.9069,5.9515,5.9924,6.0147,6.1373,6.2153,6.2413,6.3082,6.349,6.3602,6.3602,6.3602,6.3602,6.3602,6.3602,6.3602,6.3602,6.3602,6.3639,6.3602,6.3882,6.4177,6.4302,6.4328,6.418,6.403,6.3802,6.3639,6.3489,6.3144,6.2717,6.2496,6.2841,6.3117,6.3082,6.3186,6.3427,6.3496,6.3462,6.36,6.36,6.36,6.36,6.36,6.36,6.1719,6.1719,6.1719,6.1719,6.1719,6.1719,6.1719,6.1719,6.1719,6.1719,6.1719,6.1719,6.1719,6.1719,6.1716,6.1564,6.1373,6.1387,6.1208,6.0959,6.092,6.0894,6.0804,6.0781,6.0781,6.0781,6.0781,6.0781,6.0781,6.0781,6.0781,6.0781,6.0866,6.0827,6.0843,6.0866,6.0866,6.0781,6.0781,6.0781,6.0781,6.0781,6.0781,6.0781,6.0781,6.0781,6.0781,6.0781,6.0622,6.0293,5.9962,5.9647,5.929,5.938,5.9733,6.0221,6.0295,6.0072,5.9552,5.9478,5.9218,5.8809,5.9218,5.9478,5.9589,5.9961,6.0295,6.037,6.0518,6.0555,6.0444,6.0593,6.0964,6.1484,6.2041,6.2636,6.3082,6.3453,6.3602,6.3602,6.3602,6.3602,6.3602,6.3602,6.3602,6.3602,6.3602,6.3639,6.3713,6.401,6.4438,6.4498,6.4893,6.5312,6.5698,6.5169,6.4782,6.4592,6.4337,6.4067,6.3762,6.3266,6.3432,6.3324,6.3565,6.36,6.3565,6.3565,6.36,6.36,6.36,6.36,6.36,6.36,6.36,6.1719,6.1719,6.1719,6.1719,6.1719,6.1719,6.1719,6.1719,6.1719,6.1719,6.1719,6.1719,6.1719,6.168,6.168,6.1541,6.1364,6.1303,6.1173,6.0933,6.0933,6.0911,6.0888,6.0827,6.0804,6.0804,6.0804,6.0781,6.0781,6.0781,6.0843,6.0866,6.0888,6.0911,6.0888,6.0911,6.0888,6.0843,6.0781,6.0781,6.0781,6.0781,6.0781,6.0781,6.0781,6.0781,6.0781,6.0781,6.0776,6.0665,6.0472,6.0244,6.007,6.0221,6.0574,6.115,6.1187,6.0964,6.0444,6.0333,6.011,5.9589,5.9998,6.0333,6.037,6.0853,6.115,6.1224,6.1484,6.1596,6.167,6.1819,6.2116,6.245,6.2636,6.297,6.3527,6.3602,6.3602,6.3602,6.3602,6.3602,6.3602,6.3602,6.3602,6.3602,6.3788,6.401,6.4085,6.4633,6.5207,6.5238,6.5693,6.622,6.6617,6.6366,6.5587,6.5298,6.476,6.461,6.432,6.3898,6.3673,6.36,6.36,6.36,6.36,6.36,6.36,6.36,6.36,6.36,6.36,6.36,6.36,6.1719,6.1719,6.1719,6.1719,6.1719,6.1719,6.1719,6.1719,6.1719,6.1719,6.1719,6.1719,6.1719,6.168,6.164,6.1541,6.1412,6.1336,6.1215,6.0997,6.0997,6.0997,6.0976,6.0933,6.0911,6.0888,6.0843,6.0781,6.0781,6.0804,6.0827,6.085,6.0911,6.0955,6.1015,6.0933,6.0888,6.0881,6.0819,6.0819,6.0781,6.0781,6.0781,6.0781,6.0781,6.0819,6.0858,6.0858,6.1108,6.1409,6.1478,6.1558,6.1544,6.1353,6.1233,6.1366,6.1336,6.1298,6.1224,6.1224,6.1187,6.0964,6.115,6.1224,6.1224,6.1373,6.1447,6.1596,6.2004,6.2413,6.2524,6.297,6.3156,6.2673,6.3082,6.349,6.3565,6.3602,6.3602,6.3602,6.3602,6.3602,6.3602,6.3602,6.3639,6.3862,6.427,6.4716,6.4819,6.544,6.6075,6.6519,6.6713,6.6942,6.7353,6.7596,6.6685,6.5894,6.5155,6.47,6.4218,6.3785,6.3673,6.36,6.36,6.36,6.36,6.36,6.36,6.36,6.36,6.36,6.36,6.36,6.36,6.1719,6.1719,6.1719,6.1719,6.1719,6.1719,6.1719,6.1719,6.1719,6.1719,6.1719,6.1719,6.1719,6.168,6.168,6.1582,6.1384,6.1366,6.1235,6.1021,6.1021,6.1,6.0997,6.0976,6.0955,6.0911,6.0881,6.0858,6.0843,6.0872,6.0894,6.0894,6.0959,6.098,6.0997,6.098,6.0959,6.0949,6.0881,6.0858,6.0858,6.0819,6.0781,6.0781,6.0781,6.105,6.1666,6.1666,6.1757,6.1966,6.2202,6.2427,6.2485,6.2215,6.2287,6.274,6.2859,6.2562,6.2116,6.2004,6.1781,6.1484,6.1707,6.2004,6.2116,6.2524,6.2784,6.2822,6.3082,6.323,6.3305,6.3416,6.3453,6.323,6.3453,6.3602,6.3602,6.3602,6.3602,6.3602,6.3602,6.3602,6.3602,6.3639,6.3862,6.4308,6.4716,6.5051,6.5635,6.6245,6.663,6.6901,6.7192,6.7405,6.7557,6.7542,6.6967,6.6247,6.5561,6.477,6.4288,6.3785,6.3673,6.36,6.36,6.36,6.36,6.36,6.36,6.36,6.36,6.36,6.36,6.36,6.36,6.1719,6.1719,6.1719,6.1719,6.1719,6.1719,6.1719,6.1719,6.1719,6.1719,6.1719,6.1719,6.1719,6.168,6.168,6.1562,6.1415,6.1346,6.1254,6.108,6.1041,6.1041,6.1021,6.1018,6.0997,6.0933,6.0949,6.0927,6.0866,6.0916,6.0959,6.0938,6.0962,6.1041,6.1021,6.0982,6.1,6.0976,6.0949,6.0866,6.0881,6.0819,6.0781,6.0819,6.1089,6.155,6.2089,6.2666,6.3012,6.3065,6.3334,6.3473,6.3388,6.3078,6.3111,6.349,6.3565,6.3342,6.2896,6.2822,6.2673,6.2301,6.2562,6.2859,6.2933,6.3416,6.3602,6.3602,6.3602,6.3602,6.3602,6.3602,6.3602,6.3602,6.3602,6.3602,6.3602,6.3602,6.3602,6.3602,6.3602,6.3602,6.3602,6.3973,6.4196,6.4753,6.5348,6.5831,6.6526,6.7098,6.7247,6.7368,6.751,6.761,6.7614,6.7433,6.7174,6.6523,6.5878,6.5171,6.4463,6.3895,6.36,6.36,6.36,6.36,6.36,6.36,6.36,6.36,6.36,6.36,6.36,6.36,6.36,6.1719,6.1719,6.1719,6.1719,6.1719,6.1719,6.1719,6.1719,6.1719,6.1719,6.1719,6.1719,6.1719,6.168,6.168,6.1538,6.1403,6.1352,6.1234,6.1118,6.1118,6.1099,6.1099,6.1041,6.1,6.0997,6.0997,6.0976,6.0971,6.098,6.1021,6.1,6.1002,6.1022,6.1041,6.1022,6.0982,6.1018,6.0959,6.0894,6.0843,6.0819,6.0896,6.0935,6.1627,6.2127,6.2627,6.3782,6.4589,6.4666,6.4564,6.4374,6.418,6.383,6.3565,6.3602,6.3602,6.3602,6.3565,6.3453,6.3453,6.3379,6.3416,6.3602,6.3527,6.3527,6.3602,6.3602,6.3602,6.3602,6.3602,6.3602,6.3602,6.3602,6.3602,6.3602,6.3602,6.3602,6.3602,6.3602,6.3602,6.3639,6.375,6.4345,6.4753,6.5348,6.6314,6.6908,6.738,6.7728,6.7973,6.8018,6.7826,6.772,6.7687,6.7633,6.7378,6.6967,6.6247,6.5368,6.4669,6.4111,6.36,6.36,6.36,6.36,6.36,6.36,6.36,6.36,6.36,6.36,6.36,6.3634,6.3669,6.1719,6.1719,6.1719,6.1719,6.1719,6.1719,6.1719,6.1719,6.1719,6.1719,6.1719,6.1719,6.1719,6.1719,6.168,6.158,6.1432,6.1368,6.1273,6.1118,6.1118,6.1118,6.1118,6.1099,6.106,6.0982,6.1002,6.1021,6.0993,6.0982,6.1022,6.1021,6.106,6.106,6.1079,6.106,6.106,6.106,6.1,6.0976,6.0933,6.0904,6.1204,6.1781,6.2012,6.2743,6.382,6.4974,6.5551,6.5526,6.4993,6.4643,6.4482,6.3963,6.3602,6.3602,6.3602,6.3602,6.3602,6.3602,6.3602,6.3602,6.3602,6.3602,6.3602,6.3602,6.3602,6.3602,6.3602,6.3602,6.3602,6.3602,6.3602,6.3602,6.3602,6.3602,6.3602,6.3602,6.3602,6.3602,6.3639,6.3899,6.4382,6.4791,6.5348,6.6314,6.702,6.7577,6.7937,6.8062,6.8208,6.8107,6.7967,6.781,6.7741,6.7687,6.7542,6.7378,6.6641,6.5526,6.4905,6.4288,6.3858,6.36,6.36,6.36,6.36,6.36,6.36,6.3772,6.3841,6.3945,6.3738,6.3669,6.3772,6.1719,6.1719,6.1719,6.1719,6.1719,6.1719,6.1719,6.1719,6.1719,6.1719,6.1719,6.1719,6.1719,6.1719,6.1719,6.164,6.146,6.1419,6.133,6.1195,6.1118,6.1118,6.1118,6.1118,6.106,6.1041,6.106,6.1041,6.1059,6.1041,6.1041,6.1041,6.106,6.1118,6.1118,6.1118,6.1099,6.108,6.0982,6.098,6.0971,6.0943,6.132,6.2012,6.2435,6.3397,6.4936,6.5628,6.5781,6.5408,6.4932,6.4567,6.4215,6.3835,6.3602,6.3602,6.3602,6.3602,6.3602,6.3602,6.3602,6.3602,6.3602,6.3602,6.3602,6.3602,6.3602,6.3602,6.3602,6.3602,6.3602,6.3602,6.3602,6.3602,6.3602,6.3602,6.3602,6.3602,6.3788,6.3973,6.4159,6.4419,6.5236,6.5608,6.6277,6.7057,6.7577,6.8023,6.8308,6.8321,6.8208,6.8107,6.7915,6.7794,6.7741,6.7687,6.7286,6.7117,6.6608,6.5604,6.4843,6.4251,6.3965,6.3669,6.3634,6.3669,6.3772,6.391,6.4117,6.4255,6.4324,6.4462,6.4427,6.422,6.4255,6.1719,6.1719,6.1719,6.1719,6.1719,6.1719,6.1719,6.1719,6.1719,6.1719,6.1719,6.1719,6.1719,6.1719,6.1719,6.1654,6.1574,6.1452,6.1328,6.1214,6.1157,6.1118,6.1118,6.1118,6.1118,6.1079,6.1079,6.1118,6.1099,6.1118,6.1118,6.1099,6.1118,6.1118,6.1118,6.1118,6.108,6.106,6.1041,6.0982,6.101,6.1097,6.1612,6.2382,6.3397,6.432,6.5397,6.5833,6.5608,6.4734,6.4709,6.4377,6.3798,6.3691,6.3602,6.3602,6.3602,6.3602,6.3602,6.3602,6.3602,6.3602,6.3602,6.3602,6.3602,6.3602,6.3602,6.3602,6.3602,6.3602,6.3602,6.3602,6.3602,6.3602,6.3602,6.3639,6.3713,6.375,6.4048,6.4716,6.4828,6.5348,6.6091,6.6797,6.7317,6.7577,6.8023,6.8246,6.842,6.8358,6.8208,6.807,6.7915,6.7741,6.7741,6.7687,6.7174,6.6736,6.62,6.5428,6.4601,6.4131,6.3954,6.3841,6.4255,6.4358,6.4289,6.4462,6.4738,6.491,6.5048,6.5428,6.5704,6.5324,6.5221,6.1719,6.1719,6.1719,6.1719,6.1719,6.1719,6.1719,6.1719,6.1719,6.1719,6.1719,6.1719,6.1719,6.1719,6.1719,6.1686,6.1584,6.146,6.1317,6.1118,6.1118,6.1118,6.1118,6.1118,6.1118,6.1118,6.1118,6.1118,6.1118,6.1118,6.1118,6.1118,6.1118,6.1118,6.1118,6.1118,6.1118,6.1099,6.1079,6.106,6.1214,6.1627,6.2252,6.3137,6.4499,6.5359,6.5743,6.5897,6.5513,6.4938,6.4651,6.4474,6.4012,6.3736,6.3602,6.3602,6.3602,6.3602,6.3602,6.3602,6.3602,6.3602,6.3602,6.3602,6.3602,6.3602,6.3602,6.3602,6.3602,6.3602,6.3602,6.3602,6.3602,6.3602,6.3676,6.3899,6.4382,6.4531,6.4605,6.4939,6.5496,6.6128,6.6908,6.7131,6.7614,6.8097,6.832,6.8506,6.8408,6.8358,6.8259,6.8121,6.7967,6.7794,6.7724,6.7689,6.7352,6.6993,6.6467,6.5823,6.5053,6.4749,6.4858,6.4991,6.5117,6.5083,6.491,6.529,6.5635,6.5738,6.5842,6.6117,6.629,6.6117,6.6186,6.1719,6.1719,6.1719,6.1719,6.1719,6.1719,6.1719,6.1719,6.1719,6.1719,6.1719,6.1719,6.1719,6.1719,6.1719,6.1672,6.1621,6.1534,6.1423,6.1253,6.1195,6.1195,6.1157,6.1118,6.1118,6.1118,6.1118,6.1118,6.1118,6.1118,6.1118,6.1118,6.1118,6.1118,6.1118,6.1118,6.1118,6.1118,6.1118,6.1215,6.1659,6.1979,6.2829,6.3907,6.5191,6.5897,6.5897,6.5897,6.5446,6.4904,6.4699,6.4445,6.4004,6.3698,6.3602,6.3602,6.3602,6.3602,6.3602,6.3602,6.3602,6.3602,6.3602,6.3602,6.3602,6.3602,6.3602,6.3602,6.3602,6.3602,6.3602,6.3602,6.3602,6.3676,6.3973,6.4345,6.4716,6.4828,6.5236,6.5756,6.6425,6.7057,6.754,6.7688,6.7874,6.8357,6.8394,6.8543,6.8457,6.8358,6.8259,6.8158,6.7967,6.7847,6.776,6.767,6.7637,6.7475,6.7338,6.6766,6.6179,6.6063,6.616,6.6041,6.5738,6.5669,6.56,6.6048,6.6428,6.6497,6.6635,6.6773,6.6945,6.7083,6.7152,6.1719,6.1719,6.1719,6.1719,6.1719,6.1719,6.1719,6.1719,6.1719,6.1719,6.1719,6.1719,6.1719,6.1719,6.1719,6.1719,6.168,6.1625,6.1511,6.1352,6.1303,6.1289,6.1253,6.1157,6.1118,6.1118,6.1118,6.1118,6.1118,6.1118,6.1118,6.1118,6.1118,6.1118,6.1118,6.1118,6.1118,6.1118,6.1118,6.1486,6.2161,6.2425,6.3322,6.4677,6.5422,6.5859,6.5833,6.5781,6.5456,6.4769,6.4661,6.4254,6.3792,6.3602,6.3602,6.3602,6.3602,6.3602,6.3602,6.3602,6.3602,6.3602,6.3602,6.3602,6.3602,6.3602,6.3602,6.3602,6.3602,6.3602,6.3602,6.3602,6.3676,6.3899,6.4456,6.4865,6.5162,6.5199,6.5979,6.6834,6.728,6.7763,6.8097,6.832,6.8431,6.8543,6.8543,6.8543,6.8457,6.8408,6.8259,6.8158,6.8004,6.8178,6.8164,6.8239,6.808,6.8307,6.8274,6.7914,6.7447,6.744,6.7357,6.6519,6.6221,6.629,6.6462,6.6876,6.7152,6.7256,6.7359,6.7463,6.7738,6.8049,6.798,6.1719,6.1719,6.1719,6.1719,6.1719,6.1719,6.1719,6.1719,6.1719,6.1719,6.1719,6.1719,6.1719,6.1719,6.1719,6.168,6.164,6.1601,6.1556,6.1401,6.1357,6.1337,6.1291,6.1157,6.1118,6.1118,6.1118,6.1118,6.1118,6.1118,6.1118,6.1118,6.1118,6.1118,6.1118,6.1118,6.1118,6.1157,6.1234,6.1698,6.253,6.3359,6.4122,6.5495,6.5832,6.5859,6.5808,6.558,6.5207,6.4731,6.4434,6.4104,6.3749,6.3639,6.3602,6.3602,6.3602,6.3602,6.3602,6.3602,6.3602,6.3602,6.3602,6.3602,6.3602,6.3602,6.3602,6.3602,6.3602,6.3602,6.3602,6.3676,6.401,6.4419,6.4902,6.5459,6.6388,6.6797,6.6834,6.7428,6.7911,6.8246,6.8431,6.8543,6.8543,6.8543,6.8543,6.8543,6.8457,6.8408,6.8309,6.8208,6.8055,6.8378,6.8641,6.8807,6.8877,6.9259,6.9307,6.9196,6.8887,6.8821,6.8413,6.7585,6.7273,6.7394,6.7601,6.7704,6.7738,6.7704,6.7876,6.8083,6.8083,6.8083,6.8083,6.1719,6.1719,6.1719,6.1719,6.1719,6.1719,6.1719,6.1719,6.1719,6.1719,6.1719,6.1719,6.1719,6.1719,6.1719,6.168,6.164,6.164,6.164,6.1559,6.1431,6.1356,6.131,6.1157,6.1118,6.1118,6.1118,6.1118,6.1118,6.1118,6.1118,6.1118,6.1118,6.1118,6.1118,6.1118,6.1118,6.1195,6.1582,6.2452,6.3709,6.4791,6.5765,6.5789,6.5947,6.5897,6.5872,6.5755,6.5427,6.5035,6.4651,6.4254,6.3947,6.3713,6.3602,6.3602,6.3602,6.3602,6.3602,6.3602,6.3602,6.3602,6.3602,6.3602,6.3602,6.3602,6.3602,6.3602,6.3602,6.3602,6.3602,6.3973,6.4419,6.4865,6.5496,6.6388,6.7131,6.7614,6.78,6.7837,6.8171,6.8431,6.8468,6.8543,6.8543,6.8543,6.8543,6.8543,6.8543,6.8494,6.8396,6.8481,6.8439,6.8799,6.9265,6.9688,6.9982,7.036,7.0483,7.0329,7.0064,6.988,6.9316,6.8518,6.842,6.8206,6.8049,6.7911,6.8014,6.8083,6.8083,6.8083,6.8083,6.8083,6.8083,6.1719,6.1719,6.1719,6.1719,6.1719,6.1719,6.1719,6.1719,6.1719,6.1719,6.1719,6.1719,6.1719,6.1719,6.1719,6.1719,6.1719,6.1719,6.168,6.1621,6.1495,6.1396,6.1324,6.1195,6.1118,6.1118,6.1118,6.1118,6.1118,6.1118,6.1118,6.1118,6.1118,6.1118,6.1118,6.135,6.1311,6.1853,6.2491,6.3748,6.5199,6.6295,6.6746,6.6097,6.5947,6.5897,6.5897,6.5755,6.558,6.5199,6.4833,6.4407,6.4159,6.3825,6.3639,6.3602,6.3602,6.3602,6.3602,6.3602,6.3602,6.3602,6.3602,6.3602,6.3602,6.3602,6.3602,6.3602,6.3602,6.375,6.3973,6.4419,6.4976,6.5608,6.65,6.7391,6.7688,6.8023,6.8283,6.8394,6.8543,6.8543,6.8543,6.8543,6.8543,6.8543,6.8543,6.8543,6.8543,6.8543,6.8519,6.8753,6.8934,6.9384,6.9942,7.0735,7.114,7.16,7.1647,7.1586,7.1205,7.08,7.0092,6.9278,6.8758,6.8593,6.8284,6.8083,6.8083,6.8083,6.8083,6.8083,6.8083,6.8083,6.8083,6.1719,6.1719,6.1719,6.1719,6.1719,6.1719,6.1719,6.1719,6.1719,6.1719,6.1719,6.1719,6.1719,6.1719,6.1719,6.1719,6.1719,6.1719,6.168,6.1617,6.1468,6.1369,6.1328,6.1195,6.1118,6.1118,6.1118,6.1118,6.1118,6.1118,6.1118,6.1118,6.1118,6.1157,6.135,6.193,6.2627,6.3381,6.4213,6.5142,6.5856,6.6196,6.6206,6.6044,6.5933,6.5897,6.5872,6.5663,6.5456,6.5329,6.4638,6.4256,6.4122,6.3788,6.3639,6.3602,6.3602,6.3602,6.3602,6.3602,6.3602,6.3602,6.3602,6.3602,6.3602,6.3639,6.3639,6.3602,6.3676,6.4048,6.4568,6.4828,6.5608,6.6351,6.7131,6.7763,6.8134,6.8208,6.8468,6.8543,6.8543,6.8543,6.8543,6.8543,6.8543,6.8543,6.8543,6.8543,6.8543,6.8543,6.8754,6.9013,6.9517,6.9969,7.0692,7.1397,7.1913,7.2558,7.2539,7.2459,7.1975,7.1323,7.057,6.9884,6.9347,6.8787,6.8517,6.8284,6.8162,6.8083,6.8083,6.8083,6.8083,6.8083,6.8083,6.1713,6.1719,6.1719,6.1719,6.1719,6.1719,6.1719,6.1719,6.1719,6.1719,6.1719,6.1719,6.1719,6.1719,6.1719,6.1719,6.1719,6.1719,6.168,6.1627,6.1499,6.1368,6.131,6.1195,6.1118,6.1118,6.1118,6.1118,6.1118,6.1118,6.1118,6.1118,6.1157,6.1427,6.1969,6.2743,6.3555,6.4542,6.5586,6.6283,6.6358,6.6509,6.6505,6.6052,6.5958,6.5947,6.5872,6.5781,6.5635,6.5493,6.4891,6.4481,6.433,6.399,6.3602,6.3602,6.3602,6.3602,6.3602,6.3602,6.3602,6.3602,6.3602,6.3602,6.3602,6.3676,6.3891,6.4253,6.4262,6.4716,6.5459,6.5979,6.65,6.7168,6.7688,6.8023,6.8357,6.8431,6.8543,6.8543,6.8543,6.8543,6.8543,6.8543,6.8543,6.8543,6.8543,6.8543,6.8543,6.8543,6.8853,6.9396,6.9976,7.0591,7.1353,7.215,7.2445,7.2889,7.2834,7.2723,7.2365,7.1757,7.1095,7.0368,6.9743,6.9273,6.8787,6.8362,6.8162,6.8083,6.8083,6.8083,6.8083,6.8083,6.8083,6.1697,6.1716,6.1718,6.1719,6.1719,6.1719,6.1719,6.1719,6.1719,6.1719,6.1719,6.1719,6.1719,6.1719,6.1719,6.1719,6.1719,6.1719,6.168,6.1588,6.1479,6.1336,6.1271,6.1157,6.1118,6.1118,6.1118,6.1273,6.1466,6.1466,6.1505,6.1466,6.1892,6.2356,6.3168,6.4251,6.5296,6.6185,6.692,6.7036,6.6766,6.6804,6.6548,6.6212,6.6005,6.5972,6.5947,6.5897,6.5897,6.5718,6.5116,6.467,6.455,6.4004,6.3647,6.3602,6.3602,6.3602,6.3602,6.3602,6.3602,6.3602,6.3602,6.3602,6.3639,6.375,6.4039,6.4698,6.5041,6.5534,6.6239,6.6945,6.728,6.7651,6.8097,6.8357,6.8543,6.8543,6.8543,6.8543,6.8543,6.8543,6.8543,6.8543,6.8543,6.8543,6.8543,6.8543,6.858,6.8617,6.9274,6.9841,7.0708,7.1361,7.2177,7.2791,7.3124,7.3145,7.3091,7.2982,7.2686,7.2365,7.1818,7.1095,7.0368,6.9954,6.96,6.8863,6.8083,6.8083,6.8083,6.8083,6.8083,6.8083,6.8083,6.172,6.169,6.1716,6.1719,6.1719,6.1719,6.1719,6.1719,6.1719,6.1719,6.1719,6.1719,6.1719,6.1719,6.1719,6.1719,6.1719,6.1719,6.1601,6.151,6.1383,6.1313,6.1247,6.1195,6.1234,6.1234,6.1466,6.1853,6.2181,6.2549,6.2433,6.2375,6.3129,6.398,6.4948,6.6108,6.6998,6.7578,6.7712,6.7384,6.6959,6.6688,6.6183,6.6119,6.6029,6.5996,6.5996,6.5947,6.5897,6.5859,6.5141,6.4719,6.4582,6.4009,6.3647,6.3602,6.3602,6.3602,6.3602,6.3602,6.3602,6.3602,6.3676,6.3788,6.3825,6.4419,6.4744,6.5106,6.571,6.6388,6.6945,6.7354,6.7763,6.806,6.8357,6.8431,6.8543,6.8543,6.8543,6.8543,6.8543,6.8543,6.8543,6.8543,6.8543,6.8543,6.8543,6.8543,6.8766,6.8951,6.9806,7.0536,7.1441,7.2221,7.3001,7.332,7.3305,7.3305,7.3252,7.3199,7.3091,7.2742,7.2422,7.1878,7.1223,7.0836,7.0368,6.9457,6.8787,6.8284,6.8162,6.8284,6.8162,6.8083,6.8083,6.172,6.172,6.1697,6.1713,6.1719,6.1719,6.1719,6.1719,6.1719,6.1719,6.1719,6.1719,6.1719,6.1719,6.1719,6.1719,6.1719,6.1719,6.1601,6.1537,6.1407,6.1358,6.135,6.166,6.193,6.2046,6.2394,6.3149,6.396,6.3961,6.4831,6.5121,6.4909,6.545,6.6495,6.7462,6.8003,6.7866,6.7673,6.7286,6.665,6.6456,6.6165,6.6102,6.608,6.6029,6.602,6.5972,6.5947,6.5705,6.5103,6.4823,6.4582,6.393,6.3647,6.3676,6.3676,6.3713,6.3713,6.3676,6.3602,6.375,6.401,6.4345,6.439,6.5088,6.5821,6.6256,6.6601,6.7205,6.7874,6.806,6.8246,6.8431,6.8543,6.8543,6.8543,6.8543,6.8543,6.8543,6.8543,6.8543,6.8543,6.8543,6.8543,6.8543,6.8543,6.858,6.8803,6.9286,7.0103,7.092,7.1775,7.2481,7.3224,7.3372,7.3372,7.3372,7.332,7.3305,7.3252,7.3199,7.2798,7.2422,7.1998,7.1537,7.0865,7.0163,6.9529,6.92,6.8863,6.8593,6.844,6.8241,6.8162,6.172,6.172,6.172,6.1704,6.1719,6.1719,6.1719,6.1719,6.1719,6.1719,6.1719,6.1719,6.1719,6.1719,6.1719,6.1719,6.1719,6.168,6.1601,6.1654,6.1707,6.1678,6.193,6.2356,6.2975,6.3207,6.3748,6.4503,6.5703,6.5741,6.6456,6.6938,6.6882,6.7152,6.7539,6.8119,6.8098,6.7634,6.7132,6.69,6.6224,6.6185,6.6185,6.6123,6.6102,6.6058,6.6005,6.5996,6.5972,6.568,6.5241,6.4764,6.4474,6.4169,6.3803,6.3899,6.401,6.4048,6.4233,6.4085,6.4122,6.4568,6.4902,6.5125,6.5394,6.5942,6.6638,6.7072,6.7455,6.7911,6.8543,6.8431,6.8394,6.8543,6.8543,6.8543,6.8543,6.8543,6.8543,6.8543,6.8543,6.8543,6.8543,6.8543,6.8543,6.8543,6.8543,6.858,6.8729,6.936,7.0326,7.1143,7.1961,7.2629,7.3261,7.3335,7.3372,7.3372,7.3372,7.332,7.3305,7.3252,7.3199,7.2853,7.248,7.2116,7.1721,7.1223,7.077,7.0232,6.9814,6.9347,6.8863,6.867,6.8362,6.172,6.172,6.172,6.1704,6.1719,6.1719,6.1719,6.1719,6.1719,6.1719,6.1719,6.1719,6.1719,6.1719,6.1719,6.1797,6.1914,6.1836,6.1827,6.1935,6.2405,6.2491,6.2859,6.34,6.429,6.4793,6.5373,6.6205,6.7465,6.725,6.7926,6.8352,6.8197,6.8081,6.8584,6.7926,6.7539,6.7364,6.665,6.634,6.6224,6.6185,6.6185,6.6165,6.6144,6.608,6.6013,6.6005,6.5996,6.5782,6.5388,6.5054,6.485,6.4391,6.4331,6.4753,6.4791,6.5162,6.5831,6.5199,6.5274,6.5645,6.5794,6.6017,6.6239,6.676,6.7269,6.7629,6.7937,6.832,6.8543,6.8543,6.8543,6.8543,6.8543,6.8543,6.8543,6.8543,6.8543,6.8543,6.8543,6.8543,6.8543,6.8543,6.8543,6.8543,6.8543,6.8617,6.8729,6.9546,7.0586,7.1255,7.2035,7.2778,7.3335,7.3335,7.3372,7.3372,7.3372,7.3372,7.3372,7.332,7.3305,7.3199,7.3,7.2593,7.263,7.2573,7.1915,7.1259,7.0637,7.0094,6.9564,6.9126,6.9013,6.172,6.172,6.172,6.1704,6.1719,6.1719,6.1719,6.1719,6.1719,6.1719,6.1719,6.1719,6.1719,6.1719,6.1875,6.2109,6.25,6.2519,6.2531,6.3125,6.3391,6.3748,6.4213,6.4986,6.5837,6.6611,6.7191,6.7869,6.9167,6.8661,6.8854,6.928,6.839,6.7965,6.7887,6.7539,6.7307,6.6727,6.634,6.6185,6.6185,6.6185,6.6185,6.6185,6.6165,6.6123,6.6058,6.6052,6.602,6.6063,6.5751,6.5765,6.5676,6.5301,6.5565,6.5746,6.5719,6.6054,6.6648,6.6537,6.6314,6.6425,6.6611,6.6871,6.6993,6.7651,6.7986,6.8049,6.8271,6.8543,6.8543,6.8543,6.8543,6.8543,6.8543,6.8543,6.8543,6.8543,6.8543,6.8543,6.8543,6.8543,6.8543,6.8543,6.8543,6.8543,6.8543,6.8543,6.8617,6.9769,7.0883,7.1366,7.2072,7.2852,7.3372,7.3372,7.3372,7.3372,7.3372,7.3372,7.3372,7.3372,7.3372,7.3268,7.3252,7.3145,7.3037,7.2835,7.2723,7.2248,7.1573,7.0836,7.0232,6.9954,6.9884,6.2623,6.2592,6.2592,6.2608,6.25,6.1953,6.1719,6.1719,6.1719,6.1719,6.1758,6.1992,6.2187,6.2265,6.25,6.2773,6.3437,6.3365,6.3748,6.4386,6.4674,6.5199,6.5915,6.6688,6.7578,6.8313,6.8854,6.9512,6.9783,6.9435,6.9125,6.8584,6.7771,6.7191,6.7036,6.692,6.6804,6.634,6.6185,6.6185,6.6185,6.6185,6.6185,6.6185,6.6165,6.6165,6.6102,6.6097,6.6167,6.6381,6.655,6.671,6.6692,6.6635,6.6753,6.6648,6.6908,6.7205,6.7577,6.7725,6.7428,6.7168,6.7503,6.7651,6.7736,6.8134,6.8357,6.8468,6.8543,6.8543,6.8543,6.8543,6.8543,6.8543,6.8543,6.8543,6.8543,6.8543,6.8543,6.8543,6.8543,6.8543,6.8543,6.8543,6.8543,6.8543,6.8543,6.8543,6.8654,6.988,7.092,7.1366,7.2109,7.3001,7.3372,7.3372,7.3372,7.3372,7.3372,7.3372,7.3372,7.3372,7.3372,7.3372,7.3357,7.3252,7.3199,7.3037,7.289,7.2723,7.2401,7.1732,7.0966,7.0836,7.077,6.4271,6.4287,6.4287,6.4215,6.3984,6.2578,6.1914,6.1875,6.1875,6.1914,6.1914,6.2773,6.3047,6.3203,6.3906,6.4375,6.457,6.4453,6.5023,6.5586,6.6224,6.69,6.7578,6.8352,6.8893,6.9551,6.986,6.9705,6.9916,6.9357,6.8661,6.7733,6.6843,6.6495,6.6417,6.6379,6.634,6.6224,6.6185,6.6185,6.6185,6.6185,6.6185,6.6185,6.6185,6.6281,6.6316,6.635,6.673,6.6959,6.7138,6.737,6.7402,6.7203,6.7471,6.7738,6.823,6.8283,6.832,6.832,6.8357,6.806,6.8283,6.8468,6.8431,6.8431,6.8506,6.8543,6.8543,6.8543,6.8543,6.8543,6.8543,6.8543,6.8543,6.8543,6.8543,6.8543,6.8543,6.8543,6.8543,6.8543,6.8543,6.8543,6.8543,6.8543,6.8543,6.8543,6.884,6.9992,7.0883,7.118,7.1998,7.3112,7.3372,7.3372,7.3372,7.3372,7.3372,7.3372,7.3372,7.3372,7.3372,7.3372,7.3372,7.332,7.3252,7.3199,7.3091,7.289,7.2835,7.2573,7.1854,7.1696,7.1635,6.4301,6.431,6.4291,6.4297,6.4219,6.375,6.3555,6.3555,6.3555,6.3555,6.3594,6.3828,6.4023,6.4023,6.4844,6.5586,6.6094,6.6633,6.7293,6.7755,6.7905,6.8584,6.9087,6.9473,6.9821,6.9899,6.9899,6.9628,6.9026,6.87,6.781,6.665,6.6379,6.6224,6.6185,6.6185,6.6185,6.6185,6.6185,6.6185,6.6185,6.6185,6.6185,6.6185,6.6379,6.659,6.6977,6.7166,6.7625,6.8096,6.8706,6.902,6.8706,6.9002,6.936,6.8741,6.8642,6.8506,6.8543,6.8543,6.8506,6.8554,6.8506,6.8543,6.8506,6.8543,6.8543,6.8543,6.8543,6.8543,6.8543,6.8543,6.8543,6.8543,6.8543,6.8543,6.8543,6.8543,6.8543,6.8543,6.8543,6.8543,6.8543,6.8543,6.8543,6.8543,6.8543,6.8543,6.8877,6.9992,7.0772,7.1069,7.1923,7.3001,7.3335,7.3372,7.3372,7.3372,7.3372,7.3372,7.3372,7.3372,7.3372,7.3372,7.3372,7.3372,7.332,7.3305,7.3199,7.3252,7.3215,7.3,7.2835,7.2573,7.2365,6.5273,6.5316,6.53,6.531,6.5312,6.5312,6.5312,6.5234,6.4609,6.4297,6.4375,6.5039,6.5312,6.5586,6.6601,6.7461,6.7851,6.8037,6.8598,6.9149,6.9357,6.9821,7.0208,7.0131,6.9976,6.9938,6.9551,6.8988,6.8253,6.7462,6.6611,6.6301,6.6185,6.6185,6.6185,6.6185,6.6185,6.6185,6.6185,6.6185,6.6224,6.6224,6.6185,6.6417,6.6688,6.7539,6.8081,6.8386,6.9137,6.9601,7.0218,7.0221,6.9932,7.0187,7.0019,6.9393,6.9176,6.9085,6.9041,6.8855,6.8763,6.8707,6.8613,6.8506,6.8543,6.8543,6.8543,6.8543,6.8543,6.8543,6.8543,6.8543,6.8543,6.8543,6.8543,6.8543,6.8543,6.8543,6.8543,6.8543,6.8543,6.8543,6.8543,6.8543,6.8543,6.8543,6.8543,6.8543,6.884,6.9546,7.04,7.092,7.1849,7.2889,7.3112,7.3372,7.3372,7.3372,7.3372,7.3372,7.3372,7.3372,7.3372,7.3372,7.3372,7.3372,7.3372,7.3372,7.332,7.3372,7.3372,7.3268,7.3108,7.3054,7.2945,6.6756,6.6756,6.6878,6.6745,6.6914,6.6875,6.6953,6.6836,6.5586,6.4726,6.5117,6.6406,6.7109,6.7344,6.8515,6.914,6.9351,6.9435,6.9794,7.0264,7.017,7.044,7.044,7.0402,6.9783,6.9512,6.9048,6.8236,6.7402,6.6766,6.6379,6.6185,6.6185,6.6185,6.6185,6.6185,6.6185,6.6224,6.634,6.6456,6.634,6.6301,6.6456,6.6843,6.7926,6.9125,6.9512,7.0286,7.1308,7.1263,7.1139,7.1042,7.0798,7.0497,7.0101,6.9845,6.9625,6.9508,6.9428,6.9303,6.9176,6.9041,6.8855,6.8791,6.8838,6.8554,6.8506,6.8543,6.8543,6.8543,6.8543,6.8543,6.8543,6.8543,6.8543,6.8543,6.8543,6.8543,6.8543,6.8543,6.8543,6.8543,6.8543,6.8543,6.8543,6.8543,6.8543,6.8543,6.8729,6.9249,6.9955,7.0698,7.1738,7.2666,7.3187,7.3372,7.3372,7.3372,7.3372,7.3372,7.3372,7.3372,7.3372,7.3372,7.3372,7.3372,7.3372,7.3372,7.3372,7.3372,7.3372,7.3372,7.3372,7.332,7.3199,6.6795,6.68,6.6809,6.6867,6.6992,6.7617,6.789,6.793,6.8164,6.7734,6.7539,6.8281,6.8789,6.8906,6.9844,7.0366,7.0408,7.0587,7.1126,7.1004,7.0866,7.0324,7.0324,6.986,6.9241,6.8352,6.7771,6.7423,6.6766,6.634,6.6185,6.6185,6.6185,6.6185,6.6185,6.6185,6.6224,6.6379,6.6902,6.692,6.6688,6.7596,6.8214,6.8678,6.9667,7.0905,7.1253,7.133,7.191,7.2043,7.1456,7.1169,7.0979,7.0579,7.0316,7.0124,6.9923,6.9851,6.9777,6.9664,6.9587,6.9548,6.9426,6.9416,6.9241,6.8791,6.8554,6.8554,6.8554,6.8554,6.8554,6.8554,6.8543,6.8543,6.8543,6.8543,6.8543,6.8543,6.8543,6.8543,6.8543,6.8543,6.8543,6.8543,6.8543,6.8543,6.8543,6.8543,6.8506,6.8926,6.9718,7.0537,7.1515,7.2406,7.2964,7.3372,7.3372,7.3372,7.3372,7.3372,7.3372,7.3372,7.3372,7.3372,7.3372,7.3372,7.3372,7.3372,7.3372,7.3372,7.3372,7.3372,7.3372,7.3372,7.3252,6.6795,6.6834,6.7234,6.7441,6.7609,6.8398,6.875,6.8906,6.9648,6.9726,6.9414,6.9805,7.0,7.0117,7.0898,7.1158,7.1206,7.1485,7.1084,7.095,7.075,7.0092,6.9667,6.9125,6.8468,6.7578,6.7036,6.6611,6.6263,6.6185,6.6185,6.6185,6.6185,6.6224,6.6224,6.6224,6.6495,6.6804,6.7676,6.7985,6.781,6.8833,6.9645,7.0208,7.1407,7.2452,7.2607,7.2529,7.2839,7.2491,7.1656,7.1216,7.1017,7.0798,7.0623,7.0554,7.04,7.02,7.0133,7.0064,6.9959,6.9959,6.974,6.9661,6.9582,6.9176,6.919,6.919,6.9176,6.9176,6.8908,6.8855,6.866,6.8602,6.8554,6.8543,6.8543,6.8543,6.8543,6.8543,6.8543,6.8543,6.8543,6.8543,6.8543,6.8506,6.8506,6.8554,6.8554,6.8754,6.95,7.0246,7.1253,7.1988,7.2518,7.3001,7.3372,7.3372,7.3372,7.3372,7.3372,7.3372,7.3372,7.3372,7.3372,7.3372,7.3372,7.3372,7.3372,7.3372,7.3372,7.3372,7.3372,7.3372,7.3252,6.6873,6.7068,6.7888,6.8318,6.8484,6.9213,6.9609,6.9765,7.0508,7.0859,7.0781,7.082,7.0859,7.1172,7.1562,7.1719,7.1661,7.1364,7.0813,7.033,6.9938,6.9357,6.8661,6.7965,6.7578,6.7152,6.6611,6.6417,6.6185,6.6185,6.6185,6.6185,6.6224,6.6263,6.634,6.6611,6.7075,6.8101,6.8991,6.9843,7.017,7.0496,7.1076,7.2026,7.2993,7.3535,7.3651,7.3535,7.3728,7.2916,7.1756,7.1317,7.1106,7.0979,7.0887,7.0815,7.0748,7.0719,7.0719,7.0532,7.0432,7.0304,6.9995,6.9851,6.9851,6.9849,6.9845,6.9809,6.9813,6.9587,6.9344,6.9134,6.8908,6.8707,6.8613,6.8554,6.8554,6.8554,6.8554,6.8554,6.8554,6.8554,6.8602,6.8602,6.8554,6.8554,6.8602,6.8565,6.866,6.9034,6.959,7.0104,7.0773,7.1444,7.2199,7.2792,7.335,7.3372,7.3372,7.3372,7.3372,7.3372,7.3372,7.3372,7.3372,7.3372,7.3372,7.3372,7.3372,7.3372,7.3372,7.3372,7.3372,7.3372,7.3252,6.7224,6.7927,6.8786,6.9137,6.9299,7.0058,7.0464,7.0625,7.1367,7.1758,7.168,7.1719,7.1758,7.1719,7.1875,7.1836,7.1466,7.1003,7.0602,7.0191,6.928,6.8545,6.7887,6.7384,6.7036,6.665,6.634,6.6263,6.6185,6.6185,6.6185,6.6185,6.6263,6.6611,6.7346,6.781,6.8622,6.9611,7.0887,7.1992,7.2723,7.301,7.3203,7.3783,7.4309,7.4618,7.4502,7.3535,7.3071,7.2413,7.1756,7.1302,7.1106,7.1082,7.1002,7.0898,7.0898,7.0898,7.0805,7.0748,7.069,7.069,7.0501,7.0532,7.0532,7.0532,7.0455,7.0394,7.0271,6.9851,6.9625,6.9587,6.9428,6.9047,6.8863,6.8754,6.866,6.866,6.866,6.866,6.866,6.8809,6.8997,6.8908,6.8809,6.8855,6.8997,6.8997,6.9003,6.934,6.9662,7.0075,7.0523,7.1519,7.2454,7.2882,7.3341,7.335,7.3372,7.3372,7.3372,7.3372,7.3372,7.3372,7.3372,7.3372,7.3372,7.3372,7.3372,7.3372,7.3372,7.3372,7.3372,7.3372,7.3268]},{"header":{"parameterUnit":"m.s-1","parameterCategory":1,"la1":31.0,"la2":29.5877,"lo1":-88.7671,"lo2":-86.6584,"dy":0.0162,"dx":0.0185,"nx":115,"ny":88,"refTime":"2023-03-23T06:00:00:Z","depth":0,"parameterNumber":3,"parameterNumberName":"V-component_of_WINDS"},"data":[0.0,0.0,0.0,0.0,0.0,0.0,0.0,0.0,0.0,0.0,0.0,0.0,0.0,0.0,0.0,0.0,0.0,0.0,0.0,0.0,0.0,0.0,0.0,0.0,0.0,0.0,0.0,0.0,0.0,0.0,0.0,0.0,0.0,0.0,0.0,0.0,0.0,0.0,0.0,0.0,0.0,0.0,0.0,0.0,0.0,0.0,0.0,0.0,0.0,0.0,0.0,0.0,0.0,0.0,0.0,0.0,0.0,0.0,0.0,0.0,0.0,0.0,0.0,0.0,0.0,0.0,0.0,0.0,0.0,0.0,0.0,0.0,0.0,0.0,0.0,0.0,0.0,0.0,0.0,0.0,0.0,0.0,0.0,0.0,0.0,0.0,0.0,0.0,0.0,0.0,0.0,0.0,0.0,0.0,0.0,0.0,0.0,0.0,0.0,0.0,0.0,0.0,0.0,0.0,0.0,0.0,0.0,0.0,0.0,0.0,0.0,0.0,0.0,0.0,0.0,0.0,0.0,0.0,0.0,0.0,0.0,0.0,0.0,0.0,0.0,0.0,0.0,0.0,0.0,0.0,0.0,0.0,0.0,0.0,0.0,0.0,0.0,0.0,0.0,0.0,0.0,0.0,0.0,0.0,0.0,0.0,0.0,0.0,0.0,0.0,0.0,0.0,0.0,0.0,0.0,0.0,0.0,0.0,0.0,0.0,0.0,0.0,0.0,0.0,0.0,0.0,0.0,0.0,0.0,0.0,0.0,0.0,0.0,0.0,0.0,0.0,0.0,0.0,0.0,0.0,0.0,0.0,0.0,0.0,0.0,0.0,0.0,0.0,0.0,0.0,0.0,0.0,0.0,0.0,0.0,0.0,0.0,0.0,0.0,0.0,0.0,0.0,0.0,0.0,0.0,0.0,0.0,0.0,0.0,0.0,0.0,0.0,0.0,0.0,0.0,0.0,0.0,0.0,0.0,0.0,0.0,0.0,0.0,0.0,0.0,0.0,0.0,0.0,0.0,0.0,0.0,0.0,0.0,0.0,0.0,0.0,0.0,0.0,0.0,0.0,0.0,0.0,0.0,0.0,0.0,0.0,0.0,0.0,0.0,0.0,0.0,0.0,0.0,0.0,0.0,0.0,0.0,0.0,0.0,0.0,0.0,0.0,0.0,0.0,0.0,0.0,0.0,0.0,0.0,0.0,0.0,0.0,0.0,0.0,0.0,0.0,0.0,0.0,0.0,0.0,0.0,0.0,0.0,0.0,0.0,0.0,0.0,0.0,0.0,0.0,0.0,0.0,0.0,0.0,0.0,0.0,0.0,0.0,0.0,0.0,0.0,0.0,0.0,0.0,0.0,0.0,0.0,0.0,0.0,0.0,0.0,0.0,0.0,0.0,0.0,0.0,0.0,0.0,0.0,0.0,0.0,0.0,0.0,0.0,0.0,0.0,0.0,0.0,0.0,0.0,0.0,0.0,0.0,0.0,0.0,0.0,0.0,0.0,0.0,0.0,0.0,0.0,0.0,0.0,0.0,0.0,0.0,0.0,0.0,0.0,0.0,0.0,0.0,0.0,0.0,0.0,0.0,0.0,0.0,0.0,0.0,0.0,0.0,0.0,0.0,0.0,0.0,0.0,0.0,0.0,0.0,0.0,0.0,0.0,0.0,0.0,0.0,0.0,0.0,0.0,0.0,0.0,0.0,0.0,0.0,0.0,0.0,0.0,0.0,0.0,0.0,0.0,0.0,0.0,0.0,0.0,0.0,0.0,0.0,0.0,0.0,0.0,0.0,0.0,0.0,0.0,0.0,0.0,0.0,0.0,0.0,0.0,0.0,0.0,0.0,0.0,0.0,0.0,0.0,0.0,0.0,0.0,0.0,0.0,0.0,0.0,0.0,0.0,0.0,0.0,0.0,0.0,0.0,0.0,0.0,0.0,0.0,0.0,0.0,0.0,0.0,0.0,0.0,0.0,0.0,0.0,0.0,0.0,0.0,0.0,0.0,0.0,0.0,0.0,0.0,0.0,0.0,0.0,0.0,0.0,0.0,0.0,0.0,0.0,0.0,0.0,0.0,0.0,0.0,0.0,0.0,0.0,0.0,0.0,0.0,0.0,0.0,0.0,0.0,0.0,0.0,0.0,0.0,0.0,0.0,0.0,0.0,0.0,0.0,0.0,0.0,0.0,0.0,0.0,0.0,0.0,0.0,0.0,0.0,0.0,0.0,0.0,0.0,0.0,0.0,0.0,0.0,0.0,0.0,0.0,0.0,0.0,0.0,0.0,0.0,0.0,0.0,0.0,0.0,0.0,0.0,0.0,0.0,0.0,0.0,0.0,0.0,0.0,0.0,0.0,0.0,0.0,0.0,0.0,0.0,0.0,0.0,0.0,0.0,0.0,0.0,0.0,0.0,0.0,0.0,0.0,0.0,0.0,0.0,0.0,0.0,0.0,0.0,0.0,0.0,0.0,0.0,0.0,0.0,0.0,0.0,0.0,0.0,0.0,0.0,0.0,0.0,0.0,0.0,0.0,0.0,0.0,0.0,0.0,0.0,0.0,0.0,0.0,0.0,0.0,0.0,0.0,0.0,0.0,0.0,0.0,0.0,0.0,0.0,0.0,0.0,0.0,0.0,0.0,0.0,0.0,0.0,0.0,0.0,0.0,0.0,0.0,0.0,0.0,0.0,0.0,0.0,0.0,0.0,0.0,0.0,0.0,0.0,0.0,0.0,0.0,0.0,0.0,0.0,0.0,0.0,0.0,0.0,0.0,0.0,0.0,0.0,0.0,0.0,0.0,0.0,0.0,0.0,0.0,0.0,0.0,0.0,0.0,0.0,0.0,0.0,0.0,0.0,0.0,0.0,0.0,0.0,0.0,0.0,0.0,0.0,0.0,0.0,0.0,0.0,0.0,0.0,0.0,0.0,0.0,0.0,0.0,0.0,0.0,0.0,0.0,0.0,0.0,0.0,0.0,0.0,0.0,0.0,0.0,0.0,0.0,0.0,0.0,0.0,0.0,0.0,0.0,0.0,0.0,0.0,0.0,0.0,0.0,0.0,0.0,0.0,0.0,0.0,0.0,0.0,0.0,0.0,0.0,0.0,0.0,0.0,0.0,0.0,0.0,0.0,0.0,0.0,0.0,0.0,0.0,0.0,0.0,0.0,0.0,0.0,0.0,0.0,0.0,0.0,0.0,0.0,0.0,0.0,0.0,0.0,0.0,0.0,0.0,0.0,0.0,0.0,0.0,0.0,0.0,0.0,0.0,0.0,0.0,0.0,0.0,0.0,0.0,0.0,0.0,0.0,0.0,0.0,0.0,0.0,0.0,0.0,0.0,0.0,0.0,0.0,0.0,0.0,0.0,0.0,0.0,0.0,0.0,0.0,0.0,0.0,0.0,0.0,0.0,0.0,0.0,0.0,0.0,0.0,0.0,0.0,0.0,0.0,0.0,0.0,0.0,0.0,0.0,0.0,0.0,0.0,0.0,0.0,0.0,0.0,0.0,0.0,0.0,0.0,0.0,0.0,0.0,0.0,0.0,0.0,0.0,0.0,0.0,0.0,0.0,0.0,0.0,0.0,0.0,0.0,0.0,0.0,0.0,0.0,0.0,0.0,0.0,0.0,0.0,0.0,0.0,0.0,0.0,0.0,0.0,0.0,0.0,0.0,0.0,0.0,0.0,0.0,0.0,0.0,0.0,0.0,0.0,0.0,0.0,0.0,0.0,0.0,0.0,0.0,0.0,0.0,0.0,0.0,0.0,0.0,0.0,0.0,0.0,0.0,0.0,0.0,0.0,0.0,0.0,0.0,0.0,0.0,0.0,0.0,0.0,0.0,0.0,0.0,0.0,0.0,0.0,0.0,0.0,0.0,0.0,0.0,0.0,0.0,0.0,0.0,0.0,0.0,0.0,0.0,0.0,0.0,0.0,0.0,0.0,0.0,0.0,0.0,0.0,0.0,0.0,0.0,0.0,0.0,0.0,0.0,0.0,0.0,0.0,0.0,0.0,0.0,0.0,0.0,0.0,0.0,0.0,0.0,0.0,0.0,0.0,0.0,0.0,0.0,0.0,0.0,0.0,0.0,0.0,0.0,0.0,0.0,0.0,0.0,0.0,0.0,0.0,0.0,0.0,0.0,0.0,0.0,0.0,0.0,0.0,0.0,0.0,0.0,0.0,0.0,0.0,0.0,0.0,0.0,0.0,0.0,0.0,0.0,0.0,0.0,0.0,0.0,0.0,0.0,0.0,0.0,0.0,0.0,0.0,0.0,0.0,0.0,0.0,-1.8737,0.0,0.0,0.0,0.0,0.0,0.0,0.0,0.0,0.0,0.0,0.0,0.0,0.0,0.0,0.0,0.0,0.0,0.0,0.0,0.0,0.0,0.0,0.0,0.0,0.0,0.0,0.0,0.0,0.0,0.0,0.0,0.0,0.0,0.0,0.0,0.0,0.0,0.0,0.0,0.0,0.0,0.0,0.0,0.0,0.0,0.0,0.0,0.0,0.0,0.0,0.0,0.0,0.0,0.0,0.0,0.0,0.0,0.0,0.0,0.0,0.0,0.0,0.0,0.0,0.0,0.0,0.0,0.0,0.0,0.0,0.0,0.0,0.0,0.0,0.0,0.0,0.0,0.0,0.0,0.0,0.0,0.0,0.0,0.0,0.0,0.0,0.0,0.0,0.0,0.0,0.0,0.0,0.0,0.0,0.0,0.0,0.0,0.0,0.0,0.0,0.0,0.0,0.0,0.0,0.0,0.0,0.0,0.0,0.0,0.0,-1.7219,-1.7089,-1.8429,-1.8929,-1.8493,0.0,0.0,0.0,0.0,0.0,0.0,0.0,0.0,0.0,0.0,0.0,0.0,0.0,0.0,0.0,0.0,0.0,0.0,0.0,0.0,0.0,0.0,0.0,0.0,0.0,0.0,0.0,0.0,0.0,0.0,0.0,0.0,0.0,0.0,0.0,0.0,0.0,0.0,0.0,0.0,0.0,0.0,0.0,0.0,0.0,0.0,0.0,0.0,0.0,0.0,0.0,0.0,0.0,0.0,0.0,0.0,0.0,0.0,0.0,0.0,0.0,0.0,0.0,0.0,0.0,0.0,0.0,0.0,0.0,0.0,0.0,0.0,0.0,0.0,0.0,0.0,0.0,0.0,0.0,0.0,0.0,0.0,0.0,0.0,0.0,0.0,0.0,0.0,0.0,0.0,0.0,0.0,0.0,0.0,0.0,0.0,0.0,0.0,0.0,0.0,0.0,0.0,0.0,0.0,0.0,0.0,0.0,0.0,0.0,0.0,0.0,0.0,-1.76,-1.783,-1.8391,0.0,0.0,0.0,0.0,0.0,0.0,0.0,0.0,0.0,0.0,0.0,0.0,0.0,0.0,0.0,0.0,0.0,0.0,0.0,0.0,0.0,0.0,0.0,0.0,0.0,0.0,0.0,0.0,0.0,0.0,0.0,0.0,0.0,0.0,0.0,0.0,0.0,0.0,0.0,0.0,0.0,0.0,0.0,0.0,0.0,0.0,0.0,0.0,0.0,0.0,0.0,0.0,0.0,0.0,0.0,0.0,0.0,0.0,0.0,0.0,0.0,0.0,0.0,0.0,0.0,0.0,0.0,0.0,0.0,0.0,0.0,0.0,0.0,0.0,0.0,0.0,0.0,0.0,0.0,0.0,0.0,0.0,0.0,0.0,0.0,0.0,0.0,0.0,0.0,0.0,0.0,0.0,0.0,0.0,0.0,0.0,0.0,0.0,0.0,0.0,0.0,0.0,0.0,0.0,0.0,0.0,0.0,0.0,0.0,0.0,-1.8853,-1.8364,-1.784,0.0,-1.835,0.0,0.0,0.0,0.0,0.0,0.0,0.0,0.0,0.0,0.0,0.0,0.0,0.0,0.0,0.0,0.0,0.0,0.0,0.0,0.0,0.0,0.0,0.0,0.0,0.0,0.0,0.0,0.0,0.0,0.0,0.0,0.0,0.0,0.0,0.0,0.0,0.0,0.0,0.0,0.0,0.0,0.0,0.0,0.0,0.0,0.0,0.0,0.0,0.0,0.0,0.0,0.0,0.0,0.0,0.0,0.0,0.0,0.0,0.0,0.0,0.0,0.0,0.0,0.0,0.0,0.0,0.0,0.0,0.0,0.0,0.0,0.0,0.0,0.0,0.0,0.0,0.0,0.0,0.0,0.0,0.0,0.0,0.0,0.0,0.0,0.0,0.0,0.0,0.0,0.0,0.0,0.0,0.0,0.0,0.0,0.0,0.0,0.0,0.0,0.0,0.0,0.0,0.0,0.0,0.0,0.0,0.0,0.0,0.0,0.0,-1.987,-1.8466,-1.6913,-1.6771,0.0,0.0,0.0,0.0,0.0,0.0,0.0,0.0,0.0,0.0,0.0,0.0,0.0,0.0,0.0,0.0,0.0,0.0,0.0,0.0,0.0,0.0,0.0,0.0,0.0,0.0,0.0,0.0,0.0,0.0,0.0,0.0,0.0,0.0,0.0,0.0,0.0,0.0,0.0,0.0,0.0,0.0,0.0,0.0,0.0,0.0,0.0,0.0,0.0,0.0,0.0,0.0,0.0,0.0,0.0,0.0,0.0,0.0,0.0,0.0,0.0,0.0,0.0,0.0,0.0,0.0,0.0,0.0,0.0,0.0,0.0,0.0,0.0,0.0,0.0,0.0,0.0,0.0,0.0,0.0,0.0,0.0,0.0,0.0,0.0,0.0,0.0,0.0,0.0,0.0,0.0,0.0,0.0,0.0,0.0,0.0,0.0,0.0,0.0,0.0,0.0,0.0,0.0,0.0,0.0,0.0,0.0,0.0,0.0,0.0,-2.0568,-1.9676,-1.7499,-1.6252,-1.6356,-1.7654,0.0,0.0,0.0,0.0,0.0,0.0,0.0,0.0,0.0,0.0,0.0,0.0,0.0,0.0,0.0,0.0,0.0,0.0,0.0,0.0,0.0,0.0,0.0,0.0,0.0,0.0,0.0,0.0,0.0,0.0,0.0,0.0,0.0,0.0,0.0,0.0,0.0,0.0,0.0,0.0,0.0,0.0,0.0,0.0,0.0,0.0,0.0,0.0,0.0,0.0,0.0,0.0,0.0,0.0,0.0,0.0,0.0,0.0,0.0,0.0,0.0,0.0,0.0,0.0,0.0,0.0,0.0,0.0,0.0,0.0,0.0,0.0,0.0,0.0,0.0,0.0,0.0,0.0,0.0,0.0,0.0,0.0,0.0,0.0,0.0,0.0,0.0,0.0,0.0,0.0,0.0,0.0,0.0,0.0,0.0,0.0,0.0,0.0,0.0,0.0,0.0,0.0,0.0,0.0,0.0,0.0,0.0,0.0,-1.8609,-1.9089,-1.8081,-1.521,-1.631,-1.6822,0.0,0.0,0.0,0.0,0.0,0.0,0.0,0.0,0.0,0.0,0.0,0.0,0.0,0.0,0.0,0.0,0.0,0.0,0.0,0.0,0.0,0.0,0.0,0.0,0.0,0.0,0.0,0.0,0.0,0.0,0.0,0.0,0.0,0.0,0.0,0.0,0.0,0.0,0.0,0.0,0.0,0.0,0.0,0.0,0.0,0.0,0.0,0.0,0.0,0.0,0.0,0.0,0.0,0.0,0.0,0.0,0.0,0.0,0.0,0.0,0.0,0.0,0.0,0.0,0.0,0.0,0.0,0.0,0.0,0.0,0.0,0.0,0.0,0.0,0.0,0.0,0.0,0.0,0.0,0.0,0.0,0.0,0.0,0.0,0.0,0.0,0.0,0.0,0.0,0.0,0.0,0.0,0.0,0.0,0.0,0.0,0.0,0.0,0.0,0.0,0.0,0.0,0.0,0.0,0.0,0.0,0.0,0.0,0.0,-1.8323,-1.6609,-1.5109,-1.3854,-1.477,-1.5795,0.0,0.0,0.0,0.0,0.0,0.0,0.0,0.0,0.0,0.0,0.0,0.0,0.0,0.0,0.0,0.0,0.0,0.0,0.0,0.0,0.0,0.0,0.0,0.0,0.0,0.0,0.0,0.0,0.0,0.0,0.0,0.0,0.0,0.0,0.0,0.0,0.0,0.0,0.0,0.0,0.0,0.0,0.0,0.0,0.0,0.0,0.0,0.0,0.0,0.0,0.0,0.0,0.0,0.0,0.0,0.0,0.0,0.0,0.0,0.0,0.0,0.0,0.0,0.0,0.0,0.0,0.0,0.0,0.0,0.0,0.0,0.0,0.0,0.0,0.0,0.0,0.0,0.0,0.0,0.0,0.0,0.0,0.0,0.0,0.0,0.0,0.0,0.0,0.0,0.0,0.0,0.0,0.0,0.0,0.0,0.0,0.0,0.0,0.0,0.0,0.0,0.0,0.0,0.0,0.0,0.0,0.0,0.0,0.0,-1.6785,0.0,-1.379,-1.3317,-1.4059,-1.4895,0.0,0.0,0.0,0.0,0.0,0.0,0.0,0.0,0.0,0.0,0.0,0.0,0.0,0.0,0.0,0.0,0.0,0.0,0.0,0.0,0.0,0.0,0.0,0.0,0.0,0.0,0.0,0.0,0.0,0.0,0.0,0.0,0.0,0.0,0.0,0.0,0.0,0.0,0.0,0.0,0.0,0.0,0.0,0.0,0.0,0.0,0.0,0.0,0.0,0.0,0.0,0.0,0.0,0.0,0.0,0.0,0.0,0.0,0.0,0.0,0.0,0.0,0.0,0.0,0.0,0.0,0.0,0.0,0.0,0.0,0.0,0.0,0.0,0.0,0.0,0.0,0.0,0.0,0.0,0.0,0.0,0.0,0.0,0.0,0.0,0.0,0.0,0.0,0.0,0.0,0.0,0.0,0.0,0.0,0.0,0.0,0.0,0.0,0.0,0.0,0.0,0.0,0.0,0.0,0.0,0.0,0.0,0.0,-1.4421,-1.3894,-1.4311,-1.433,-1.3693,-1.4262,-1.4518,0.0,0.0,0.0,0.0,0.0,0.0,0.0,0.0,0.0,0.0,0.0,0.0,0.0,0.0,0.0,0.0,0.0,0.0,0.0,0.0,0.0,0.0,0.0,0.0,0.0,0.0,0.0,0.0,0.0,0.0,0.0,0.0,0.0,0.0,0.0,0.0,0.0,0.0,0.0,0.0,0.0,0.0,0.0,0.0,0.0,0.0,0.0,0.0,0.0,0.0,0.0,0.0,0.0,0.0,0.0,0.0,0.0,0.0,0.0,0.0,0.0,0.0,0.0,0.0,0.0,0.0,0.0,0.0,0.0,0.0,0.0,0.0,0.0,0.0,0.0,0.0,0.0,0.0,0.0,0.0,0.0,0.0,0.0,0.0,0.0,0.0,0.0,0.0,0.0,0.0,0.0,0.0,0.0,0.0,0.0,0.0,0.0,0.0,0.0,0.0,0.0,0.0,0.0,0.0,0.0,0.0,0.0,0.0,0.0,-1.747,-1.5612,-1.4498,-1.4316,-1.3908,-1.3966,0.0,0.0,0.0,0.0,0.0,0.0,0.0,0.0,0.0,0.0,0.0,0.0,0.0,0.0,0.0,0.0,0.0,0.0,0.0,0.0,0.0,0.0,0.0,0.0,0.0,0.0,0.0,0.0,0.0,0.0,0.0,0.0,0.0,0.0,0.0,0.0,0.0,0.0,0.0,0.0,0.0,0.0,0.0,0.0,0.0,0.0,0.0,0.0,0.0,0.0,0.0,0.0,0.0,0.0,0.0,0.0,0.0,0.0,0.0,0.0,0.0,0.0,0.0,0.0,0.0,0.0,0.0,0.0,0.0,0.0,0.0,0.0,0.0,0.0,0.0,0.0,0.0,0.0,0.0,0.0,0.0,0.0,0.0,0.0,0.0,0.0,0.0,0.0,0.0,0.0,0.0,0.0,0.0,0.0,0.0,0.0,0.0,0.0,0.0,0.0,0.0,0.0,0.0,0.0,0.0,0.0,0.0,0.0,0.0,-1.7115,-1.5782,-1.5052,-1.5319,-1.4211,-1.3907,-1.4562,0.0,0.0,0.0,0.0,0.0,0.0,0.0,0.0,0.0,0.0,0.0,0.0,0.0,0.0,0.0,0.0,0.0,0.0,0.0,0.0,0.0,0.0,0.0,0.0,0.0,0.0,0.0,0.0,0.0,0.0,0.0,0.0,0.0,0.0,0.0,0.0,0.0,0.0,0.0,0.0,0.0,0.0,0.0,0.0,0.0,0.0,0.0,0.0,0.0,0.0,0.0,0.0,0.0,0.0,0.0,0.0,0.0,0.0,0.0,0.0,0.0,0.0,0.0,0.0,0.0,0.0,0.0,0.0,0.0,0.0,0.0,0.0,0.0,0.0,0.0,0.0,0.0,0.0,0.0,0.0,0.0,0.0,0.0,0.0,0.0,0.0,0.0,0.0,0.0,0.0,0.0,0.0,0.0,0.0,0.0,0.0,0.0,0.0,0.0,0.0,0.0,0.0,0.0,0.0,0.0,0.0,0.0,0.0,-1.3537,-1.4847,-1.5753,-1.6284,-1.4827,-1.426,0.0,0.0,0.0,0.0,0.0,0.0,0.0,0.0,0.0,0.0,0.0,0.0,0.0,0.0,0.0,0.0,0.0,0.0,0.0,0.0,0.0,0.0,0.0,0.0,0.0,0.0,0.0,0.0,0.0,0.0,0.0,0.0,0.0,0.0,0.0,0.0,0.0,0.0,0.0,0.0,0.0,0.0,0.0,0.0,0.0,0.0,0.0,0.0,0.0,0.0,0.0,0.0,0.0,0.0,0.0,0.0,0.0,0.0,0.0,0.0,0.0,0.0,0.0,0.0,0.0,0.0,0.0,0.0,0.0,0.0,0.0,0.0,0.0,0.0,0.0,0.0,0.0,0.0,0.0,0.0,0.0,0.0,0.0,0.0,0.0,0.0,0.0,0.0,0.0,0.0,0.0,0.0,0.0,0.0,0.0,0.0,0.0,0.0,0.0,0.0,0.0,0.0,0.0,0.0,0.0,0.0,0.0,0.0,0.0,-1.2203,-1.2444,-1.3319,-1.4503,-1.358,-1.3296,0.0,0.0,0.0,0.0,0.0,0.0,0.0,0.0,0.0,0.0,0.0,0.0,0.0,0.0,0.0,0.0,0.0,0.0,0.0,0.0,0.0,0.0,0.0,0.0,0.0,0.0,0.0,0.0,0.0,0.0,0.0,0.0,0.0,0.0,0.0,0.0,0.0,0.0,0.0,0.0,0.0,0.0,0.0,0.0,0.0,0.0,0.0,0.0,0.0,0.0,0.0,0.0,0.0,0.0,0.0,0.0,0.0,0.0,0.0,0.0,0.0,0.0,0.0,0.0,0.0,0.0,0.0,0.0,0.0,0.0,0.0,0.0,0.0,0.0,0.0,0.0,0.0,0.0,0.0,0.0,0.0,0.0,0.0,0.0,0.0,0.0,0.0,0.0,0.0,0.0,0.0,0.0,0.0,0.0,0.0,0.0,0.0,0.0,0.0,0.0,0.0,0.0,0.0,0.0,0.0,0.0,0.0,0.0,-1.2822,-1.1598,-1.161,-1.208,-1.2854,-1.2832,-1.3044,0.0,0.0,0.0,0.0,0.0,0.0,0.0,0.0,0.0,0.0,0.0,0.0,0.0,0.0,0.0,0.0,0.0,0.0,0.0,0.0,0.0,0.0,0.0,0.0,0.0,0.0,0.0,0.0,0.0,0.0,0.0,0.0,0.0,0.0,0.0,0.0,0.0,0.0,0.0,0.0,0.0,0.0,0.0,0.0,0.0,0.0,0.0,0.0,0.0,0.0,0.0,0.0,0.0,0.0,0.0,0.0,0.0,0.0,0.0,0.0,0.0,0.0,0.0,0.0,0.0,0.0,0.0,0.0,0.0,0.0,0.0,0.0,0.0,0.0,0.0,0.0,0.0,0.0,0.0,0.0,0.0,0.0,0.0,0.0,0.0,0.0,0.0,0.0,0.0,0.0,0.0,0.0,0.0,0.0,0.0,0.0,0.0,0.0,0.0,0.0,0.0,0.0,0.0,0.0,0.0,0.0,0.0,0.0,-1.2692,-1.1637,-1.1587,-1.1613,-1.1579,-1.2373,-1.3317,0.0,0.0,0.0,0.0,0.0,0.0,0.0,0.0,0.0,0.0,0.0,0.0,0.0,0.0,0.0,0.0,0.0,0.0,0.0,0.0,0.0,0.0,0.0,0.0,0.0,0.0,0.0,0.0,0.0,0.0,0.0,0.0,0.0,0.0,0.0,0.0,0.0,0.0,0.0,0.0,0.0,0.0,0.0,0.0,0.0,0.0,0.0,0.0,0.0,0.0,0.0,0.0,0.0,0.0,0.0,0.0,0.0,0.0,0.0,0.0,0.0,0.0,0.0,0.0,0.0,0.0,0.0,0.0,0.0,0.0,0.0,0.0,0.0,0.0,0.0,0.0,0.0,0.0,0.0,0.0,0.0,0.0,0.0,0.0,0.0,0.0,0.0,0.0,0.0,0.0,0.0,0.0,0.0,0.0,0.0,0.0,0.0,0.0,0.0,0.0,0.0,0.0,0.0,0.0,0.0,0.0,0.0,0.0,-1.2914,-1.1694,-1.1643,-1.1619,-1.1613,-1.2353,-1.293,0.0,0.0,0.0,0.0,0.0,0.0,0.0,0.0,0.0,0.0,0.0,0.0,0.0,0.0,0.0,0.0,0.0,0.0,0.0,0.0,0.0,0.0,0.0,0.0,0.0,0.0,0.0,0.0,0.0,0.0,0.0,0.0,0.0,0.0,0.0,0.0,0.0,0.0,0.0,0.0,0.0,0.0,0.0,0.0,0.0,0.0,0.0,0.0,-2.9342,0.0,0.0,0.0,0.0,0.0,0.0,0.0,0.0,0.0,0.0,0.0,0.0,0.0,0.0,0.0,0.0,0.0,0.0,0.0,0.0,0.0,0.0,0.0,0.0,0.0,0.0,0.0,0.0,0.0,0.0,0.0,0.0,0.0,0.0,0.0,0.0,0.0,0.0,0.0,0.0,0.0,0.0,0.0,0.0,0.0,0.0,0.0,0.0,0.0,0.0,0.0,0.0,0.0,0.0,0.0,0.0,0.0,0.0,0.0,-1.266,-1.1711,-1.1557,-1.1619,-1.1606,-1.2131,-1.2555,0.0,0.0,0.0,0.0,0.0,0.0,0.0,0.0,0.0,0.0,0.0,0.0,0.0,0.0,0.0,0.0,0.0,0.0,0.0,0.0,0.0,0.0,0.0,0.0,0.0,0.0,0.0,0.0,0.0,0.0,0.0,0.0,0.0,0.0,0.0,0.0,0.0,0.0,0.0,0.0,0.0,0.0,0.0,0.0,0.0,0.0,0.0,0.0,0.0,0.0,0.0,0.0,0.0,0.0,0.0,0.0,0.0,0.0,0.0,0.0,0.0,0.0,0.0,0.0,0.0,0.0,0.0,0.0,0.0,0.0,0.0,0.0,0.0,0.0,0.0,0.0,0.0,0.0,0.0,0.0,0.0,0.0,0.0,0.0,0.0,0.0,0.0,0.0,0.0,0.0,0.0,0.0,0.0,0.0,0.0,0.0,0.0,0.0,0.0,0.0,0.0,0.0,0.0,0.0,0.0,0.0,0.0,-1.2739,-1.232,-1.1614,-1.1619,-1.1619,-1.1613,-1.2021,-1.2376,-1.2708,0.0,0.0,0.0,0.0,0.0,0.0,0.0,0.0,0.0,0.0,0.0,0.0,0.0,0.0,0.0,0.0,0.0,0.0,0.0,0.0,0.0,0.0,0.0,0.0,0.0,0.0,0.0,0.0,0.0,0.0,0.0,0.0,0.0,0.0,0.0,0.0,0.0,0.0,-2.494,-2.5857,0.0,0.0,0.0,0.0,0.0,0.0,0.0,0.0,-2.8157,0.0,0.0,0.0,0.0,0.0,0.0,0.0,0.0,0.0,0.0,0.0,0.0,0.0,0.0,0.0,0.0,0.0,0.0,0.0,0.0,0.0,0.0,0.0,0.0,0.0,0.0,0.0,0.0,0.0,0.0,0.0,0.0,0.0,0.0,0.0,0.0,0.0,0.0,0.0,0.0,0.0,0.0,0.0,0.0,0.0,0.0,0.0,0.0,0.0,0.0,0.0,0.0,0.0,0.0,0.0,0.0,-1.2515,-1.229,-1.1903,-1.166,-1.1592,-1.1619,-1.1613,-1.2432,-1.2918,-1.27,0.0,0.0,0.0,0.0,0.0,0.0,0.0,0.0,0.0,0.0,0.0,0.0,0.0,0.0,0.0,0.0,0.0,0.0,0.0,0.0,0.0,0.0,0.0,0.0,0.0,0.0,0.0,0.0,0.0,0.0,0.0,0.0,0.0,0.0,0.0,0.0,0.0,0.0,0.0,-2.5708,-2.6321,0.0,0.0,0.0,0.0,0.0,0.0,0.0,0.0,-2.7241,0.0,0.0,0.0,0.0,0.0,0.0,0.0,0.0,0.0,0.0,0.0,0.0,0.0,0.0,0.0,0.0,0.0,0.0,0.0,0.0,0.0,0.0,0.0,0.0,0.0,0.0,0.0,0.0,0.0,0.0,0.0,0.0,0.0,0.0,0.0,0.0,0.0,0.0,0.0,0.0,0.0,0.0,0.0,0.0,0.0,0.0,0.0,0.0,0.0,0.0,0.0,0.0,0.0,0.0,0.0,-1.2556,-1.2142,-1.1833,-1.1592,-1.1619,-1.1619,-1.1613,-1.2489,-1.2689,0.0,0.0,0.0,0.0,0.0,0.0,0.0,0.0,0.0,0.0,0.0,0.0,0.0,0.0,0.0,0.0,0.0,0.0,0.0,0.0,0.0,0.0,0.0,0.0,0.0,0.0,0.0,0.0,0.0,0.0,0.0,0.0,0.0,0.0,0.0,0.0,0.0,0.0,0.0,0.0,-2.5109,-2.5485,-2.5422,0.0,0.0,0.0,0.0,0.0,0.0,-2.7131,-2.7244,0.0,0.0,0.0,0.0,0.0,0.0,0.0,0.0,0.0,0.0,0.0,0.0,0.0,0.0,0.0,0.0,0.0,0.0,0.0,0.0,0.0,0.0,0.0,0.0,0.0,0.0,0.0,0.0,0.0,0.0,0.0,0.0,0.0,0.0,0.0,0.0,0.0,0.0,0.0,0.0,0.0,0.0,0.0,0.0,0.0,0.0,0.0,0.0,0.0,0.0,0.0,0.0,0.0,0.0,0.0,-1.2513,-1.2097,-1.1884,-1.1599,-1.1619,-1.1619,-1.1606,-1.2346,-1.2383,0.0,0.0,0.0,0.0,0.0,0.0,0.0,0.0,0.0,0.0,0.0,0.0,0.0,0.0,0.0,0.0,0.0,0.0,0.0,0.0,0.0,0.0,0.0,0.0,0.0,0.0,0.0,0.0,0.0,0.0,0.0,0.0,0.0,0.0,0.0,0.0,0.0,0.0,0.0,0.0,0.0,-2.465,-2.4142,-2.5786,0.0,0.0,0.0,0.0,-2.6703,-2.6817,0.0,0.0,0.0,0.0,0.0,0.0,0.0,0.0,0.0,0.0,0.0,0.0,0.0,0.0,0.0,0.0,0.0,0.0,0.0,0.0,0.0,0.0,0.0,0.0,0.0,0.0,0.0,0.0,0.0,0.0,0.0,0.0,0.0,0.0,0.0,0.0,0.0,0.0,0.0,0.0,0.0,0.0,0.0,0.0,0.0,0.0,0.0,0.0,0.0,0.0,0.0,0.0,0.0,0.0,0.0,0.0,-1.1827,-1.1738,-1.1713,-1.1599,-1.1619,-1.1619,-1.1606,-1.2396,-1.2605,0.0,0.0,0.0,0.0,0.0,0.0,0.0,0.0,0.0,0.0,0.0,0.0,0.0,0.0,0.0,0.0,0.0,0.0,0.0,0.0,0.0,0.0,0.0,0.0,0.0,0.0,0.0,0.0,0.0,0.0,0.0,0.0,0.0,0.0,0.0,0.0,0.0,0.0,0.0,0.0,0.0,-2.4265,-2.4372,-2.5438,-2.6215,0.0,0.0,-2.5659,-2.5628,-2.5401,0.0,0.0,0.0,0.0,0.0,0.0,0.0,0.0,0.0,0.0,0.0,0.0,0.0,0.0,0.0,0.0,0.0,0.0,0.0,0.0,0.0,0.0,0.0,0.0,0.0,0.0,0.0,0.0,0.0,0.0,0.0,0.0,0.0,0.0,0.0,0.0,0.0,0.0,0.0,0.0,0.0,0.0,0.0,0.0,0.0,0.0,0.0,0.0,0.0,0.0,0.0,0.0,0.0,0.0,0.0,-1.1585,-1.1682,-1.166,-1.1626,-1.1613,-1.1619,-1.1619,-1.1613,-1.2265,-1.2314,0.0,0.0,0.0,0.0,0.0,0.0,0.0,0.0,0.0,0.0,0.0,0.0,0.0,0.0,0.0,0.0,0.0,0.0,0.0,0.0,0.0,0.0,0.0,0.0,0.0,0.0,0.0,0.0,0.0,0.0,0.0,0.0,0.0,0.0,0.0,0.0,0.0,0.0,0.0,0.0,0.0,0.0,-2.4128,-2.5083,0.0,0.0,0.0,-2.5405,-2.5124,0.0,0.0,0.0,0.0,0.0,0.0,0.0,0.0,0.0,0.0,0.0,0.0,0.0,0.0,0.0,0.0,0.0,0.0,0.0,0.0,0.0,0.0,0.0,0.0,0.0,0.0,0.0,0.0,0.0,0.0,0.0,0.0,0.0,0.0,0.0,0.0,0.0,0.0,0.0,0.0,0.0,0.0,0.0,0.0,0.0,0.0,0.0,0.0,0.0,0.0,0.0,0.0,0.0,0.0,0.0,0.0,0.0,-1.1538,-1.165,-1.1619,-1.1619,-1.1619,-1.1619,-1.1606,-1.2052,0.0,0.0,0.0,0.0,0.0,0.0,0.0,0.0,0.0,0.0,0.0,0.0,0.0,0.0,0.0,0.0,0.0,0.0,0.0,0.0,0.0,0.0,0.0,0.0,0.0,0.0,0.0,-2.0647,0.0,0.0,0.0,0.0,0.0,0.0,0.0,0.0,0.0,0.0,0.0,0.0,0.0,0.0,-2.3548,-2.3781,-2.4441,-2.4638,0.0,0.0,-2.4802,-2.4656,-2.4461,-2.4669,0.0,0.0,0.0,0.0,0.0,0.0,0.0,0.0,0.0,0.0,0.0,0.0,0.0,0.0,0.0,0.0,0.0,0.0,0.0,0.0,0.0,0.0,0.0,0.0,0.0,0.0,0.0,0.0,0.0,0.0,0.0,0.0,0.0,0.0,0.0,0.0,0.0,0.0,0.0,0.0,0.0,0.0,0.0,0.0,0.0,0.0,0.0,0.0,0.0,0.0,0.0,0.0,0.0,0.0,-1.1934,-1.1408,-1.1504,-1.1619,-1.1619,-1.1619,-1.1619,-1.1613,-1.1565,-1.1497,0.0,0.0,0.0,0.0,0.0,0.0,0.0,0.0,0.0,0.0,0.0,0.0,0.0,0.0,0.0,0.0,0.0,0.0,0.0,0.0,0.0,0.0,0.0,0.0,0.0,0.0,0.0,0.0,0.0,0.0,0.0,0.0,0.0,0.0,0.0,0.0,0.0,0.0,0.0,0.0,0.0,-2.3461,-2.349,-2.3618,-2.3577,0.0,-2.3536,-2.3563,-2.3566,-2.3223,-2.3609,-2.5354,0.0,0.0,0.0,0.0,0.0,0.0,0.0,0.0,0.0,0.0,0.0,0.0,0.0,0.0,0.0,0.0,0.0,0.0,0.0,0.0,0.0,0.0,0.0,0.0,0.0,0.0,0.0,0.0,0.0,0.0,0.0,0.0,0.0,0.0,0.0,0.0,0.0,0.0,0.0,0.0,0.0,0.0,0.0,0.0,0.0,0.0,0.0,0.0,0.0,0.0,0.0,0.0,0.0,-1.1843,-1.1652,-1.1643,-1.1619,-1.1619,-1.1619,-1.1619,-1.1619,-1.16,-1.1844,0.0,0.0,0.0,0.0,0.0,0.0,0.0,0.0,0.0,0.0,0.0,0.0,0.0,0.0,0.0,0.0,0.0,0.0,0.0,0.0,0.0,0.0,0.0,0.0,0.0,0.0,0.0,0.0,-2.1803,-2.2105,-2.2333,0.0,0.0,0.0,0.0,0.0,0.0,0.0,0.0,0.0,0.0,-2.3247,-2.3448,-2.3389,0.0,0.0,-2.336,-2.342,-2.3422,-2.3384,-2.3676,-2.523,-2.5529,0.0,0.0,0.0,0.0,0.0,0.0,0.0,0.0,0.0,0.0,0.0,0.0,0.0,0.0,0.0,0.0,0.0,0.0,0.0,0.0,0.0,0.0,0.0,0.0,0.0,0.0,0.0,0.0,0.0,0.0,0.0,0.0,0.0,0.0,0.0,0.0,0.0,0.0,0.0,0.0,0.0,0.0,0.0,0.0,0.0,0.0,0.0,0.0,0.0,0.0,0.0,0.0,-1.2118,-1.2126,-1.1817,-1.1619,-1.1619,-1.1619,-1.1619,-1.1606,-1.1594,-1.1932,0.0,0.0,0.0,0.0,0.0,0.0,0.0,0.0,0.0,0.0,0.0,0.0,0.0,0.0,0.0,0.0,0.0,0.0,0.0,0.0,0.0,0.0,0.0,0.0,0.0,0.0,0.0,0.0,-2.1864,-2.2011,-2.22,0.0,0.0,0.0,0.0,0.0,0.0,0.0,0.0,0.0,0.0,-2.3036,-2.3289,-2.3201,-2.3131,-2.2919,-2.3249,-2.3494,-2.3618,-2.3695,-2.4386,-2.5821,0.0,0.0,0.0,0.0,0.0,0.0,0.0,0.0,0.0,0.0,0.0,0.0,0.0,0.0,0.0,0.0,0.0,0.0,0.0,0.0,0.0,0.0,0.0,0.0,0.0,0.0,0.0,-1.12,0.0,0.0,-1.1191,0.0,0.0,0.0,0.0,0.0,0.0,0.0,0.0,0.0,0.0,0.0,0.0,0.0,0.0,0.0,0.0,0.0,0.0,0.0,0.0,0.0,0.0,-1.2561,-1.2444,-1.1874,-1.1619,-1.1619,-1.1619,-1.1619,-1.1619,-1.1606,-1.1671,-1.1887,0.0,0.0,0.0,0.0,0.0,0.0,0.0,0.0,0.0,0.0,0.0,0.0,0.0,0.0,0.0,0.0,0.0,0.0,0.0,0.0,0.0,0.0,0.0,0.0,0.0,0.0,-2.1263,-2.1464,-2.1589,0.0,0.0,0.0,0.0,0.0,0.0,0.0,0.0,0.0,-2.3065,-2.3276,-2.3243,-2.2904,-2.2899,-2.2928,-2.2928,-2.3286,-2.3641,-2.3881,-2.4477,-2.5345,0.0,0.0,0.0,0.0,0.0,0.0,0.0,0.0,0.0,0.0,0.0,0.0,0.0,0.0,0.0,0.0,0.0,0.0,0.0,0.0,0.0,0.0,0.0,0.0,0.0,0.0,0.0,-1.0593,-1.087,0.0,0.0,0.0,0.0,0.0,0.0,0.0,0.0,0.0,0.0,0.0,-1.1253,-1.1431,0.0,0.0,0.0,0.0,0.0,0.0,0.0,0.0,0.0,0.0,0.0,0.0,-1.2444,-1.2344,-1.1874,-1.1619,-1.1619,-1.1619,-1.1619,-1.1619,-1.1619,-1.1733,-1.2057,0.0,0.0,0.0,0.0,0.0,0.0,0.0,0.0,0.0,0.0,0.0,0.0,0.0,0.0,0.0,0.0,0.0,0.0,0.0,0.0,0.0,0.0,0.0,0.0,0.0,-2.1723,0.0,0.0,0.0,0.0,0.0,0.0,0.0,0.0,0.0,0.0,0.0,-2.284,-2.2689,-2.2877,-2.3113,-2.2966,-2.287,-2.2889,0.0,0.0,0.0,0.0,0.0,0.0,0.0,0.0,0.0,0.0,0.0,0.0,0.0,0.0,-2.9604,-3.0122,-3.0405,-3.0724,-3.0857,0.0,0.0,0.0,0.0,0.0,0.0,0.0,0.0,0.0,0.0,0.0,0.0,0.0,0.0,-1.0539,0.0,-1.0627,0.0,0.0,0.0,0.0,0.0,0.0,0.0,0.0,-1.1061,-1.1069,-1.1038,-1.1089,-1.1119,0.0,-1.1255,-1.141,0.0,0.0,0.0,0.0,0.0,0.0,0.0,0.0,-1.215,-1.2127,-1.1845,-1.1619,-1.1619,-1.1619,-1.1619,-1.1619,-1.1619,-1.1667,-1.1881,-1.4014,-1.4613,0.0,0.0,0.0,0.0,0.0,0.0,0.0,0.0,0.0,0.0,0.0,0.0,0.0,0.0,0.0,0.0,0.0,0.0,0.0,0.0,0.0,0.0,0.0,-2.1455,0.0,0.0,0.0,0.0,0.0,0.0,0.0,0.0,0.0,-2.2655,-2.2526,-2.2557,-2.2617,-2.2828,-2.2951,-2.2907,0.0,0.0,0.0,0.0,0.0,0.0,0.0,-2.5198,-2.6661,-2.7533,-2.8259,-2.8618,-2.9331,-2.9667,-2.9431,0.0,0.0,-3.0405,-3.0686,-3.0879,-3.103,-3.0823,-3.0588,-3.0747,-3.0475,-3.0241,0.0,0.0,0.0,0.0,0.0,0.0,0.0,0.0,-1.0458,-1.0612,0.0,-1.066,0.0,0.0,0.0,0.0,-1.1179,-1.1072,0.0,0.0,-1.0746,-1.0692,-1.07,-1.0948,-1.102,-1.0998,-1.1225,-1.1332,-1.1223,-1.1644,0.0,0.0,0.0,0.0,0.0,0.0,-1.2096,-1.1728,-1.1671,-1.1619,-1.1619,-1.1619,-1.1619,-1.1619,-1.1619,-1.1619,-1.1749,-1.3555,-1.4455,-1.442,-1.3775,0.0,0.0,0.0,0.0,0.0,0.0,0.0,0.0,0.0,0.0,0.0,0.0,0.0,0.0,0.0,0.0,0.0,0.0,0.0,0.0,-2.1246,0.0,0.0,0.0,0.0,0.0,0.0,0.0,0.0,0.0,-2.2303,-2.2885,-2.266,-2.2602,-2.2908,0.0,0.0,0.0,0.0,-2.2896,-2.2996,-2.3273,-2.3741,-2.4351,-2.4655,-2.5545,-2.8062,0.0,0.0,-2.9155,-2.9525,-2.9561,-2.881,-2.9831,-3.0568,-3.0558,-3.054,-3.0672,-3.1049,-3.0897,-3.0859,-3.0982,-3.0915,-3.0754,-0.8551,0.0,0.0,0.0,0.0,-1.0336,-1.0419,-1.0558,-1.0431,-1.0594,-1.0834,-1.0678,0.0,0.0,0.0,0.0,0.0,0.0,-1.0747,-1.0713,-1.0728,-1.0732,-1.0726,-1.0767,-1.0788,-1.0781,-1.0823,-1.0843,-1.0822,-1.1284,-1.1919,-1.2856,0.0,0.0,0.0,0.0,-1.1999,-1.1661,-1.1678,-1.1619,-1.1619,-1.1619,-1.1619,-1.1619,-1.1619,-1.2043,-1.3174,-1.4762,-1.5615,-1.572,-1.75,0.0,0.0,0.0,0.0,0.0,0.0,0.0,0.0,0.0,0.0,0.0,0.0,0.0,0.0,0.0,0.0,0.0,0.0,0.0,-2.1575,-2.1264,-2.1166,0.0,0.0,0.0,0.0,0.0,0.0,0.0,0.0,0.0,-2.2877,-2.2571,-2.2424,0.0,0.0,-2.3043,-2.3356,-2.3123,-2.2946,-2.2914,-2.3004,0.0,-2.3673,-2.3953,-2.4408,-2.4875,-2.5455,-2.6599,-2.8386,-2.9168,-2.9651,-3.041,-3.0864,-3.1101,-3.1154,-3.1117,-3.1135,-3.1265,-3.1302,-3.1175,-3.1283,-3.1283,-3.1156,-0.6819,-0.6965,-0.9264,-1.031,-1.023,-1.0365,-1.0446,-1.0582,-1.0582,-1.0596,-1.0665,-1.0663,-1.0777,-1.0819,-1.0723,0.0,0.0,0.0,-1.0671,-1.0711,-1.0711,-1.0678,-1.0711,-1.0717,-1.0717,-1.0724,-1.0785,-1.0719,-1.067,-1.1173,-1.1747,-1.2202,0.0,0.0,-1.2027,-1.2033,-1.1895,-1.1632,-1.1578,-1.1619,-1.1619,-1.1619,-1.1619,-1.1619,-1.1619,-1.233,-1.388,-1.5283,-1.638,-1.7099,-1.9433,-1.956,0.0,0.0,0.0,0.0,0.0,0.0,0.0,0.0,0.0,0.0,0.0,-1.7486,-1.7185,0.0,0.0,0.0,-2.1124,-2.164,-2.1619,-2.1562,0.0,0.0,0.0,0.0,0.0,0.0,0.0,-2.2397,-2.2142,-2.199,-2.2486,-2.2413,-2.2418,-2.2965,-2.2944,-2.3036,-2.3215,0.0,-2.2974,-2.2856,-2.287,-2.3001,-2.3362,-2.3478,-2.3665,-2.3995,-2.5572,-2.7149,-2.8469,-2.9508,-3.0437,-3.112,-3.1377,-3.1377,-3.1377,-3.1377,-3.1377,-3.1377,-3.1377,-3.1377,-3.1377,-3.1377,-3.1377,-0.4973,-0.6309,-0.9004,-1.0263,-1.0377,-1.0514,-1.0588,-1.0717,-1.0585,-1.0561,-1.0721,-1.0464,-1.0412,-1.0393,-1.0508,0.0,-1.0565,-1.0693,-1.0718,-1.0717,-1.0717,-1.0717,-1.0717,-1.0717,-1.0717,-1.0724,-1.0873,-1.0812,-1.0826,-1.1518,-1.1782,-1.1632,-1.1639,-1.1752,-1.198,-1.1858,-1.1617,-1.1511,-1.1516,-1.1586,-1.1599,-1.1592,-1.1586,-1.1586,-1.1586,-1.2294,-1.3855,-1.5265,-1.6826,-1.839,-1.987,-2.0722,-2.0609,0.0,0.0,0.0,0.0,0.0,0.0,0.0,0.0,0.0,0.0,0.0,0.0,0.0,0.0,-1.8825,-2.0201,0.0,-2.1533,-2.1872,0.0,0.0,0.0,-2.195,-2.202,-2.1689,-2.1555,-2.1541,0.0,0.0,-2.1944,-2.2242,-2.2553,-2.278,-2.2911,-2.2905,-2.2846,-2.2879,-2.2846,-2.2932,-2.2875,-2.303,-2.3218,-2.3077,-2.3294,-2.4535,-2.7137,-2.8558,-2.9083,-3.016,-3.1102,-3.1377,-3.1377,-3.1377,-3.1377,-3.1377,-3.1377,-3.1377,-3.1377,-3.1377,-3.1377,-3.1377,-3.1377,-0.3895,-0.3622,-0.745,-0.9582,-1.069,-1.0677,-1.069,-1.0585,-0.9516,-0.9738,-1.0616,-0.8413,-0.7445,-0.7481,-0.8666,-0.9092,-0.915,-1.0215,-1.0656,-1.0717,-1.0717,-1.0717,-1.0717,-1.0717,-1.0717,-1.0731,-1.0873,-1.1002,-1.1111,-1.1365,-1.1643,-1.166,-1.1696,-1.1946,-1.2521,-1.2234,-1.2,-1.1927,-1.1767,-1.1608,-1.1585,-1.1335,-1.1267,-1.1274,-1.1274,-1.2021,-1.3669,-1.5208,-1.6678,-1.839,-1.9865,-2.0515,-2.0154,-1.9271,0.0,0.0,0.0,0.0,0.0,0.0,0.0,0.0,0.0,-1.8364,-1.7633,0.0,-2.0214,0.0,-2.0402,-2.0929,-2.1603,-2.1163,0.0,0.0,-2.1244,-2.1216,-2.0939,-2.0903,-2.0958,-2.1074,-2.1149,-2.1321,-2.1933,-2.1964,-2.2109,-2.2403,-2.2655,-2.2863,-2.2935,-2.2905,-2.2869,-2.2902,-2.2932,-2.2969,-2.2955,-2.2957,-2.3107,-2.3379,-2.4887,-2.6337,-2.7519,-2.8854,-3.0178,-3.112,-3.1377,-3.1377,-3.1377,-3.1377,-3.1377,-3.1377,-3.1377,-3.1377,-3.1377,-3.1377,-3.1377,-0.2957,-0.2418,-0.4827,-0.6973,-0.8873,-0.9522,-0.9377,-0.8706,-0.7902,-0.8041,-0.8706,-0.7098,-0.6431,-0.6564,-0.7769,-0.844,-0.8706,-1.0047,-1.0717,-1.0717,-1.0717,-1.0717,-1.0717,-1.0717,-1.0758,-1.0692,-1.0975,-1.098,-1.0981,-1.1275,-1.1592,-1.1643,-1.1643,-1.1869,-1.2296,-1.2003,-1.1886,-1.2059,-1.1738,-1.1481,-1.1134,-1.106,-1.1097,-1.1375,-1.1368,-1.2142,-1.3953,-1.4741,-1.6052,-1.7604,-1.9566,-2.0517,-2.0023,-1.9712,-1.9472,0.0,0.0,0.0,0.0,0.0,0.0,0.0,0.0,0.0,0.0,0.0,-2.0119,-2.0155,-2.0307,-2.0557,-2.0956,-2.0808,-2.0686,-2.0659,-2.0781,-2.0713,-2.0354,-2.0263,-2.0164,-2.0367,-2.0615,-2.0916,-2.1202,-2.1567,-2.181,-2.1859,-2.2164,-2.2462,-2.2613,-2.2804,-2.2914,-2.2928,-2.293,-2.2913,-2.3046,-2.3073,-2.339,-2.4164,-2.5315,-2.6703,-2.8161,-2.935,-3.0455,-3.1249,-3.1377,-3.1377,-3.1377,-3.1377,-3.1377,-3.1377,-3.1377,-3.1377,-3.1377,-3.1377,-3.1377,-0.2155,-0.2154,-0.215,-0.3629,-0.5923,-0.7512,-0.7503,-0.6431,-0.6164,-0.6034,-0.59,-0.603,-0.603,-0.59,-0.6965,-0.7764,-0.844,-0.9915,-1.0724,-1.0717,-1.0717,-1.0717,-1.0717,-1.0738,-1.0685,-1.0677,-1.1111,-1.1114,-1.0671,-1.1252,-1.1592,-1.1538,-1.1531,-1.1727,-1.1806,-1.1489,-1.1471,-1.1751,-1.1665,-1.1213,-1.0783,-1.0736,-1.1135,-1.1694,-1.168,-1.233,-1.3931,-1.4288,-1.5137,-1.6635,-1.8998,-2.0206,-2.0105,-2.0073,-1.9813,0.0,-1.8357,0.0,0.0,0.0,0.0,0.0,0.0,0.0,0.0,-1.8619,-1.9322,-1.9968,-2.0041,-2.0081,-2.0117,-2.0564,-2.0795,-2.0557,-2.0473,-2.0328,-1.9941,-1.9711,-1.9596,-1.9621,-2.0079,-2.0281,-2.0476,-2.117,-2.1484,-2.1346,-2.1584,-2.1795,-2.2147,-2.2545,-2.2819,-2.2859,-2.2859,-2.2802,-2.3153,-2.3372,-2.3983,-2.5432,-2.6512,-2.8003,-2.916,-3.0259,-3.112,-3.1377,-3.1377,-3.1377,-3.1377,-3.1377,-3.1377,-3.1377,-3.1377,-3.1377,-3.1377,-3.1377,-3.1377,-0.1616,-0.2154,-0.215,-0.2553,-0.3096,-0.4973,-0.5904,-0.6297,-0.5235,-0.4031,-0.3094,-0.4166,-0.4031,-0.3228,-0.4836,-0.6038,-0.6969,-0.9528,-1.0738,-1.0717,-1.0717,-1.0717,-1.0731,-1.0846,-1.0786,-1.0684,-1.108,-1.1074,-1.0671,-1.1252,-1.143,-1.1214,-1.1344,-1.1524,-1.1705,0.0,0.0,0.0,-1.1228,-1.1069,-1.0713,-1.1143,-1.1612,-1.2057,-1.1932,0.0,-1.254,-1.4163,-1.5272,-1.5854,-1.7168,0.0,0.0,0.0,0.0,0.0,0.0,0.0,0.0,0.0,0.0,0.0,-1.9114,-1.9127,-1.8621,-1.8924,-1.9261,-1.9286,-1.976,-2.0125,-2.0055,-2.0194,-2.008,-1.9878,-1.9751,-1.9649,-1.9328,-1.92,-1.9273,-1.9504,-1.982,-2.0233,-2.0576,-2.0884,-2.0943,-2.122,-2.1207,-2.1346,-2.1484,-2.2035,-2.2448,-2.2448,-2.2448,-2.2461,-2.2526,-2.3639,-2.4243,-2.4092,-2.5667,-2.7248,-2.7781,-2.8939,-3.0195,-3.112,-3.1377,-3.1377,-3.1377,-3.1377,-3.1377,-3.1377,-3.1377,-3.1377,-3.1377,-3.1377,-3.1377,-0.0825,-0.1099,-0.1098,-0.151,0.0,-0.316,-0.3844,-0.4247,-0.3517,-0.2827,-0.229,-0.2961,-0.2827,-0.2289,-0.3226,-0.4297,-0.5503,-0.7646,-0.8984,-0.9649,-0.9716,-1.0155,-1.0839,-1.0982,-1.096,-1.0889,-1.1314,-1.1389,-1.1107,-1.1328,-1.1348,-1.1186,-1.1323,-1.1305,-1.1264,-1.097,-1.0856,-1.0912,-1.0984,-1.1099,-1.1512,-1.1554,-1.1641,-1.1932,-1.1666,0.0,0.0,0.0,0.0,0.0,0.0,0.0,0.0,-1.9261,0.0,-1.9412,-1.9296,-1.9195,-1.9186,-1.9198,-1.9075,-1.8964,-1.9088,-1.9051,-1.9023,-1.9136,-1.9075,-1.9071,-1.9373,-1.9562,-1.9571,-1.9596,-1.9584,-1.9328,-1.9328,-1.9328,-1.9084,-1.9193,-1.9314,-1.947,-1.982,-2.0269,-2.0527,-2.0646,-2.0792,-2.0943,-2.0943,-2.1081,-2.1207,-2.1622,-2.2035,-2.2035,-2.2173,-2.2362,-2.2631,-2.3349,-2.4369,-2.4606,-2.6012,-2.7541,-2.8327,-2.9516,-3.0584,-3.1249,-3.1377,-3.1377,-3.1377,-3.1377,-3.1377,-3.1377,-3.1377,-3.1377,-3.1377,-3.1377,-3.1377,0.0,0.0,0.0,-0.0842,-0.2245,-0.2105,-0.2105,-0.2241,-0.2192,0.0,0.0,-0.2165,-0.2162,-0.2162,-0.2153,-0.2959,-0.4316,-0.5252,-0.6732,-0.8644,-0.8742,-0.9609,-1.0995,-1.1104,-1.1226,-1.1201,-1.1348,-1.1489,-1.1643,-1.1495,-1.1274,-1.1138,-1.1124,-1.1056,-1.0907,-1.0785,-1.0733,-1.0749,-1.0686,-1.1177,-1.1987,-1.1665,-1.1508,-1.1381,-1.1373,-1.1495,-1.1704,-1.2888,-1.3686,-1.4221,-1.5739,-1.696,-1.7942,-1.884,-1.9221,-1.9148,-1.9198,-1.9175,-1.9099,-1.9111,-1.9083,-1.906,-1.9072,-1.9103,-1.9136,-1.9079,-1.9072,-1.9072,-1.9072,-1.9072,-1.9072,-1.9072,-1.9072,-1.9072,-1.9072,-1.9072,-1.9084,-1.9301,-1.947,-1.9579,-1.9965,-2.0303,-2.0364,-2.0545,-2.0665,-2.0665,-2.0665,-2.0804,-2.1081,-2.1496,-2.1772,-2.176,-2.2035,-2.225,-2.2723,-2.3332,-2.4011,-2.4943,-2.6466,-2.7987,-2.9127,-3.0259,-3.1009,-3.1377,-3.1377,-3.1377,-3.1377,-3.1377,-3.1377,-3.1377,-3.1377,-3.1377,-3.1377,-3.1377,-3.1377,0.0,0.0,0.0,-0.0842,-0.2105,-0.1544,-0.1684,-0.2244,-0.2236,-0.2232,-0.223,-0.2204,-0.2193,-0.2192,-0.2166,-0.2978,-0.424,-0.3281,-0.4944,-0.8745,-0.8761,-0.9607,-1.1131,-1.1151,-1.1172,-1.1054,-1.1192,-1.1337,-1.1483,-1.1337,-1.1118,-1.0853,-1.0839,-1.09,-1.0765,-1.0731,-1.0704,-1.0649,-1.0649,-1.0792,-1.0962,-1.0813,-1.0834,-1.0907,-1.1441,-1.1797,-1.1872,-1.2479,-1.346,-1.4699,-1.6646,-1.795,-1.8577,-1.9137,-1.9374,-1.9206,-1.9297,-1.9346,-1.9152,-1.9139,-1.9164,-1.9072,-1.9072,-1.906,-1.9152,-1.9048,-1.9072,-1.9072,-1.9072,-1.9072,-1.9072,-1.9072,-1.9072,-1.9072,-1.9072,-1.9072,-1.9096,-1.9326,-1.9579,-1.9808,-2.0086,-2.0376,-2.0557,-2.0641,-2.0665,-2.0665,-2.0665,-2.0665,-2.0804,-2.1081,-2.1346,-2.176,-2.191,-2.2061,-2.2388,-2.3735,-2.42,-2.3379,-2.5667,-2.7366,-2.7765,-2.9053,-3.0195,-3.1249,-3.1377,-3.1377,-3.1396,-3.1377,-3.1433,-3.1451,-3.1488,-3.1451,-3.1469,-3.1469,-3.1414,0.0,0.0,0.0,-0.0425,-0.0992,-0.1126,-0.1544,-0.2105,-0.1824,-0.1824,-0.2244,-0.223,-0.2225,-0.2223,-0.221,-0.2626,-0.3194,-0.25,-0.4154,-0.7461,-0.7654,-0.8899,-1.092,-1.1124,-1.1158,-1.102,-1.1158,-1.1124,-1.1056,-1.105,-1.0968,-1.0699,-1.0826,-1.0792,-1.0724,-1.0717,-1.0717,-1.0717,-1.0713,-1.0767,-1.0767,-1.0756,-1.0714,-1.0777,-1.1048,-1.1184,-1.1313,-1.2203,-1.3088,-1.3716,-1.6055,-1.7542,-1.7828,-1.8764,-1.9218,-1.9072,-1.9181,-1.9205,-1.9084,-1.9072,-1.9072,-1.9072,-1.9072,-1.9072,-1.9072,-1.9072,-1.9072,-1.9072,-1.9072,-1.9072,-1.9072,-1.9072,-1.9072,-1.9072,-1.9072,-1.9132,-1.9289,-1.9531,-1.9796,-2.0074,-2.0327,-2.0533,-2.0653,-2.0665,-2.0665,-2.0665,-2.0665,-2.0665,-2.0665,-2.0804,-2.1081,-2.1358,-2.1634,-2.191,-2.231,-2.3119,-2.3802,-2.3938,-2.5651,-2.7254,-2.8065,-2.9526,-3.0584,-3.1249,-3.1377,-3.1469,-3.1653,-3.1708,-3.1799,-3.2019,-3.2038,-3.2038,-3.2038,-3.2038,-3.1891,0.0,0.0,0.0,0.0,0.0,-0.0564,-0.1122,-0.1684,-0.1403,-0.1544,-0.2104,-0.2238,-0.2234,-0.2234,-0.2228,-0.2229,-0.2234,-0.2236,-0.3887,-0.6336,-0.6672,-0.8193,-1.0736,-1.1084,-1.1111,-1.0967,-1.1077,-1.1002,-1.0766,-1.0759,-1.0839,-1.0731,-1.0717,-1.0717,-1.0717,-1.0717,-1.0717,-1.0717,-1.0717,-1.0717,-1.0717,-1.0717,-1.0717,-1.0717,-1.0717,-1.0717,-1.0717,-1.1769,-1.2429,-1.2947,-1.5163,-1.6581,-1.684,-1.8291,-1.9072,-1.9072,-1.9072,-1.9072,-1.9072,-1.9072,-1.9072,-1.9072,-1.9072,-1.9072,-1.9072,-1.9072,-1.9072,-1.9072,-1.9072,-1.9072,-1.9072,-1.9072,-1.9072,-1.9072,-1.9132,-1.9253,-1.9458,-1.9772,-2.005,-2.0267,-2.0509,-2.0665,-2.0665,-2.0665,-2.0665,-2.0665,-2.0665,-2.0665,-2.0665,-2.0665,-2.0804,-2.122,-2.1622,-2.1897,-2.231,-2.2722,-2.3543,-2.4738,-2.6203,-2.7567,-2.9087,-3.0597,-3.1468,-3.1671,-3.1689,-3.1818,-3.2074,-3.2129,-3.2239,-3.2459,-3.2496,-3.2551,-3.2514,-3.2533,-3.2404,0.0,0.0,0.0,0.0,0.0,0.0,0.0,-0.028,-0.0842,-0.1262,-0.1399,-0.1938,-0.2204,-0.2338,-0.2178,-0.2183,-0.2344,-0.2204,-0.3873,-0.6545,-0.67,-0.8228,-1.0973,-1.1023,-1.0968,-1.0955,-1.0839,-1.0778,-1.0758,-1.0751,-1.0731,-1.0717,-1.0717,-1.0717,-1.0717,-1.0717,-1.0717,-1.0717,-1.0717,-1.0717,-1.0717,-1.0717,-1.0717,-1.0717,-1.0717,-1.0717,-1.0717,-1.085,-1.1505,-1.2816,-1.425,-1.5544,-1.6421,-1.8139,-1.9072,-1.9072,-1.9072,-1.9072,-1.9072,-1.9072,-1.9072,-1.9072,-1.9072,-1.9072,-1.9072,-1.9072,-1.9072,-1.9072,-1.9072,-1.9072,-1.9072,-1.9072,-1.9084,-1.912,-1.9289,-1.9446,-1.9543,-1.9929,-2.0243,-2.0267,-2.0521,-2.0665,-2.0665,-2.0665,-2.0665,-2.0665,-2.0665,-2.0665,-2.0665,-2.0665,-2.0943,-2.1496,-2.176,-2.191,-2.231,-2.2585,-2.3557,-2.4752,-2.6203,-2.7814,-2.9509,-3.1007,-3.2038,-3.2203,-3.2386,-3.2404,-3.2496,-3.2551,-3.257,-3.2716,-3.2735,-3.2643,-3.2606,-3.268,-3.2606,0.0,0.0,0.0,0.0,0.0,0.0,0.0,0.0,-0.0274,-0.0548,-0.0547,-0.0817,-0.137,-0.2225,-0.2214,-0.2907,-0.3892,-0.4447,-0.5819,-0.7731,-0.7864,-0.8927,-1.0759,-1.0846,-1.0812,-1.0812,-1.0751,-1.0717,-1.0717,-1.0717,-1.0717,-1.0717,-1.0717,-1.0717,-1.0717,-1.0717,-1.0717,-1.0717,-1.0717,-1.0717,-1.0717,-1.0717,-1.0717,-1.0717,-1.0717,-1.0717,-1.0717,-1.0717,-1.138,-1.2684,-1.4128,-1.5284,-1.6281,-1.8139,-1.9072,-1.9072,-1.9072,-1.9072,-1.9072,-1.9072,-1.9072,-1.9072,-1.9072,-1.9072,-1.9072,-1.9072,-1.9072,-1.9072,-1.9072,-1.9072,-1.9072,-1.9072,-1.9132,-1.9277,-1.941,-1.9591,-1.9917,-2.0134,-2.0327,-2.0484,-2.0605,-2.0665,-2.0665,-2.0665,-2.0665,-2.0665,-2.0665,-2.0665,-2.0665,-2.0665,-2.0943,-2.1358,-2.1622,-2.2035,-2.2448,-2.2722,-2.3612,-2.4955,-2.6494,-2.8105,-2.9901,-3.1381,-3.2423,-3.2606,-3.2643,-3.2771,-3.2936,-3.2973,-3.301,-3.3138,-3.3303,-3.3321,-3.3321,-3.3321,-3.3321,0.0,0.0,0.0,0.0,0.0,0.0,0.0,0.0,0.0,0.0,0.0,0.0,-0.0544,-0.1523,-0.2082,-0.3328,-0.5128,-0.6794,-0.7991,-0.8574,-0.8569,-0.9338,-1.0591,-1.0717,-1.0717,-1.0717,-1.0717,-1.0717,-1.0717,-1.0717,-1.0717,-1.0717,-1.0717,-1.0717,-1.0717,-1.0717,-1.0717,-1.0717,-1.0717,-1.0717,-1.0717,-1.0717,-1.0717,-1.0717,-1.0717,-1.0717,-1.0717,-1.0717,-1.1372,-1.2816,-1.4128,-1.5144,-1.5873,-1.7999,-1.9072,-1.9072,-1.9072,-1.9072,-1.9072,-1.9072,-1.9072,-1.9072,-1.9072,-1.9072,-1.9072,-1.9072,-1.9072,-1.9072,-1.9145,-1.9181,-1.9084,-1.9145,-1.9265,-1.9446,-1.9567,-1.9869,-2.0207,-2.0327,-2.046,-2.0629,-2.0653,-2.0665,-2.0665,-2.0665,-2.0665,-2.0665,-2.0665,-2.0665,-2.0665,-2.0665,-2.0828,-2.1445,-2.1748,-2.2164,-2.2704,-2.3006,-2.3791,-2.5628,-2.7258,-2.8598,-3.0446,-3.2196,-3.2881,-3.3083,-3.2955,-3.2991,-3.3285,-3.3413,-3.3413,-3.3688,-3.3798,-3.3762,-3.3707,-3.3798,-3.3798,0.0,0.0,0.0,0.0,0.0,0.0,0.0,0.0,0.0,0.0,0.0,0.0,0.0,-0.027,-0.1488,-0.3238,-0.5258,-0.8671,-0.9612,-0.8734,-0.8723,-0.9383,-1.0717,-1.0717,-1.0717,-1.0717,-1.0717,-1.0717,-1.0717,-1.0717,-1.0717,-1.0717,-1.0717,-1.0717,-1.0717,-1.0717,-1.0717,-1.0717,-1.0717,-1.0717,-1.0717,-1.0717,-1.0717,-1.0717,-1.0717,-1.0717,-1.0717,-1.0717,-1.1372,-1.2684,-1.4128,-1.5005,-1.5316,-1.772,-1.9096,-1.9108,-1.9096,-1.9096,-1.9096,-1.9096,-1.9084,-1.9072,-1.9096,-1.9084,-1.9108,-1.9145,-1.9157,-1.9096,-1.9338,-1.9362,-1.9193,-1.9338,-1.947,-1.9543,-1.9941,-2.0195,-2.0279,-2.0496,-2.0629,-2.0665,-2.0665,-2.0665,-2.0665,-2.0665,-2.0665,-2.0665,-2.0665,-2.0665,-2.0678,-2.0665,-2.1065,-2.1785,-2.2141,-2.2307,-2.2728,-2.3147,-2.4651,-2.6523,-2.7771,-2.911,-3.144,-3.323,-3.3413,-3.356,-3.3541,-3.3596,-3.3725,-3.3762,-3.3743,-3.3817,-3.3817,-3.3817,-3.3817,-3.3817,-3.3817,0.0,0.0,0.0,0.0,0.0,0.0,0.0,0.0,0.0,0.0,0.0,0.0,0.0,-0.0,-0.0539,-0.215,-0.483,-0.8354,-0.9831,-0.9655,-0.9649,-1.0054,-1.0585,-1.0717,-1.0717,-1.0717,-1.0717,-1.0717,-1.0717,-1.0717,-1.0717,-1.0717,-1.0459,-1.0452,-1.0591,-1.0459,-1.0459,-1.0717,-1.0717,-1.0717,-1.0717,-1.0717,-1.0717,-1.0717,-1.0717,-1.0717,-1.0717,-1.0717,-1.1372,-1.2816,-1.4119,-1.5704,-1.7422,-1.8865,-1.9553,-1.9567,-1.9591,-1.9519,-1.935,-1.9326,-1.9241,-1.9108,-1.9241,-1.9326,-1.9362,-1.9483,-1.9591,-1.9615,-1.9664,-1.9676,-1.9639,-1.9688,-1.9808,-1.9977,-2.0158,-2.0352,-2.0496,-2.0617,-2.0665,-2.0665,-2.0665,-2.0665,-2.0665,-2.0665,-2.0665,-2.0665,-2.0665,-2.0678,-2.0702,-2.0798,-2.1249,-2.2051,-2.2345,-2.2808,-2.3588,-2.3559,-2.4382,-2.6261,-2.7975,-2.9535,-3.1444,-3.311,-3.355,-3.367,-3.3798,-3.3817,-3.3798,-3.3798,-3.3817,-3.3817,-3.3817,-3.3817,-3.3817,-3.3817,-3.3817,0.0,0.0,0.0,0.0,0.0,0.0,0.0,0.0,0.0,0.0,0.0,0.0,0.0,0.0,0.0,-0.1612,-0.4426,-0.7799,-0.9552,-1.006,-1.006,-1.0193,-1.0326,-1.0452,-1.0585,-1.0585,-1.0585,-1.0717,-1.0717,-1.0717,-1.0591,-1.0459,-1.0326,-1.0193,-1.0326,-1.0193,-1.0326,-1.0591,-1.0717,-1.0717,-1.0717,-1.0717,-1.0717,-1.0717,-1.0717,-1.0717,-1.0717,-1.0717,-1.1401,-1.2757,-1.3822,-1.558,-1.8222,-1.9567,-2.0121,-1.9869,-1.9881,-1.9808,-1.9639,-1.9603,-1.9531,-1.9362,-1.9495,-1.9603,-1.9615,-1.9772,-1.9869,-1.9893,-1.9977,-2.0014,-2.0038,-2.0086,-2.0183,-2.0291,-2.0352,-2.046,-2.0641,-2.0665,-2.0665,-2.0665,-2.0665,-2.0665,-2.0665,-2.0665,-2.0665,-2.0665,-2.0726,-2.0798,-2.0822,-2.1157,-2.166,-2.2304,-2.278,-2.3287,-2.3918,-2.4155,-2.5341,-2.7214,-2.8664,-3.0128,-3.1371,-3.291,-3.3678,-3.3817,-3.3817,-3.3817,-3.3817,-3.3817,-3.3817,-3.3817,-3.3817,-3.3817,-3.3817,-3.3817,-3.3817,0.0,0.0,0.0,0.0,0.0,0.0,0.0,0.0,0.0,0.0,0.0,0.0,0.0,0.0,0.0,-0.1612,-0.4833,-0.7531,-0.9012,-0.9661,-0.9661,-0.9661,-0.9794,-1.006,-1.0193,-1.0326,-1.0591,-1.0717,-1.0717,-1.0585,-1.0452,-1.0319,-1.0193,-0.9927,-0.98,-1.006,-1.0326,-1.0598,-1.0724,-1.0724,-1.0717,-1.0717,-1.0717,-1.0717,-1.0717,-1.0724,-1.0731,-1.0731,-1.1326,-1.2633,-1.3068,-1.4495,-1.7502,-1.9492,-2.0488,-2.0087,-1.9929,-1.9917,-1.9893,-1.9893,-1.9881,-1.9808,-1.9869,-1.9893,-1.9893,-1.9941,-1.9965,-2.0014,-2.0146,-2.0279,-2.0315,-2.046,-2.0521,-2.0364,-2.0496,-2.0629,-2.0653,-2.0665,-2.0665,-2.0665,-2.0665,-2.0665,-2.0665,-2.0665,-2.0678,-2.075,-2.0883,-2.1028,-2.1217,-2.1579,-2.2269,-2.2904,-2.3297,-2.3705,-2.4182,-2.477,-2.6605,-2.831,-2.9693,-3.1034,-3.2018,-3.3381,-3.3678,-3.3817,-3.3817,-3.3817,-3.3817,-3.3817,-3.3817,-3.3817,-3.3817,-3.3817,-3.3817,-3.3817,-3.3817,0.0,0.0,0.0,0.0,0.0,0.0,0.0,0.0,0.0,0.0,0.0,0.0,0.0,0.0,0.0,-0.2689,-0.713,-0.8215,-0.8879,-0.9256,-0.9256,-0.9389,-0.9661,-0.9794,-0.9927,-1.0193,-1.0598,-1.0731,-1.0591,-1.0187,-1.0054,-1.0054,-0.9655,-0.9522,-0.9661,-0.9522,-0.9655,-1.0199,-1.0598,-1.0731,-1.0731,-1.0724,-1.0717,-1.0717,-1.0717,-1.0765,-1.0873,-1.0873,-1.1028,-1.1625,-1.2655,-1.4556,-1.7476,-1.9616,-2.0539,-2.0537,-2.0424,-2.0327,-2.0183,-2.0146,-2.0074,-1.9977,-2.005,-2.0146,-2.0183,-2.0315,-2.04,-2.0412,-2.0496,-2.0545,-2.0569,-2.0605,-2.0617,-2.0545,-2.0617,-2.0665,-2.0665,-2.0665,-2.0665,-2.0665,-2.0665,-2.0665,-2.0665,-2.0678,-2.075,-2.0895,-2.1028,-2.1136,-2.1485,-2.2005,-2.2456,-2.2873,-2.3465,-2.4035,-2.4422,-2.4918,-2.621,-2.778,-2.9361,-3.1067,-3.2228,-3.3381,-3.3678,-3.3817,-3.3817,-3.3817,-3.3817,-3.3817,-3.3817,-3.3817,-3.3817,-3.3817,-3.3817,-3.3817,-3.3817,0.0,0.0,0.0,0.0,0.0,0.0,0.0,0.0,0.0,0.0,0.0,0.0,0.0,0.0,0.0,0.0,-0.6862,-0.8076,-0.8745,-0.8856,-0.8851,-0.9123,-0.9256,-0.9528,-0.9661,-1.006,-1.0199,-1.0332,-1.0459,-0.9921,-0.9655,-0.9788,-0.9383,-0.9123,-0.9256,-0.925,-0.9389,-0.9794,-1.0199,-1.0459,-1.0598,-1.0724,-1.0717,-1.0724,-1.0772,-1.0853,-1.0948,-1.105,-1.1111,-1.1262,-1.2168,-1.4363,-1.7728,-1.9737,-2.0658,-2.0629,-2.0653,-2.0581,-2.0436,-2.0412,-2.0364,-2.0243,-2.0327,-2.0424,-2.0448,-2.0605,-2.0665,-2.0665,-2.0665,-2.0665,-2.0665,-2.0665,-2.0665,-2.0665,-2.0665,-2.0665,-2.0665,-2.0665,-2.0665,-2.0665,-2.0665,-2.0665,-2.0665,-2.0786,-2.0859,-2.104,-2.1233,-2.139,-2.1776,-2.2288,-2.2827,-2.3197,-2.3741,-2.4275,-2.4609,-2.5212,-2.5786,-2.7215,-2.8644,-3.0217,-3.1789,-3.3085,-3.3817,-3.3817,-3.3817,-3.3817,-3.3817,-3.3817,-3.3817,-3.3817,-3.3817,-3.3817,-3.3817,-3.3817,-3.3817,0.0,0.0,0.0,0.0,0.0,0.0,0.0,0.0,0.0,0.0,0.0,0.0,0.0,0.0,0.0,-0.1746,-0.4428,-0.7397,-0.8606,-0.859,-0.859,-0.8723,-0.8723,-0.9123,-0.9389,-0.9661,-0.9661,-0.9794,-1.0066,-0.9522,-0.9256,-0.9389,-0.9117,-0.8984,-0.8851,-0.8984,-0.925,-0.9528,-0.9655,-1.0054,-1.0591,-1.0724,-1.0738,-1.0744,-1.0867,-1.0955,-1.1043,-1.1246,-1.1389,-1.1402,-1.1966,-1.4271,-1.7648,-1.982,-2.0653,-2.0665,-2.0665,-2.0665,-2.0653,-2.0617,-2.0617,-2.0593,-2.0605,-2.0665,-2.0641,-2.0641,-2.0665,-2.0665,-2.0665,-2.0665,-2.0665,-2.0665,-2.0665,-2.0665,-2.0665,-2.0665,-2.0665,-2.0665,-2.0665,-2.0665,-2.0665,-2.0678,-2.0714,-2.0907,-2.104,-2.1233,-2.1547,-2.174,-2.2056,-2.2497,-2.3239,-2.3587,-2.4018,-2.4314,-2.4636,-2.4784,-2.5359,-2.621,-2.778,-2.979,-3.1367,-3.2666,-3.3817,-3.3817,-3.3817,-3.3817,-3.3817,-3.3817,-3.3817,-3.3817,-3.3817,-3.3817,-3.3817,-3.3835,-3.3853,0.0,0.0,0.0,0.0,0.0,0.0,0.0,0.0,0.0,0.0,0.0,0.0,0.0,0.0,0.0,-0.1613,-0.4565,-0.7263,-0.8611,-0.859,-0.859,-0.859,-0.859,-0.8723,-0.8989,-0.925,-0.9117,-0.9256,-0.9933,-0.925,-0.8984,-0.9256,-0.8989,-0.8717,-0.8584,-0.8717,-0.8717,-0.8989,-0.9389,-0.9794,-1.006,-1.0465,-1.0792,-1.0894,-1.0934,-1.1063,-1.1253,-1.1457,-1.1558,-1.1701,-1.3815,-1.537,-1.6977,-1.9251,-2.0665,-2.0665,-2.0665,-2.0665,-2.0665,-2.0665,-2.0665,-2.0665,-2.0665,-2.0665,-2.0665,-2.0665,-2.0665,-2.0665,-2.0665,-2.0665,-2.0665,-2.0665,-2.0665,-2.0665,-2.0665,-2.0665,-2.0665,-2.0665,-2.0665,-2.0665,-2.0678,-2.0762,-2.0919,-2.1052,-2.1233,-2.1547,-2.1776,-2.1957,-2.2238,-2.2608,-2.3154,-2.3451,-2.3735,-2.4179,-2.4488,-2.4636,-2.4918,-2.5359,-2.6925,-2.9345,-3.0785,-3.2228,-3.3242,-3.3817,-3.3817,-3.3817,-3.3817,-3.3817,-3.3817,-3.3908,-3.3945,-3.4,-3.389,-3.3853,-3.3908,0.0,0.0,0.0,0.0,0.0,0.0,0.0,0.0,0.0,0.0,0.0,0.0,0.0,0.0,0.0,0.0,-0.6053,-0.7813,-0.8483,-0.86,-0.859,-0.859,-0.859,-0.859,-0.8717,-0.8851,-0.8717,-0.8851,-0.9262,-0.8851,-0.8851,-0.8851,-0.8717,-0.859,-0.859,-0.859,-0.8723,-0.8856,-0.925,-0.9522,-1.0066,-1.0472,-1.0812,-1.0934,-1.1009,-1.1179,-1.145,-1.1572,-1.2043,-1.3159,-1.4098,-1.5352,-1.7959,-1.9669,-2.0665,-2.0665,-2.0665,-2.0665,-2.0665,-2.0665,-2.0665,-2.0665,-2.0665,-2.0665,-2.0665,-2.0665,-2.0665,-2.0665,-2.0665,-2.0665,-2.0665,-2.0665,-2.0665,-2.0665,-2.0665,-2.0665,-2.0665,-2.0665,-2.0726,-2.0786,-2.0847,-2.0931,-2.1197,-2.1317,-2.1535,-2.1788,-2.1957,-2.2102,-2.236,-2.2694,-2.3154,-2.3451,-2.3883,-2.4341,-2.4488,-2.4636,-2.5492,-2.5932,-2.742,-2.9552,-3.1277,-3.2561,-3.3121,-3.3853,-3.3835,-3.3853,-3.3908,-3.3982,-3.4092,-3.4165,-3.4202,-3.4275,-3.4257,-3.4147,-3.4165,0.0,0.0,0.0,0.0,0.0,0.0,0.0,0.0,0.0,0.0,0.0,0.0,0.0,0.0,0.0,-0.2827,-0.7833,-0.7545,-0.821,-0.8467,-0.8595,-0.859,-0.859,-0.859,-0.859,-0.8584,-0.8584,-0.859,-0.8723,-0.859,-0.859,-0.8723,-0.859,-0.859,-0.859,-0.859,-0.8856,-0.8989,-0.8851,-0.925,-1.0073,-1.0498,-1.0725,-1.0859,-1.1179,-1.1341,-1.1531,-1.1756,-1.2753,-1.599,-1.3459,-1.5307,-1.9657,-2.0388,-2.0665,-2.0665,-2.0665,-2.0665,-2.0665,-2.0665,-2.0665,-2.0665,-2.0665,-2.0665,-2.0665,-2.0665,-2.0665,-2.0665,-2.0665,-2.0665,-2.0665,-2.0665,-2.0665,-2.0665,-2.0665,-2.0678,-2.0702,-2.0714,-2.081,-2.1028,-2.1064,-2.1233,-2.1474,-2.1704,-2.1873,-2.1957,-2.2102,-2.2174,-2.2396,-2.2707,-2.3154,-2.3438,-2.3883,-2.4488,-2.4488,-2.4636,-2.5786,-2.6794,-2.8785,-3.0684,-3.2562,-3.3563,-3.3648,-3.3945,-3.4165,-3.422,-3.4183,-3.4275,-3.4422,-3.4513,-3.4587,-3.4788,-3.4935,-3.4733,-3.4678,0.0,0.0,0.0,0.0,0.0,0.0,0.0,0.0,0.0,0.0,0.0,0.0,0.0,0.0,0.0,-0.2019,-0.5117,-0.5647,-0.6309,-0.859,-0.859,-0.859,-0.859,-0.859,-0.859,-0.859,-0.859,-0.859,-0.859,-0.859,-0.859,-0.859,-0.859,-0.859,-0.859,-0.859,-0.859,-0.8723,-0.8584,-0.8717,-0.9285,-1.0175,-1.0697,-1.0849,-1.1228,-1.1525,-1.1592,-1.1619,-1.3031,-1.5141,-1.5671,-1.6225,-1.8809,-2.0249,-2.0665,-2.0665,-2.0665,-2.0665,-2.0665,-2.0665,-2.0665,-2.0665,-2.0665,-2.0665,-2.0665,-2.0665,-2.0665,-2.0665,-2.0665,-2.0665,-2.0665,-2.0665,-2.0665,-2.0665,-2.069,-2.0762,-2.0919,-2.0967,-2.0991,-2.11,-2.1281,-2.1486,-2.174,-2.1812,-2.1969,-2.2126,-2.2198,-2.2259,-2.2558,-2.2707,-2.3005,-2.329,-2.3735,-2.4341,-2.4649,-2.4972,-2.6192,-2.7408,-2.9246,-3.122,-3.2967,-3.4066,-3.3943,-3.4193,-3.4623,-3.4605,-3.4513,-3.4715,-3.4899,-3.4954,-3.5009,-3.5155,-3.5247,-3.5155,-3.5192,0.0,0.0,0.0,0.0,0.0,0.0,0.0,0.0,0.0,0.0,0.0,0.0,0.0,0.0,0.0,-0.0942,-0.269,-0.5248,-0.7134,-0.8472,-0.86,-0.86,-0.8595,-0.859,-0.859,-0.859,-0.859,-0.859,-0.859,-0.859,-0.859,-0.859,-0.859,-0.859,-0.859,-0.859,-0.859,-0.859,-0.859,-0.8739,-0.9215,-0.9955,-1.0796,-1.0981,-1.1348,-1.1619,-1.1619,-1.1619,-1.3167,-1.5283,-1.6131,-1.7117,-1.9111,-2.0237,-2.0665,-2.0665,-2.0665,-2.0665,-2.0665,-2.0665,-2.0665,-2.0665,-2.0665,-2.0665,-2.0665,-2.0665,-2.0665,-2.0665,-2.0665,-2.0665,-2.0665,-2.0665,-2.0665,-2.069,-2.0786,-2.0907,-2.1028,-2.1064,-2.1197,-2.1366,-2.1583,-2.1788,-2.1945,-2.1993,-2.2054,-2.2211,-2.2223,-2.2271,-2.2408,-2.2707,-2.3005,-2.3302,-2.3735,-2.4193,-2.4663,-2.5469,-2.6643,-2.7777,-2.9105,-3.0956,-3.2636,-3.348,-3.3892,-3.4379,-3.4954,-3.4917,-3.488,-3.5119,-3.532,-3.5357,-3.543,-3.5504,-3.5595,-3.5669,-3.5705,0.0,0.0,0.0,0.0,0.0,0.0,0.0,0.0,0.0,0.0,0.0,0.0,0.0,0.0,0.0,0.0,0.0,-0.4039,-0.6329,-0.7397,-0.7799,-0.8205,-0.8472,-0.8595,-0.859,-0.859,-0.859,-0.859,-0.859,-0.859,-0.859,-0.859,-0.859,-0.859,-0.859,-0.859,-0.859,-0.859,-0.859,-0.8778,-0.929,-0.9887,-1.0455,-1.1114,-1.1389,-1.1613,-1.1756,-1.2043,-1.3317,-1.5849,-1.6122,-1.7819,-1.9808,-2.0665,-2.0665,-2.0665,-2.0665,-2.0665,-2.0665,-2.0665,-2.0665,-2.0665,-2.0665,-2.0665,-2.0665,-2.0665,-2.0665,-2.0665,-2.0665,-2.0665,-2.0665,-2.0665,-2.069,-2.0762,-2.0943,-2.1076,-2.1172,-2.1185,-2.1438,-2.1716,-2.186,-2.2017,-2.2126,-2.2198,-2.2235,-2.2271,-2.2271,-2.2271,-2.2408,-2.2558,-2.3005,-2.3302,-2.3748,-2.4311,-2.481,-2.5175,-2.6475,-2.7598,-2.8805,-3.0415,-3.2171,-3.3258,-3.3951,-3.4812,-3.521,-3.5247,-3.5339,-3.5559,-3.5705,-3.576,-3.5815,-3.587,-3.6017,-3.6182,-3.6146,0.0,0.0,0.0,0.0,0.0,0.0,0.0,0.0,0.0,0.0,0.0,0.0,0.0,0.0,0.0,0.0,0.0,0.0,-0.3226,-0.4967,-0.5908,-0.6853,-0.8478,-0.8595,-0.859,-0.859,-0.859,-0.859,-0.859,-0.859,-0.859,-0.859,-0.859,-0.859,-0.859,-0.859,-0.859,-0.8595,-0.8606,-0.8671,-0.8927,-0.9469,-1.0156,-1.096,-1.1312,-1.1613,-1.19,-1.2896,-1.4307,-1.5839,-1.6065,-1.7778,-1.9947,-2.0678,-2.0665,-2.0665,-2.0665,-2.0665,-2.0665,-2.0665,-2.0665,-2.0665,-2.0665,-2.0665,-2.0665,-2.0665,-2.0665,-2.0665,-2.0665,-2.0665,-2.0665,-2.069,-2.0798,-2.0931,-2.1088,-2.1269,-2.1571,-2.1704,-2.1716,-2.1909,-2.2066,-2.2174,-2.2235,-2.2271,-2.2271,-2.2271,-2.2271,-2.2271,-2.2408,-2.2558,-2.2856,-2.3154,-2.36,-2.4214,-2.4983,-2.5214,-2.5923,-2.7107,-2.8354,-2.9729,-3.1394,-3.301,-3.411,-3.4622,-3.5394,-3.5834,-3.5944,-3.5999,-3.6017,-3.5999,-3.6091,-3.6201,-3.6201,-3.6201,-3.6201,0.0,0.0,0.0,0.0,0.0,0.0,0.0,0.0,0.0,0.0,0.0,0.0,0.0,0.0,0.0,0.0,0.0,0.0,0.0,-0.2284,-0.4026,-0.6313,-0.8344,-0.8595,-0.859,-0.859,-0.859,-0.859,-0.859,-0.859,-0.859,-0.859,-0.859,-0.859,-0.859,-0.859,-0.859,-0.86,-0.8655,-0.8638,-0.867,-0.9394,-1.0269,-1.0862,-1.1332,-1.1619,-1.1763,-1.2187,-1.346,-1.4716,-1.5671,-1.7819,-1.9703,-2.0702,-2.0665,-2.0665,-2.0665,-2.0665,-2.0665,-2.0665,-2.0665,-2.0665,-2.0665,-2.0665,-2.0665,-2.0665,-2.0665,-2.0665,-2.0665,-2.0665,-2.0665,-2.0786,-2.0931,-2.1076,-2.1281,-2.1571,-2.1812,-2.1969,-2.2029,-2.2042,-2.215,-2.2235,-2.2247,-2.2271,-2.2271,-2.2271,-2.2271,-2.2271,-2.2271,-2.242,-2.2719,-2.308,-2.3565,-2.4194,-2.4869,-2.5192,-2.5298,-2.6307,-2.7409,-2.8951,-3.0283,-3.1662,-3.3062,-3.4162,-3.505,-3.5885,-3.6182,-3.6109,-3.6164,-3.6201,-3.6201,-3.6201,-3.6201,-3.6201,-3.6201,0.0,0.0,0.0,0.0,0.0,0.0,0.0,0.0,0.0,0.0,0.0,0.0,0.0,0.0,0.0,0.0,0.0,0.0,0.0,-0.269,-0.3627,-0.5912,-0.7937,-0.86,-0.859,-0.859,-0.859,-0.859,-0.859,-0.859,-0.859,-0.859,-0.859,-0.859,-0.859,-0.8622,-0.8617,-0.8693,-0.8644,-0.8676,-0.9018,-0.9908,-1.0572,-1.0913,-1.1332,-1.1619,-1.1619,-1.2187,-1.2896,-1.4156,-1.5416,-1.7559,-2.0075,-2.0738,-2.0678,-2.0665,-2.0665,-2.0665,-2.0665,-2.0665,-2.0665,-2.0665,-2.0665,-2.0665,-2.0665,-2.0665,-2.0665,-2.0665,-2.0665,-2.0714,-2.0786,-2.0931,-2.1112,-2.1317,-2.1607,-2.1897,-2.1993,-2.2102,-2.2186,-2.2223,-2.2271,-2.2271,-2.2271,-2.2271,-2.2271,-2.2271,-2.2271,-2.2271,-2.2271,-2.2271,-2.2594,-2.3005,-2.3568,-2.406,-2.4596,-2.5048,-2.5192,-2.5531,-2.6432,-2.7479,-2.8769,-3.0053,-3.1574,-3.323,-3.4469,-3.5139,-3.5736,-3.6201,-3.6201,-3.6201,-3.6201,-3.6201,-3.6201,-3.6201,-3.6201,0.0,0.0,0.0,0.0,0.0,0.0,0.0,0.0,0.0,0.0,0.0,0.0,0.0,0.0,0.0,0.0,0.0,0.0,0.0,-0.4714,-0.5108,-0.618,-0.821,-0.86,-0.859,-0.859,-0.859,-0.859,-0.859,-0.859,-0.859,-0.859,-0.859,-0.8595,-0.8622,-0.8704,-0.8802,-0.8767,-0.8739,-0.8865,-0.9402,-1.0041,-1.0486,-1.0756,-1.1181,-1.1619,-1.1763,-1.2466,-1.3317,-1.3737,-1.522,-1.7518,-2.0064,-2.0726,-2.0678,-2.0665,-2.0665,-2.0665,-2.0665,-2.0665,-2.0665,-2.0665,-2.0665,-2.0665,-2.0665,-2.0678,-2.0678,-2.0665,-2.069,-2.081,-2.0979,-2.1064,-2.1317,-2.1559,-2.1812,-2.2017,-2.2138,-2.2162,-2.2247,-2.2271,-2.2271,-2.2271,-2.2271,-2.2271,-2.2271,-2.2271,-2.2271,-2.2271,-2.2271,-2.2271,-2.2505,-2.3091,-2.3429,-2.3922,-2.4341,-2.4933,-2.5113,-2.5161,-2.5687,-2.6373,-2.7449,-2.8997,-3.0685,-3.2217,-3.3449,-3.4672,-3.5288,-3.5736,-3.6052,-3.6201,-3.6201,-3.6201,-3.6201,-3.6201,-3.6201,0.0808,0.0,0.0,0.0,0.0,0.0,0.0,0.0,0.0,0.0,0.0,0.0,0.0,0.0,0.0,0.0,0.0,0.0,0.0,-0.458,-0.5651,-0.7263,-0.8344,-0.86,-0.859,-0.859,-0.859,-0.859,-0.859,-0.859,-0.859,-0.859,-0.8595,-0.8633,-0.8709,-0.8818,-0.8932,-0.8927,-0.9072,-0.9168,-0.9474,-0.9792,-1.0088,-1.0462,-1.1038,-1.1332,-1.1763,-1.2043,-1.261,-1.2731,-1.335,-1.5035,-1.784,-1.9564,-2.0665,-2.0665,-2.0665,-2.0665,-2.0665,-2.0665,-2.0665,-2.0665,-2.0665,-2.0665,-2.0665,-2.069,-2.0914,-2.1187,-2.1035,-2.1028,-2.1269,-2.1438,-2.1607,-2.1824,-2.1993,-2.2102,-2.2211,-2.2235,-2.2271,-2.2271,-2.2271,-2.2271,-2.2271,-2.2271,-2.2271,-2.2271,-2.2271,-2.2271,-2.2271,-2.2271,-2.2704,-2.3052,-2.3414,-2.3791,-2.4221,-2.4667,-2.4768,-2.492,-2.5079,-2.5753,-2.6517,-2.7905,-2.9449,-3.1146,-3.2522,-3.36,-3.4672,-3.5587,-3.6052,-3.6201,-3.6201,-3.6201,-3.6201,-3.6201,-3.6201,0.1616,0.0539,0.0135,0.0,0.0,0.0,0.0,0.0,0.0,0.0,0.0,0.0,0.0,0.0,0.0,0.0,0.0,0.0,0.0,-0.2554,-0.4973,-0.7531,-0.8339,-0.8595,-0.859,-0.859,-0.859,-0.8611,-0.8638,-0.8638,-0.8644,-0.8638,-0.8698,-0.8764,-0.8878,-0.903,-0.9177,-0.9302,-0.9405,-0.9421,-0.9383,-0.9389,-0.9797,-1.0191,-1.075,-1.1188,-1.1332,-1.1619,-1.1619,-1.1736,-1.1775,-1.3451,-1.6244,-1.9111,-2.0527,-2.0665,-2.0665,-2.0665,-2.0665,-2.0665,-2.0665,-2.0665,-2.0665,-2.0665,-2.0678,-2.0714,-2.0962,-2.1334,-2.129,-2.1293,-2.1523,-2.1752,-2.186,-2.1981,-2.2126,-2.2211,-2.2271,-2.2271,-2.2271,-2.2271,-2.2271,-2.2271,-2.2271,-2.2271,-2.2271,-2.2271,-2.2271,-2.2271,-2.2283,-2.2295,-2.2676,-2.3199,-2.3316,-2.3704,-2.3975,-2.4356,-2.4467,-2.4652,-2.4811,-2.513,-2.574,-2.6517,-2.7748,-2.9449,-3.1146,-3.2065,-3.2826,-3.4521,-3.6201,-3.6201,-3.6201,-3.6201,-3.6201,-3.6201,-3.6201,0.2155,0.1885,0.0539,0.0,0.0,0.0,0.0,0.0,0.0,0.0,0.0,0.0,0.0,0.0,0.0,0.0,0.0,0.0,0.0,-0.3358,-0.4696,-0.6715,-0.7927,-0.86,-0.8606,-0.8606,-0.8638,-0.8693,-0.8601,-0.8791,-0.8774,-0.8905,-0.8872,-0.8992,-0.9128,-0.9291,-0.9416,-0.9497,-0.9667,-0.947,-0.941,-0.9372,-0.9596,-1.0029,-1.0606,-1.1044,-1.1044,-1.1332,-1.1619,-1.1613,-1.1633,-1.302,-1.5953,-1.896,-2.0527,-2.0665,-2.0665,-2.0665,-2.0665,-2.0665,-2.0665,-2.0665,-2.069,-2.0726,-2.0738,-2.0931,-2.1193,-2.1469,-2.1509,-2.1571,-2.1752,-2.1885,-2.2017,-2.2114,-2.2211,-2.2235,-2.2271,-2.2271,-2.2271,-2.2271,-2.2271,-2.2271,-2.2271,-2.2271,-2.2271,-2.2271,-2.2271,-2.2271,-2.2343,-2.2404,-2.2681,-2.3089,-2.3212,-2.3466,-2.3719,-2.4,-2.4172,-2.4172,-2.4332,-2.4492,-2.4811,-2.5581,-2.636,-2.7591,-2.9138,-3.0068,-3.1146,-3.3129,-3.4672,-3.5736,-3.6052,-3.5736,-3.6052,-3.6201,-3.6201,0.2155,0.2155,0.1616,0.0808,0.0,0.0,0.0,0.0,0.0,0.0,0.0,0.0,0.0,0.0,0.0,0.0,0.0,0.0,0.0,-0.5655,-0.7268,-0.767,-0.8622,-0.8666,-0.8704,-0.872,-0.8769,-0.8735,-0.8563,-0.8847,-0.9111,-0.9297,-0.9122,-0.9198,-0.9345,-0.9481,-0.9557,-0.9689,-0.9661,-0.9606,-0.9367,-0.934,-0.9446,-0.9879,-1.0023,-1.0606,-1.09,-1.1188,-1.1332,-1.1586,-1.1626,-1.3483,-1.5953,-1.9089,-2.0527,-2.069,-2.069,-2.0702,-2.0702,-2.069,-2.0665,-2.0714,-2.0798,-2.0907,-2.0766,-2.1148,-2.1545,-2.1848,-2.1801,-2.1836,-2.2054,-2.2114,-2.2174,-2.2235,-2.2271,-2.2271,-2.2271,-2.2271,-2.2271,-2.2271,-2.2271,-2.2271,-2.2271,-2.2271,-2.2271,-2.2271,-2.2271,-2.2283,-2.2355,-2.2512,-2.2778,-2.3043,-2.3321,-2.355,-2.3792,-2.384,-2.384,-2.384,-2.4,-2.4172,-2.4332,-2.4492,-2.5422,-2.636,-2.7278,-2.8359,-2.9898,-3.1606,-3.2977,-3.3751,-3.4521,-3.5139,-3.5438,-3.5903,-3.6052,0.2155,0.2155,0.2155,0.1346,0.0,0.0,0.0,0.0,0.0,0.0,0.0,0.0,0.0,0.0,0.0,0.0,0.0,0.0,0.0,-0.5665,-0.7713,-0.8531,-0.8704,-0.8764,-0.8851,-0.8883,-0.8959,-0.8922,-0.8796,-0.9093,-0.934,-0.9557,-0.94,-0.9438,-0.9492,-0.9574,-0.9722,-0.9656,-0.9584,-0.9551,-0.9307,-0.9302,-0.9302,-0.9735,-0.9879,-1.0167,-1.075,-1.1044,-1.1188,-1.1729,-1.2386,-1.3766,-1.6225,-1.8552,-2.0423,-2.0762,-2.0798,-2.081,-2.0871,-2.0822,-2.0834,-2.0979,-2.1088,-2.116,-2.109,-2.1426,-2.1813,-2.2117,-2.208,-2.2066,-2.2271,-2.2235,-2.2223,-2.2271,-2.2271,-2.2271,-2.2271,-2.2271,-2.2271,-2.2271,-2.2271,-2.2271,-2.2271,-2.2271,-2.2271,-2.2271,-2.2271,-2.2283,-2.2331,-2.2536,-2.285,-2.3116,-2.3381,-2.3599,-2.3804,-2.3828,-2.384,-2.384,-2.384,-2.4,-2.4172,-2.4332,-2.4492,-2.5263,-2.6201,-2.6963,-2.7891,-2.9138,-3.0222,-3.1453,-3.2369,-3.3449,-3.4521,-3.4989,-3.5587,0.2155,0.2155,0.2155,0.1346,0.0,0.0,0.0,0.0,0.0,0.0,0.0,0.0,0.0,0.0,0.0,0.0,0.0,0.0,-0.2429,-0.5146,-0.7801,-0.8644,-0.8834,-0.891,-0.9035,-0.9106,-0.9188,-0.9157,-0.8882,-0.9302,-0.9546,-0.9606,-0.9584,-0.9568,-0.9639,-0.9546,-0.9492,-0.9617,-0.9367,-0.9323,-0.9307,-0.9302,-0.9302,-0.9446,-0.959,-1.0023,-1.0455,-1.075,-1.1044,-1.1599,-1.2858,-1.4273,-1.6169,-1.8768,-2.0438,-2.104,-2.1052,-2.1172,-2.139,-2.1185,-2.1209,-2.1329,-2.1378,-2.145,-2.1523,-2.1691,-2.2019,-2.2301,-2.2238,-2.2198,-2.2271,-2.2271,-2.2271,-2.2271,-2.2271,-2.2271,-2.2271,-2.2271,-2.2271,-2.2271,-2.2271,-2.2271,-2.2271,-2.2271,-2.2271,-2.2271,-2.2271,-2.2295,-2.2331,-2.2597,-2.2935,-2.3152,-2.3406,-2.3647,-2.3828,-2.3828,-2.384,-2.384,-2.384,-2.384,-2.384,-2.4,-2.4172,-2.4492,-2.4958,-2.5885,-2.5898,-2.6056,-2.7605,-2.9153,-3.0531,-3.1759,-3.2994,-3.3902,-3.4221,0.2155,0.2155,0.2155,0.1346,0.0,0.0,0.0,0.0,0.0,0.0,0.0,0.0,0.0,0.0,0.0,0.0,0.0,-0.5195,-0.671,-0.4968,-0.7783,-0.8676,-0.9024,-0.9133,-0.9253,-0.9362,-0.9443,-0.9387,-0.9413,-0.965,-0.9677,-0.9737,-0.9612,-0.9552,-0.9541,-0.9492,-0.9459,-0.9378,-0.9323,-0.9302,-0.9302,-0.9302,-0.9302,-0.9302,-0.9446,-0.9735,-1.0167,-1.0462,-1.09,-1.1352,-1.2632,-1.4129,-1.5919,-1.8571,-1.9889,-2.0887,-2.1354,-2.1462,-2.1655,-2.1619,-2.1547,-2.1583,-2.1643,-2.1728,-2.1606,-2.1981,-2.209,-2.2275,-2.2347,-2.2271,-2.2271,-2.2271,-2.2271,-2.2271,-2.2271,-2.2271,-2.2271,-2.2271,-2.2271,-2.2271,-2.2271,-2.2271,-2.2271,-2.2271,-2.2271,-2.2271,-2.2271,-2.2271,-2.2295,-2.2669,-2.3031,-2.3188,-2.3418,-2.3671,-2.384,-2.384,-2.384,-2.384,-2.384,-2.384,-2.384,-2.384,-2.384,-2.416,-2.4332,-2.4652,-2.497,-2.5435,-2.5753,-2.6833,-2.8374,-3.0068,-3.1453,-3.2065,-3.2217,0.205,0.1776,0.1776,0.1093,0.0,0.0,0.0,0.0,0.0,0.0,0.0,0.0,0.0,0.0,0.0,0.0,0.0,-0.6241,-0.8959,-0.6625,-0.8228,-0.9018,-0.9264,-0.9372,-0.9497,-0.9601,-0.9677,-0.9769,-0.9807,-0.9758,-0.9715,-0.9639,-0.9525,-0.9443,-0.9421,-0.9405,-0.9389,-0.9323,-0.9302,-0.9302,-0.9302,-0.9302,-0.9302,-0.9302,-0.9446,-0.9446,-0.9879,-1.0173,-1.048,-1.1108,-1.2184,-1.3421,-1.5704,-1.7699,-1.9457,-2.1014,-2.174,-2.1836,-2.1957,-2.2005,-2.1909,-2.1824,-2.1933,-2.1981,-2.1846,-2.2138,-2.2211,-2.2247,-2.2271,-2.2271,-2.2271,-2.2271,-2.2271,-2.2271,-2.2271,-2.2271,-2.2271,-2.2271,-2.2271,-2.2271,-2.2271,-2.2271,-2.2271,-2.2271,-2.2271,-2.2271,-2.2271,-2.2271,-2.2307,-2.2705,-2.3043,-2.3188,-2.343,-2.3719,-2.384,-2.384,-2.384,-2.384,-2.384,-2.384,-2.384,-2.384,-2.384,-2.384,-2.4012,-2.4332,-2.4492,-2.497,-2.5276,-2.5753,-2.6531,-2.8076,-2.9759,-3.0068,-3.0222,0.1823,0.1122,0.1122,0.0701,0.0,0.0,0.0,0.0,0.0,0.0,0.0,0.0,0.0,0.0,0.0,0.0,0.0,0.0,-0.8272,-0.9072,-0.9307,-0.9551,-0.9497,-0.9606,-0.9682,-0.9775,-0.9818,-0.9796,-0.9982,-0.9748,-0.965,-0.9519,-0.9394,-0.9345,-0.9334,-0.9329,-0.9323,-0.9307,-0.9302,-0.9302,-0.9302,-0.9302,-0.9302,-0.9302,-0.9302,-0.9463,-0.9763,-1.0064,-1.042,-1.1205,-1.2443,-1.3707,-1.5406,-1.738,-1.9506,-2.1195,-2.1841,-2.2186,-2.2198,-2.2198,-2.2211,-2.2114,-2.2186,-2.2247,-2.2235,-2.2235,-2.2259,-2.2271,-2.2271,-2.2271,-2.2271,-2.2271,-2.2271,-2.2271,-2.2271,-2.2271,-2.2271,-2.2271,-2.2271,-2.2271,-2.2271,-2.2271,-2.2271,-2.2271,-2.2271,-2.2271,-2.2271,-2.2271,-2.2367,-2.2742,-2.3031,-2.3128,-2.3393,-2.3756,-2.384,-2.384,-2.384,-2.384,-2.384,-2.384,-2.384,-2.384,-2.384,-2.384,-2.384,-2.4,-2.4332,-2.4492,-2.4811,-2.5276,-2.5435,-2.6056,-2.7762,-2.8061,-2.8218,0.2105,0.1824,0.0842,0.014,0.0,0.0,0.0,0.0,0.0,0.0,0.0,0.0,0.0,0.0,0.0,0.0,0.0,-0.4075,-0.737,-0.877,-0.9695,-0.9639,-0.9709,-0.9764,-0.9813,-0.9824,-0.9824,-0.9786,-0.9855,-0.9655,-0.953,-0.9367,-0.9329,-0.9307,-0.9302,-0.9302,-0.9302,-0.9302,-0.9302,-0.9302,-0.9302,-0.9302,-0.9302,-0.9302,-0.9329,-0.9507,-0.9562,-0.9888,-1.0257,-1.0785,-1.1652,-1.2792,-1.4761,-1.5772,-1.7133,-2.0036,-2.1314,-2.2259,-2.2271,-2.2271,-2.2259,-2.2109,-2.2259,-2.2271,-2.2259,-2.2271,-2.2271,-2.2271,-2.2271,-2.2271,-2.2271,-2.2271,-2.2271,-2.2271,-2.2271,-2.2271,-2.2271,-2.2271,-2.2271,-2.2271,-2.2271,-2.2271,-2.2271,-2.2271,-2.2271,-2.2271,-2.2271,-2.2271,-2.238,-2.2742,-2.2995,-2.3092,-2.3369,-2.3719,-2.3828,-2.384,-2.384,-2.384,-2.384,-2.384,-2.384,-2.384,-2.384,-2.384,-2.384,-2.384,-2.4,-2.4172,-2.4492,-2.4332,-2.432,-2.4958,-2.5435,-2.6056,-2.6517,0.2279,0.2138,0.1282,0.057,0.0,0.0,0.0,0.0,0.0,0.0,0.0,0.0,0.0,0.0,0.0,0.0,0.0,-0.4758,-0.6907,-0.9257,-0.9748,-0.9813,-0.9867,-0.9856,-0.9835,-0.9829,-0.9775,-0.9849,-0.9744,-0.9481,-0.9362,-0.9318,-0.9302,-0.9302,-0.9302,-0.9302,-0.9302,-0.9302,-0.9302,-0.9302,-0.9307,-0.9307,-0.9302,-0.9334,-0.9372,-0.9492,-0.9568,-0.9916,-1.0179,-1.0247,-1.1121,-1.2066,-1.3435,-1.3961,-1.5523,-1.827,-1.951,-1.9973,-2.0124,-2.0887,-2.1187,-2.1499,-2.1798,-2.2259,-2.2271,-2.2271,-2.2271,-2.2271,-2.2271,-2.2271,-2.2271,-2.2271,-2.2271,-2.2271,-2.2271,-2.2271,-2.2271,-2.2271,-2.2271,-2.2271,-2.2271,-2.2271,-2.2271,-2.2271,-2.2271,-2.2271,-2.2271,-2.2271,-2.2367,-2.2597,-2.2874,-2.3043,-2.3345,-2.3683,-2.3756,-2.384,-2.384,-2.384,-2.384,-2.384,-2.384,-2.384,-2.384,-2.384,-2.384,-2.384,-2.384,-2.384,-2.4,-2.384,-2.384,-2.416,-2.4639,-2.4798,-2.5117,0.2331,0.2331,0.2189,0.1311,0.0,0.0,0.0,0.0,0.0,0.0,0.0,0.0,0.0,0.0,0.0,0.0,-0.5002,-0.5922,-0.749,-1.0031,-0.9862,-0.99,-0.99,-0.9894,-0.9807,-0.9769,-0.9704,-0.959,-0.9623,-0.9383,-0.9329,-0.9302,-0.9302,-0.9302,-0.9302,-0.9302,-0.9302,-0.9307,-0.9323,-0.934,-0.9323,-0.9318,-0.934,-0.9394,-0.9546,-0.9715,-0.9769,-0.9878,-1.018,-1.0491,-1.0791,-1.1411,-1.2165,-1.2748,-1.4581,-1.6286,-1.7683,-1.8138,-1.8441,-1.9057,-1.951,-2.0124,-2.0887,-2.136,-2.121,-2.2109,-2.2259,-2.2271,-2.2271,-2.2271,-2.2271,-2.2271,-2.2271,-2.2271,-2.2271,-2.2271,-2.2271,-2.2271,-2.2271,-2.2271,-2.2271,-2.2271,-2.2271,-2.2271,-2.2271,-2.2271,-2.2271,-2.2271,-2.2331,-2.25,-2.273,-2.2971,-2.3309,-2.3611,-2.378,-2.384,-2.384,-2.384,-2.384,-2.384,-2.384,-2.384,-2.384,-2.384,-2.384,-2.384,-2.384,-2.384,-2.384,-2.384,-2.384,-2.384,-2.384,-2.4,-2.4492,0.2333,0.2187,0.1895,0.1021,0.0,0.0,0.0,0.0,0.0,0.0,0.0,0.0,0.0,0.0,0.0,-0.1843,-0.292,-0.6641,-0.8891,-0.9821,-0.996,-0.9883,-0.9883,-0.9818,-0.9731,-0.9606,-0.9525,-0.9476,-0.9383,-0.9323,-0.9302,-0.9302,-0.9302,-0.9302,-0.9302,-0.9302,-0.9307,-0.9329,-0.9254,-0.9405,-0.9372,-0.965,-0.9739,-0.9805,-0.9791,-0.9965,-1.0014,-1.0025,-1.0106,-1.0285,-1.052,-1.1113,-1.2037,-1.2286,-1.3509,-1.5225,-1.6465,-1.677,-1.7074,-1.7531,-1.7834,-1.7986,-1.8603,-1.9088,-1.9854,-2.136,-2.2109,-2.2109,-2.2109,-2.2109,-2.2109,-2.2109,-2.2271,-2.2271,-2.2271,-2.2271,-2.2271,-2.2271,-2.2271,-2.2271,-2.2271,-2.2271,-2.2271,-2.2271,-2.2271,-2.2271,-2.2271,-2.2271,-2.2259,-2.2229,-2.2317,-2.2579,-2.3237,-2.3526,-2.3707,-2.384,-2.384,-2.384,-2.384,-2.384,-2.384,-2.384,-2.384,-2.384,-2.384,-2.384,-2.384,-2.384,-2.384,-2.384,-2.384,-2.384,-2.384,-2.384,-2.4332,0.2333,0.2334,0.2054,0.1619,0.1033,0.0298,0.0,0.0,0.0,0.0,0.0,0.0,0.0,0.0,0.0,-0.1397,-0.2487,-0.5783,-0.8256,-0.9341,-0.9943,-0.9851,-0.9791,-0.9715,-0.9622,-0.9497,-0.9421,-0.9362,-0.9313,-0.9302,-0.9302,-0.9302,-0.9302,-0.9307,-0.9307,-0.9307,-0.9345,-0.9389,-0.9361,-0.9404,-0.953,-0.9827,-0.9943,-0.9867,-1.0036,-1.0182,-1.0204,-1.0193,-1.0237,-1.0188,-1.023,-1.0802,-1.1566,-1.2165,-1.293,-1.3714,-1.4483,-1.5242,-1.5548,-1.5854,-1.6312,-1.6312,-1.7227,-1.8016,-1.8319,-1.951,-1.9025,-1.9025,-1.951,-1.951,-2.0575,-2.0887,-2.1648,-2.196,-2.2109,-2.2271,-2.2271,-2.2271,-2.2271,-2.2271,-2.2271,-2.2271,-2.2271,-2.2271,-2.2271,-2.2259,-2.2259,-2.2109,-2.2109,-2.1349,-2.158,-2.1812,-2.2125,-2.3043,-2.3562,-2.3719,-2.384,-2.384,-2.384,-2.384,-2.384,-2.384,-2.384,-2.384,-2.384,-2.384,-2.384,-2.384,-2.384,-2.384,-2.384,-2.384,-2.384,-2.384,-2.4332,0.2335,0.2342,0.2371,0.2386,0.2092,0.0906,0.0,0.0,0.0,0.0,0.0,0.0,0.0,0.0,0.0,0.0,-0.5011,-0.6715,-0.8225,-0.9259,-0.9829,-0.9748,-0.965,-0.9552,-0.9497,-0.9438,-0.9362,-0.9334,-0.9302,-0.9302,-0.9302,-0.9302,-0.9307,-0.9313,-0.9323,-0.9362,-0.9427,-0.942,-0.9543,-0.966,-0.9862,-1.0064,-1.0147,-1.0123,-1.0259,-1.0335,-1.0351,-1.0335,-1.0362,-1.0248,-1.0085,-1.0658,-1.1262,-1.2037,-1.234,-1.2965,-1.3112,-1.3267,-1.3267,-1.403,-1.433,-1.4944,-1.616,-1.677,-1.677,-1.6608,-1.6286,-1.6438,-1.6761,-1.7834,-1.8905,-1.9661,-2.0575,-2.1499,-2.1798,-2.2109,-2.2109,-2.2109,-2.2109,-2.2109,-2.2109,-2.2109,-2.196,-2.196,-2.2109,-2.2109,-2.196,-2.1948,-2.1648,-2.0285,-1.9626,-2.0102,-2.0461,-2.1502,-2.2764,-2.3476,-2.3656,-2.384,-2.384,-2.384,-2.384,-2.384,-2.384,-2.384,-2.384,-2.384,-2.384,-2.384,-2.384,-2.384,-2.384,-2.384,-2.384,-2.384,-2.4332,0.2348,0.2372,0.2402,0.2414,0.2269,0.1682,0.0769,0.0,0.0,0.0,0.0,0.0,0.0,0.0,0.0,0.0,-0.6881,-0.7933,-0.8669,-0.9709,-0.9737,-0.9633,-0.9541,-0.947,-0.9421,-0.9367,-0.9323,-0.9313,-0.9302,-0.9302,-0.9302,-0.9302,-0.9313,-0.9362,-0.9465,-0.953,-0.9644,-0.9628,-0.9805,-0.9798,-1.0221,-1.0423,-1.0451,-1.0534,-1.0443,-1.0487,-1.0471,-1.0335,-1.0269,-1.0177,-1.0085,-1.0497,-1.1262,-1.1895,-1.236,-1.2501,-1.2501,-1.2501,-1.2804,-1.3112,-1.3421,-1.3421,-1.4184,-1.403,-1.403,-1.403,-1.4014,-1.4322,-1.5097,-1.677,-1.7683,-1.7834,-1.8441,-1.9962,-2.0725,-2.1349,-2.1648,-2.1648,-2.1648,-2.1648,-2.1648,-2.1037,-2.0274,-2.0575,-2.1037,-2.0887,-2.0274,-2.0274,-2.0113,-1.9067,-1.7854,-1.8286,-1.8732,-1.9834,-2.1118,-2.2805,-2.33,-2.3656,-2.384,-2.384,-2.384,-2.384,-2.384,-2.384,-2.384,-2.384,-2.384,-2.384,-2.384,-2.384,-2.384,-2.384,-2.384,-2.384,-2.416]}]]